[[{"header":{"parameterUnit":"m.s-1","parameterCategory":1,"la1":30.6,"la2":29.2853,"lo1":-89.7004,"lo2":-87.6739,"dy":0.0162,"dx":0.0183,"nx":112,"ny":82,"refTime":"2023-10-27T12:00:00:Z","depth":0,"parameterNumber":2,"parameterNumberName":"U-component_of_WINDS"},"data":[0.0,0.0,0.0,0.0,0.0,0.0,0.0,0.0,0.0,0.0,0.0,0.0,0.0,0.0,0.0,0.0,0.0,0.0,0.0,0.0,0.0,0.0,0.0,0.0,0.0,0.0,0.0,0.0,0.0,0.0,0.0,0.0,0.0,0.0,0.0,0.0,0.0,0.0,0.0,0.0,0.0,0.0,0.0,0.0,0.0,0.0,0.0,0.0,0.0,0.0,0.0,0.0,0.0,0.0,0.0,0.0,0.0,0.0,0.0,0.0,0.0,0.0,0.0,0.0,0.0,0.0,0.0,0.0,0.0,0.0,0.0,0.0,0.0,0.0,0.0,0.0,0.0,0.0,0.0,0.0,0.0,0.0,0.0,0.0,0.0,0.0,0.0,0.0,0.0,0.0,9.2617,9.2617,9.2603,9.2613,9.26,9.26,9.26,9.26,0.0,0.0,0.0,0.0,0.0,0.0,0.0,0.0,0.0,0.0,0.0,0.0,0.0,0.0,0.0,0.0,0.0,0.0,0.0,0.0,0.0,0.0,0.0,0.0,0.0,0.0,0.0,0.0,0.0,0.0,0.0,0.0,0.0,0.0,0.0,0.0,0.0,0.0,0.0,0.0,0.0,0.0,0.0,0.0,0.0,0.0,0.0,0.0,0.0,0.0,0.0,0.0,0.0,0.0,0.0,0.0,0.0,0.0,0.0,0.0,0.0,0.0,0.0,0.0,0.0,0.0,0.0,0.0,0.0,0.0,0.0,0.0,0.0,0.0,0.0,0.0,0.0,0.0,0.0,0.0,0.0,0.0,0.0,0.0,0.0,0.0,0.0,0.0,0.0,0.0,0.0,0.0,0.0,0.0,0.0,0.0,0.0,0.0,0.0,0.0,0.0,0.0,0.0,0.0,9.2617,9.2617,9.2617,9.2609,9.2606,9.26,9.26,9.26,0.0,0.0,0.0,0.0,0.0,0.0,0.0,0.0,0.0,0.0,0.0,0.0,0.0,0.0,0.0,0.0,0.0,0.0,0.0,0.0,0.0,0.0,0.0,0.0,0.0,0.0,0.0,0.0,0.0,0.0,0.0,0.0,0.0,0.0,0.0,0.0,0.0,0.0,0.0,0.0,0.0,0.0,0.0,0.0,0.0,0.0,0.0,0.0,0.0,0.0,0.0,0.0,0.0,0.0,0.0,0.0,0.0,0.0,0.0,0.0,0.0,0.0,0.0,0.0,0.0,0.0,0.0,0.0,0.0,0.0,0.0,0.0,0.0,0.0,0.0,0.0,0.0,0.0,0.0,0.0,0.0,0.0,0.0,0.0,0.0,0.0,0.0,0.0,0.0,0.0,0.0,0.0,0.0,0.0,0.0,0.0,0.0,0.0,0.0,0.0,0.0,0.0,0.0,9.3437,9.3828,9.3359,9.3711,9.4022,9.4012,9.403,9.4024,9.4009,9.3552,0.0,0.0,0.0,0.0,0.0,0.0,0.0,0.0,0.0,0.0,0.0,0.0,0.0,0.0,0.0,0.0,0.0,0.0,0.0,0.0,0.0,0.0,0.0,0.0,0.0,0.0,0.0,0.0,0.0,0.0,0.0,0.0,0.0,0.0,0.0,0.0,0.0,0.0,0.0,0.0,0.0,0.0,0.0,0.0,0.0,0.0,0.0,0.0,0.0,0.0,0.0,0.0,0.0,0.0,0.0,0.0,0.0,0.0,0.0,0.0,0.0,0.0,0.0,0.0,0.0,0.0,0.0,0.0,0.0,0.0,0.0,0.0,0.0,0.0,0.0,0.0,0.0,0.0,0.0,0.0,0.0,0.0,0.0,0.0,0.0,0.0,0.0,0.0,0.0,0.0,0.0,0.0,0.0,0.0,0.0,0.0,0.0,0.0,0.0,0.0,0.0,0.0,9.4375,9.4922,9.4297,9.4804,9.5195,9.5195,9.5184,9.522,9.5195,9.457,0.0,0.0,0.0,0.0,0.0,0.0,0.0,0.0,0.0,0.0,0.0,0.0,0.0,0.0,0.0,0.0,0.0,0.0,0.0,0.0,0.0,0.0,0.0,0.0,0.0,0.0,0.0,0.0,0.0,0.0,0.0,0.0,0.0,0.0,0.0,0.0,0.0,0.0,0.0,0.0,0.0,0.0,0.0,0.0,0.0,0.0,0.0,0.0,0.0,0.0,0.0,0.0,0.0,0.0,0.0,0.0,0.0,0.0,0.0,0.0,0.0,0.0,0.0,0.0,0.0,0.0,0.0,0.0,0.0,0.0,0.0,0.0,0.0,0.0,0.0,0.0,0.0,0.0,0.0,0.0,0.0,0.0,0.0,0.0,0.0,0.0,0.0,0.0,0.0,0.0,0.0,0.0,0.0,0.0,0.0,0.0,0.0,0.0,0.0,0.0,0.0,0.0,9.5117,9.5195,9.5117,9.5156,9.5195,9.5195,9.5195,9.5195,9.5195,9.5156,0.0,0.0,0.0,0.0,0.0,0.0,0.0,0.0,0.0,0.0,0.0,0.0,0.0,0.0,0.0,0.0,0.0,0.0,0.0,0.0,0.0,0.0,0.0,0.0,0.0,0.0,0.0,0.0,0.0,0.0,0.0,0.0,0.0,0.0,0.0,0.0,0.0,0.0,0.0,0.0,0.0,0.0,0.0,0.0,0.0,0.0,0.0,0.0,0.0,0.0,0.0,0.0,0.0,0.0,0.0,0.0,0.0,0.0,0.0,0.0,0.0,0.0,0.0,0.0,0.0,0.0,0.0,0.0,0.0,0.0,0.0,0.0,0.0,0.0,0.0,0.0,0.0,0.0,0.0,0.0,0.0,0.0,0.0,0.0,0.0,0.0,0.0,0.0,0.0,0.0,0.0,0.0,0.0,0.0,0.0,0.0,0.0,0.0,0.0,0.0,0.0,0.0,9.6094,9.6562,9.6054,9.6445,9.6758,9.6758,9.6758,9.6758,9.6758,0.0,0.0,0.0,0.0,0.0,0.0,0.0,0.0,0.0,0.0,0.0,0.0,0.0,0.0,0.0,0.0,0.0,0.0,0.0,0.0,0.0,0.0,0.0,0.0,0.0,0.0,0.0,0.0,0.0,0.0,0.0,0.0,0.0,0.0,0.0,0.0,0.0,0.0,0.0,0.0,0.0,0.0,0.0,0.0,0.0,0.0,0.0,0.0,0.0,0.0,0.0,0.0,0.0,0.0,0.0,0.0,0.0,0.0,0.0,0.0,0.0,0.0,0.0,0.0,0.0,0.0,0.0,0.0,0.0,0.0,0.0,0.0,0.0,0.0,0.0,0.0,0.0,0.0,0.0,0.0,0.0,0.0,0.0,0.0,0.0,0.0,0.0,0.0,0.0,0.0,0.0,0.0,0.0,0.0,0.0,0.0,0.0,0.0,0.0,0.0,0.0,0.0,9.6054,9.6992,9.75,9.6953,9.7383,9.7695,9.7695,9.7695,9.7695,9.7695,0.0,0.0,0.0,0.0,0.0,0.0,0.0,0.0,0.0,0.0,0.0,0.0,0.0,0.0,0.0,0.0,0.0,0.0,0.0,0.0,0.0,0.0,0.0,0.0,0.0,0.0,0.0,0.0,0.0,0.0,0.0,0.0,0.0,0.0,0.0,0.0,0.0,0.0,0.0,0.0,0.0,0.0,0.0,0.0,0.0,0.0,0.0,0.0,0.0,0.0,0.0,0.0,0.0,0.0,0.0,0.0,0.0,0.0,0.0,0.0,0.0,0.0,0.0,0.0,0.0,0.0,0.0,0.0,0.0,0.0,0.0,0.0,0.0,0.0,0.0,0.0,0.0,0.0,0.0,0.0,0.0,0.0,0.0,0.0,0.0,0.0,0.0,0.0,0.0,0.0,0.0,0.0,0.0,0.0,0.0,0.0,0.0,0.0,0.0,0.0,0.0,0.0,9.7617,9.7695,9.7695,9.7695,9.7734,9.7734,9.7734,9.7734,9.7734,0.0,0.0,0.0,0.0,0.0,0.0,0.0,0.0,0.0,0.0,0.0,0.0,0.0,0.0,0.0,0.0,0.0,0.0,0.0,0.0,0.0,0.0,0.0,0.0,0.0,0.0,0.0,0.0,0.0,0.0,0.0,0.0,0.0,0.0,0.0,0.0,0.0,0.0,0.0,0.0,0.0,0.0,0.0,0.0,0.0,0.0,0.0,0.0,0.0,0.0,0.0,0.0,0.0,0.0,0.0,0.0,0.0,0.0,0.0,0.0,0.0,0.0,0.0,0.0,0.0,0.0,0.0,0.0,0.0,0.0,0.0,0.0,0.0,0.0,0.0,0.0,0.0,0.0,0.0,0.0,0.0,0.0,0.0,0.0,0.0,0.0,0.0,0.0,0.0,0.0,0.0,0.0,0.0,0.0,0.0,0.0,0.0,0.0,0.0,0.0,0.0,0.0,0.0,9.7656,9.8242,9.8633,9.8633,9.9179,9.9531,9.9531,9.9531,9.9531,9.9531,0.0,0.0,0.0,0.0,0.0,0.0,0.0,0.0,0.0,0.0,0.0,0.0,0.0,0.0,0.0,0.0,0.0,0.0,0.0,0.0,0.0,0.0,0.0,0.0,0.0,0.0,0.0,0.0,0.0,0.0,0.0,0.0,0.0,0.0,0.0,0.0,0.0,0.0,0.0,0.0,0.0,0.0,0.0,0.0,0.0,0.0,0.0,0.0,0.0,0.0,0.0,0.0,0.0,0.0,0.0,0.0,0.0,0.0,0.0,0.0,0.0,0.0,0.0,0.0,0.0,0.0,0.0,0.0,0.0,0.0,0.0,0.0,0.0,0.0,0.0,0.0,0.0,0.0,0.0,0.0,0.0,0.0,0.0,0.0,0.0,0.0,0.0,0.0,0.0,0.0,0.0,0.0,0.0,0.0,0.0,0.0,0.0,0.0,0.0,0.0,0.0,0.0,9.8672,9.9179,9.9531,9.9531,10.0,10.0312,10.0312,10.0312,10.0312,10.0312,0.0,0.0,0.0,0.0,0.0,0.0,0.0,0.0,0.0,0.0,0.0,0.0,0.0,0.0,0.0,0.0,0.0,0.0,0.0,0.0,0.0,0.0,0.0,0.0,0.0,0.0,0.0,0.0,0.0,0.0,0.0,0.0,0.0,0.0,0.0,0.0,0.0,0.0,0.0,0.0,0.0,0.0,0.0,0.0,0.0,0.0,0.0,0.0,0.0,0.0,0.0,0.0,0.0,0.0,0.0,0.0,0.0,0.0,0.0,0.0,0.0,0.0,0.0,0.0,0.0,0.0,0.0,0.0,0.0,0.0,0.0,0.0,0.0,0.0,0.0,0.0,0.0,0.0,0.0,0.0,0.0,0.0,0.0,0.0,0.0,0.0,0.0,0.0,0.0,0.0,0.0,0.0,0.0,0.0,0.0,0.0,0.0,0.0,0.0,0.0,0.0,0.0,10.0195,10.039,10.039,10.039,10.0508,10.0508,10.0508,10.0508,10.0508,10.0508,0.0,0.0,0.0,0.0,0.0,0.0,0.0,0.0,0.0,0.0,0.0,0.0,0.0,0.0,0.0,0.0,0.0,0.0,0.0,0.0,0.0,0.0,0.0,0.0,0.0,0.0,0.0,0.0,0.0,0.0,0.0,0.0,0.0,0.0,0.0,0.0,0.0,0.0,0.0,0.0,0.0,0.0,0.0,0.0,0.0,0.0,0.0,0.0,0.0,0.0,0.0,0.0,0.0,0.0,0.0,0.0,0.0,0.0,0.0,0.0,8.9478,8.9453,0.0,0.0,0.0,0.0,0.0,0.0,0.0,0.0,0.0,0.0,0.0,0.0,0.0,0.0,0.0,0.0,0.0,0.0,0.0,0.0,0.0,0.0,0.0,0.0,0.0,0.0,0.0,0.0,0.0,0.0,0.0,0.0,0.0,0.0,0.0,0.0,0.0,0.0,0.0,0.0,10.0312,10.0898,10.1289,10.1289,10.1914,10.2304,10.2304,10.2304,10.2304,10.2304,10.1719,0.0,0.0,0.0,0.0,0.0,0.0,0.0,0.0,0.0,0.0,0.0,0.0,0.0,0.0,0.0,0.0,0.0,0.0,0.0,0.0,0.0,0.0,0.0,0.0,0.0,0.0,0.0,0.0,0.0,0.0,0.0,0.0,0.0,0.0,0.0,0.0,0.0,0.0,0.0,0.0,0.0,0.0,0.0,0.0,0.0,0.0,0.0,0.0,0.0,0.0,0.0,0.0,0.0,0.0,0.0,0.0,0.0,0.0,0.0,9.0303,8.9947,0.0,0.0,0.0,0.0,0.0,0.0,0.0,0.0,0.0,0.0,0.0,0.0,0.0,0.0,0.0,0.0,0.0,0.0,0.0,0.0,0.0,0.0,0.0,0.0,0.0,0.0,0.0,0.0,0.0,0.0,0.0,0.0,0.0,0.0,0.0,0.0,0.0,0.0,0.0,0.0,10.1484,10.1914,10.2187,10.2187,10.2617,10.289,10.289,10.289,10.289,10.289,10.25,0.0,0.0,0.0,0.0,0.0,0.0,0.0,0.0,0.0,0.0,0.0,0.0,0.0,0.0,0.0,0.0,0.0,0.0,0.0,0.0,0.0,0.0,0.0,0.0,0.0,0.0,0.0,0.0,0.0,0.0,0.0,0.0,0.0,0.0,0.0,0.0,0.0,0.0,0.0,0.0,0.0,0.0,0.0,0.0,0.0,0.0,0.0,0.0,0.0,0.0,0.0,0.0,0.0,9.0274,9.0742,9.1445,9.1406,9.1788,9.2391,9.0979,9.0352,9.036,9.0412,0.0,0.0,0.0,0.0,0.0,0.0,0.0,0.0,0.0,0.0,0.0,0.0,0.0,0.0,0.0,0.0,0.0,0.0,0.0,0.0,0.0,0.0,0.0,0.0,9.5429,9.5469,9.5625,0.0,0.0,0.0,0.0,0.0,0.0,0.0,0.0,0.0,0.0,0.0,10.2812,10.289,10.289,10.289,10.289,10.289,10.289,10.289,10.289,10.289,10.289,10.289,0.0,0.0,0.0,0.0,0.0,0.0,0.0,0.0,0.0,0.0,0.0,0.0,0.0,0.0,0.0,0.0,0.0,0.0,0.0,0.0,0.0,0.0,0.0,0.0,0.0,0.0,0.0,0.0,0.0,0.0,0.0,0.0,8.7383,8.75,0.0,0.0,0.0,0.0,0.0,0.0,0.0,0.0,0.0,0.0,0.0,0.0,0.0,8.9789,8.993,9.0651,9.1028,9.1054,9.1795,9.2224,9.2341,9.2263,9.2288,9.2391,9.2171,0.0,9.2146,9.2159,0.0,0.0,0.0,0.0,0.0,0.0,0.0,0.0,0.0,0.0,0.0,0.0,0.0,0.0,0.0,0.0,0.0,0.0,0.0,0.0,0.0,0.0,9.5234,9.6133,9.6328,9.6523,0.0,9.6836,9.6367,9.6484,9.7695,9.875,0.0,0.0,0.0,0.0,0.0,0.0,10.289,10.289,10.289,10.289,10.289,10.289,10.289,10.289,10.289,10.289,10.289,10.289,10.289,10.2812,0.0,0.0,0.0,0.0,0.0,0.0,0.0,0.0,0.0,0.0,0.0,0.0,0.0,0.0,0.0,0.0,0.0,0.0,0.0,0.0,0.0,0.0,0.0,0.0,0.0,0.0,0.0,0.0,0.0,8.7245,8.7465,8.75,8.7461,8.7461,0.0,0.0,0.0,0.0,0.0,0.0,0.0,0.0,0.0,9.0596,9.0635,9.0841,9.1309,9.1678,9.1885,9.1885,9.2742,9.3171,9.3171,9.3599,9.3794,9.3794,9.3794,9.3833,9.3794,9.282,9.2417,9.2507,0.0,0.0,0.0,0.0,9.4005,9.4044,9.402,9.4023,9.4062,9.4062,0.0,0.0,0.0,0.0,0.0,0.0,0.0,9.5312,0.0,0.0,9.6133,9.6992,9.7539,9.8008,9.8359,9.8554,9.8476,0.0,9.8906,9.9883,10.039,10.1094,0.0,0.0,0.0,10.3086,10.3594,10.3594,10.3789,10.4297,10.4414,10.4414,10.4414,10.4414,10.4219,10.3711,10.3594,10.3398,10.289,10.289,10.2695,0.0,0.0,0.0,0.0,0.0,0.0,0.0,0.0,0.0,0.0,0.0,0.0,0.0,0.0,0.0,0.0,0.0,0.0,0.0,0.0,0.0,0.0,0.0,0.0,0.0,0.0,0.0,0.0,8.7459,8.7456,8.7483,8.7447,8.749,0.0,0.0,0.0,0.0,0.0,0.0,9.0179,9.0222,9.0624,9.1481,9.152,9.1924,9.2703,9.2742,9.2859,9.3054,9.3716,9.3989,9.4028,9.4613,9.4885,9.4885,9.4885,9.4885,9.4807,9.356,9.3054,9.3146,9.3816,9.4122,9.4204,9.4829,9.5137,9.5171,9.5129,9.515,9.5152,9.5152,9.5152,9.515,9.5181,0.0,0.0,0.0,0.0,9.5976,9.664,9.6953,9.7304,9.789,9.8711,9.9336,9.9336,10.0,10.039,0.0,10.0,10.0781,10.1484,10.1797,0.0,10.3086,10.3203,10.3515,10.4414,10.4492,10.4804,10.539,10.5508,10.5508,10.5508,10.5508,10.5195,10.4609,10.4297,10.3906,10.3281,10.3008,10.289,10.289,0.0,0.0,0.0,0.0,0.0,0.0,0.0,0.0,0.0,0.0,0.0,0.0,0.0,0.0,0.0,0.0,0.0,0.0,0.0,0.0,0.0,0.0,0.0,0.0,0.0,0.0,0.0,0.0,0.0,8.7415,8.739,0.0,0.0,0.0,0.0,8.9782,8.9844,9.0195,9.0989,9.1028,9.1442,9.2313,9.2352,9.2742,9.3638,9.3638,9.4028,9.4768,9.4807,9.4846,9.4846,9.4885,9.4885,9.4885,9.4885,9.4885,9.4885,9.4807,9.4807,9.4885,9.4938,9.4977,9.5016,9.5016,9.5054,9.5091,9.5035,9.5044,9.5098,9.5098,9.5098,9.5122,9.5096,9.5684,0.0,0.0,9.6953,9.7578,9.7617,9.8242,9.8867,9.8906,9.9609,10.0195,10.0195,10.0898,10.1289,0.0,10.0898,10.1484,10.1601,0.0,10.3086,10.3984,10.4101,10.4414,10.5312,10.539,10.5508,10.5508,10.5508,10.5508,10.5508,10.5508,10.5508,10.539,10.4687,10.4219,10.4101,10.3281,10.289,10.289,10.289,0.0,0.0,0.0,0.0,0.0,0.0,0.0,0.0,0.0,0.0,0.0,0.0,0.0,0.0,0.0,0.0,0.0,0.0,0.0,0.0,0.0,0.0,0.0,0.0,0.0,0.0,0.0,0.0,8.7417,8.7871,0.0,8.8557,8.9103,8.9766,9.0624,9.0651,9.1052,9.1885,9.1963,9.2352,9.321,9.3249,9.3638,9.4457,9.4457,9.4613,9.4924,9.547,9.5743,9.5743,9.6327,9.6561,9.6561,9.6561,9.6561,9.6561,9.6561,9.5937,9.5002,9.5548,9.582,9.5937,9.6483,9.6667,9.6707,9.6694,9.6707,9.6719,9.6719,9.6724,9.6722,9.6759,9.698,9.7347,9.7926,9.8281,9.8672,9.9219,9.9609,9.9844,9.9844,10.0508,10.109,10.1094,10.2203,10.3217,10.2803,10.2615,10.2617,10.3203,10.3515,10.3984,10.4883,10.5,10.5312,10.6211,10.6289,10.6484,10.6992,10.7109,10.7109,10.7109,10.7109,10.6914,10.6289,10.6015,10.5586,10.5117,10.4219,10.3711,10.3711,10.3203,10.2694,0.0,0.0,0.0,0.0,0.0,0.0,0.0,0.0,0.0,0.0,0.0,0.0,0.0,0.0,0.0,0.0,0.0,0.0,0.0,0.0,0.0,0.0,0.0,0.0,0.0,8.7624,8.7793,8.7793,8.8534,8.9157,8.943,8.9961,9.0663,9.1481,9.1534,9.1924,9.2781,9.2859,9.321,9.4067,9.4106,9.4496,9.5314,9.5353,9.5626,9.621,9.6795,9.7223,9.7535,9.812,9.8392,9.8392,9.8392,9.8392,9.8392,9.8392,9.7691,9.6678,9.6951,9.7262,9.7652,9.8236,9.8431,9.8431,9.8431,9.8431,9.8431,9.8431,9.8423,9.843,9.8499,9.8499,9.8642,9.9229,9.9405,9.9522,10.0108,10.0499,10.0694,10.0694,10.1597,10.2413,10.2412,10.3591,10.4588,10.4606,10.4095,10.3906,10.4492,10.4609,10.4883,10.5781,10.5898,10.6211,10.6992,10.7109,10.7383,10.789,10.8008,10.8008,10.8008,10.8008,10.7812,10.7187,10.6914,10.6484,10.5898,10.5117,10.4609,10.4609,10.3789,10.3203,10.289,0.0,0.0,0.0,0.0,0.0,0.0,0.0,0.0,0.0,0.0,0.0,0.0,0.0,0.0,0.0,0.0,0.0,0.0,0.0,0.0,0.0,0.0,0.0,8.7443,8.8169,8.8676,8.8651,8.943,9.0248,9.1028,9.1105,9.1495,9.2352,9.243,9.282,9.3638,9.3716,9.4106,9.4924,9.4963,9.5392,9.6249,9.6327,9.7184,9.8821,9.8821,9.9289,10.0107,10.0107,10.0185,10.0185,10.0185,10.0185,10.0185,10.0185,10.0185,10.0107,9.9211,9.9367,10.0107,10.0107,10.0107,10.0107,10.0107,10.0107,10.0107,10.0107,10.0107,10.0107,10.0107,10.0099,10.008,10.008,10.0187,10.0282,10.0282,10.0907,10.161,10.161,10.2888,10.4085,10.41,10.481,10.5506,10.5495,10.5491,10.5508,10.539,10.5508,10.5781,10.6601,10.6718,0.0,10.789,10.8007,10.8008,10.8086,10.8086,10.8086,10.8085,10.8085,10.8007,10.8007,10.7187,10.6719,10.6719,10.6015,10.5508,10.5508,10.4609,10.3789,10.289,0.0,0.0,0.0,0.0,0.0,0.0,0.0,0.0,0.0,0.0,0.0,0.0,0.0,0.0,0.0,0.0,0.0,0.0,0.0,0.0,0.0,8.7832,8.8248,8.8257,8.8428,8.8806,8.9469,9.0287,9.0872,9.1066,9.169,9.2158,9.2391,9.2976,9.3443,9.3677,9.4262,9.4963,9.582,9.6444,9.7184,9.8081,9.8704,9.9289,9.9756,9.9756,10.02,10.1008,10.1008,10.1412,10.1984,10.1984,10.1984,10.1984,10.1984,10.2413,10.2686,10.0604,9.9873,10.0107,10.0107,10.0107,10.0107,10.0107,10.0107,10.0107,10.0107,10.0107,10.0107,10.0107,10.0083,10.019,10.0891,10.1086,10.1386,10.2683,10.3201,10.3502,10.4194,10.4701,10.5,10.5012,10.5689,10.6286,10.6209,10.6792,10.701,10.6406,10.6406,10.6719,10.75,10.7613,10.7989,10.8796,10.8909,10.908,10.9687,10.9804,10.9795,10.9783,10.9315,10.888,10.8908,10.8082,10.7617,10.7617,10.6797,10.6093,10.5508,10.4609,10.4101,0.0,0.0,0.0,0.0,0.0,0.0,0.0,0.0,0.0,0.0,0.0,0.0,0.0,0.0,0.0,0.0,0.0,0.0,0.0,0.0,0.0,0.0,8.8534,8.9222,8.9603,8.9598,8.9781,9.0326,9.1144,9.1651,9.1651,9.243,9.2937,9.2937,9.3716,9.4535,9.5236,9.5743,9.6561,9.7808,9.8314,9.9031,9.9864,10.0409,10.0994,10.1724,10.1724,10.2192,10.2998,10.2998,10.3283,10.3803,10.3803,10.3803,10.3803,10.3803,10.4115,10.4388,0.0,0.0,0.0,0.0,10.1486,10.112,10.112,10.112,10.112,10.112,10.1408,10.1696,10.1696,10.2007,10.2412,10.2879,10.3099,10.3294,10.4311,10.4584,10.4687,10.5188,10.5617,10.589,10.5796,10.6505,10.7118,10.709,10.7795,0.0,10.7794,10.7396,10.7487,10.8386,10.8519,10.8795,10.9693,10.9809,10.9884,11.0417,11.0481,11.0509,11.0499,11.0076,0.0,0.0,0.0,10.8416,10.8008,10.75,0.0,0.0,0.0,10.5117,10.4687,10.3906,0.0,0.0,10.2109,10.1601,0.0,0.0,0.0,0.0,0.0,0.0,0.0,0.0,0.0,0.0,0.0,0.0,0.0,0.0,0.0,0.0,8.943,9.0209,9.0989,9.1183,9.1261,9.1261,9.1924,9.243,9.2547,9.3249,9.3794,9.395,9.4729,9.5898,9.7574,9.773,0.0,0.0,0.0,10.0799,10.1698,10.1815,10.2608,10.4115,10.4115,10.4622,10.5402,10.5402,10.5519,10.5597,10.5597,10.5597,10.5597,10.5597,10.5597,10.548,10.4505,10.4583,10.5207,10.4402,10.3581,10.2889,10.2889,0.0,0.0,10.2889,10.3489,10.4102,10.4102,10.4714,10.5312,10.5312,10.5286,10.5311,10.5389,10.5399,10.5406,10.5484,10.61,10.67,10.6708,10.7402,10.8001,10.7994,10.8719,10.9303,10.9303,10.8718,10.851,10.9212,10.929,10.9678,11.0489,11.0589,11.0689,11.0806,0.0,0.0,11.0813,11.0706,11.0589,11.0589,10.981,10.9003,10.8201,10.8085,10.7695,10.6914,10.6797,10.6289,10.5586,10.4804,10.4297,10.4297,10.3398,10.289,0.0,0.0,0.0,0.0,0.0,0.0,0.0,0.0,0.0,0.0,0.0,0.0,0.0,0.0,0.0,8.9586,9.0287,9.0911,9.1066,9.1729,9.2158,9.2158,9.2313,9.2664,9.3366,9.3599,9.4262,9.5626,9.6522,9.7457,9.847,9.9211,10.0083,10.11,10.1802,10.2595,10.3478,10.4181,10.4688,10.5013,10.5013,0.0,10.6299,10.6299,10.6703,10.7391,10.7391,10.7391,10.7391,10.7391,10.7391,10.7196,10.5714,10.5207,10.5285,10.509,10.4883,10.4805,10.4805,10.4805,10.4805,10.4805,10.4896,10.4999,10.4999,10.5102,0.0,10.5188,10.5188,10.5383,10.6076,10.6286,10.6388,10.709,10.7416,10.7597,10.7605,10.8306,10.8891,10.8913,10.9498,11.0083,11.0083,10.9998,11.0092,11.0208,11.0208,11.0505,11.1407,11.1407,11.1719,11.2421,11.2493,11.2509,11.2509,11.1892,11.1407,11.1407,11.0589,10.9784,10.9018,10.9017,10.8593,10.7812,10.7109,10.6601,10.6484,10.5586,10.5195,10.5195,10.3594,10.289,0.0,0.0,0.0,0.0,0.0,0.0,0.0,0.0,0.0,0.0,0.0,8.8713,8.9105,0.0,9.0482,9.0443,9.1183,9.1768,9.1768,9.2508,9.3054,9.3054,9.3054,9.356,9.4846,9.5353,9.6132,9.7418,9.8314,9.9381,10.0682,10.1189,10.1983,10.331,10.3804,10.4389,10.5285,10.5702,10.6118,10.6586,10.6586,10.6781,10.721,10.721,10.7496,10.7899,10.7899,10.7899,10.7899,10.7899,10.7899,10.7821,10.6884,10.6287,10.5884,10.5884,10.5598,10.5194,10.5194,10.5194,10.5194,10.5194,10.5506,10.5896,10.5896,10.6208,10.6597,10.6597,10.6505,10.6607,10.6987,10.7207,10.7387,10.8205,10.8517,10.8595,10.8991,10.9381,10.9693,10.9693,11.0394,11.1018,11.1018,11.1407,11.1602,11.1096,11.1018,11.129,11.2187,11.2304,11.2382,11.2888,11.2888,11.2888,11.2888,11.2615,11.2109,11.1602,11.129,11.07,10.981,10.9905,10.9499,10.8711,10.8203,10.7812,10.7304,10.6484,10.6093,10.6093,10.4804,10.4219,0.0,0.0,0.0,0.0,0.0,0.0,0.0,8.7543,8.7777,8.8646,8.8986,8.9274,8.9937,9.0768,9.1339,9.1339,9.208,9.2664,9.2664,9.3521,9.4262,9.4418,9.4301,9.4768,9.6327,9.7223,9.8236,9.9459,10.02,10.1384,10.3102,10.3219,10.3882,10.5519,10.5494,10.5987,10.6806,10.682,10.7093,10.7886,10.7886,10.7886,10.7912,10.8107,10.8107,10.8107,10.8302,10.838,10.838,10.838,10.838,10.838,10.838,10.7898,10.7207,10.6909,10.631,10.5695,10.5695,10.5695,10.5695,10.5695,10.6193,10.6792,10.6792,10.7313,10.7912,10.7912,10.8015,10.8103,10.8103,10.8205,10.8485,10.9186,10.9303,10.9498,11.0199,11.0394,11.0589,11.0589,11.129,11.1914,11.2109,11.2693,11.2888,11.1992,11.1992,11.2382,11.3083,11.3317,11.3395,11.3395,11.3395,11.3395,11.3395,11.3395,11.3005,11.2187,11.2187,11.1719,11.0706,11.0706,11.0419,10.949,10.9492,10.9101,10.8281,10.75,10.7109,10.6914,10.6289,10.5781,8.7354,8.7386,8.736,8.732,8.7298,8.7481,0.0,8.8391,8.8625,8.9482,9.0301,9.0833,9.095,9.1651,9.2235,9.2235,9.2976,9.356,9.356,9.4924,9.621,9.6989,9.6405,9.6288,9.7262,9.812,9.9654,10.2114,10.2387,10.3219,10.4895,10.5013,10.5481,10.6416,10.6377,10.6806,10.7704,10.7704,10.7795,10.7806,10.7806,10.7791,10.78,10.8618,10.9008,10.9008,10.9709,10.9982,10.9982,10.9982,10.9982,10.9982,10.9982,11.0021,10.9709,10.8302,10.7691,10.7613,10.7613,10.7613,10.7613,10.7613,10.76,10.7689,10.7689,10.7714,10.78,10.78,10.8384,10.9008,10.9008,10.9498,11.0005,11.0083,11.0199,11.0199,11.0316,11.0901,11.1485,11.1485,11.2187,11.3005,11.3784,11.4018,11.3784,11.2888,11.3395,11.3901,11.4018,11.472,11.5187,11.5187,11.5187,11.5187,11.5187,11.5187,11.4798,11.4018,11.3901,11.32,11.1485,11.1485,11.1174,11.0417,11.0384,11.0,10.9218,10.9101,10.8593,10.789,10.7812,10.6914,8.7351,8.7341,8.7448,8.7909,8.8014,8.8196,8.904,8.9274,8.9508,9.0365,9.0833,9.1261,9.1768,9.2158,9.2586,9.3054,9.3443,9.4028,9.5002,9.6171,9.7262,9.8159,9.9279,10.0112,10.0501,10.0891,10.1919,10.409,10.4194,10.4779,10.5987,10.6001,10.6377,10.7313,10.7313,10.7391,10.7795,10.8313,10.861,10.8595,10.9024,10.9281,10.9303,10.9615,10.981,10.981,11.0199,11.0316,11.0316,11.0316,11.0316,11.0316,11.0316,11.0316,11.0199,10.9491,10.9312,10.9312,10.9312,10.9312,10.9312,10.9312,10.9312,10.9296,10.9296,10.932,10.9303,10.9303,10.9498,10.981,10.981,11.0005,11.0394,11.0901,11.1096,11.1213,11.168,11.2498,11.3083,11.3083,11.3784,11.4486,11.4914,11.4992,11.4798,11.4486,11.472,11.4992,11.4992,11.5304,11.5499,11.5499,11.5499,11.5499,11.5499,11.5499,11.5304,11.4992,11.4992,11.4408,11.32,11.32,11.261,11.1188,11.1212,11.0818,11.0,11.0,10.9883,10.9492,10.9014,10.8389,8.7359,8.766,8.8077,8.843,8.8689,8.9079,8.9975,9.017,9.0404,9.13,9.1456,9.1651,9.2274,9.2586,9.2976,9.3599,9.4301,9.5158,9.6405,9.773,9.8899,9.9771,10.1788,10.3219,10.3687,10.3609,10.4012,10.5519,10.5689,10.6001,10.6884,10.6884,10.7196,10.7886,10.8079,10.822,10.822,10.9008,10.9381,10.9381,11.0005,11.0316,11.0316,11.0511,11.0784,11.1018,11.1018,11.1018,11.1018,11.1018,11.1018,11.1018,11.1018,11.1018,11.1018,11.1018,11.0706,11.0316,11.0316,11.0316,11.0316,11.0316,11.0316,11.0316,11.0316,11.0316,11.0316,11.0316,11.0511,11.0706,11.0706,11.0784,11.1213,11.1797,11.2109,11.2498,11.3083,11.3901,11.4603,11.4603,11.5109,11.5616,11.5811,11.6006,11.6317,11.6512,11.6785,11.6707,11.6317,11.659,11.6902,11.6902,11.6902,11.6902,11.6902,11.6707,11.6395,11.62,11.6006,11.5499,11.4603,11.4408,11.3706,11.2421,11.2198,11.1692,11.0894,11.0898,11.0781,11.0586,11.0007,10.9689,8.7546,8.855,8.9632,8.8703,8.9157,8.9975,9.0872,9.1066,9.13,9.2197,9.2352,9.2391,9.2391,9.3093,9.3677,9.3677,9.5782,9.7379,9.7457,9.9678,10.1603,10.2504,10.34,10.4584,10.6299,10.5714,10.5597,10.6494,10.6611,10.6884,10.7821,10.7781,10.7806,10.7806,10.8595,10.9108,10.9108,10.9888,11.0316,11.0316,11.0316,11.0316,11.0316,11.1213,11.1992,11.281,11.281,11.281,11.281,11.281,11.281,11.281,11.281,11.281,11.281,11.281,11.1797,11.0316,11.0316,11.0316,11.0316,11.0316,11.0316,11.0316,11.0316,11.0316,11.0316,11.0316,11.0901,11.1602,11.1602,11.2187,11.281,11.2888,11.3512,11.4096,11.4213,11.4798,11.5499,11.5499,11.5499,11.5811,11.659,11.7408,11.8188,11.9084,11.9902,11.9785,11.811,11.9396,12.0409,12.0409,12.0409,12.0409,12.0409,11.9707,11.8811,11.7993,11.7214,11.6395,11.5499,11.472,11.4213,11.4213,11.3382,11.2592,11.1815,11.179,11.1406,11.0586,11.0593,11.0596,8.895,8.9437,8.991,9.0145,9.0443,9.0911,9.1768,9.1963,9.2041,9.2352,9.2391,9.2586,9.3171,9.3482,9.4262,9.5937,9.6951,9.8329,10.0618,10.171,10.2801,10.4297,10.5221,10.5884,10.6494,10.6287,10.6494,10.7391,10.7405,10.7508,10.7781,10.8415,10.8696,10.8696,10.9514,10.9888,10.9888,11.0706,11.1213,11.1213,11.1719,11.2304,11.2888,11.32,11.3784,11.4603,11.4603,11.4603,11.4603,11.4603,11.4603,11.4603,11.4603,11.4603,11.4603,11.4603,11.4291,11.359,11.2382,11.1992,11.1992,11.1992,11.1992,11.1992,11.1992,11.1992,11.1992,11.1992,11.2693,11.3317,11.3317,11.4018,11.4603,11.4603,11.4798,11.5109,11.5109,11.5694,11.6395,11.6395,11.7291,11.811,11.8383,11.9201,11.9785,12.0097,12.0409,12.0409,11.9785,12.0214,12.0604,12.0604,12.0604,12.0604,12.0604,12.0292,11.998,11.9707,11.8889,11.811,11.7214,11.6395,11.5694,11.5109,11.4293,11.3685,11.3496,11.2908,11.2616,11.2304,11.1686,11.1494,8.9798,9.0273,9.0794,9.1041,9.1339,9.1729,9.2274,9.2391,9.2391,9.2391,9.2664,9.3054,9.3599,9.4418,9.5587,9.7223,9.8563,10.0097,10.2387,10.3205,10.4194,10.5598,10.6196,10.6703,10.6909,10.7015,10.7301,10.7795,10.8093,10.8313,10.8298,10.9086,10.9498,10.9498,11.0316,11.0784,11.0784,11.1602,11.2187,11.2498,11.3395,11.4096,11.472,11.472,11.4992,11.5499,11.5499,11.5499,11.5499,11.5499,11.5499,11.5499,11.5499,11.5499,11.5499,11.5499,11.5499,11.5304,11.4213,11.3784,11.3784,11.3784,11.3784,11.3784,11.3784,11.3784,11.3784,11.3784,11.4213,11.472,11.472,11.5109,11.5499,11.5499,11.5694,11.6006,11.6317,11.7097,11.7798,11.811,11.9006,11.9785,11.9785,12.0487,12.1188,12.15,12.15,12.1383,12.111,12.1305,12.15,12.15,12.15,12.15,12.15,12.1188,12.111,12.111,12.0214,11.9513,11.9006,11.7798,11.7019,11.6395,11.5307,11.4803,11.4816,11.4282,11.4084,11.4095,11.3181,11.2783,9.0156,9.1158,9.2198,9.1378,9.1807,9.2391,9.2391,9.2391,9.243,9.2469,9.3132,9.3716,9.3794,9.582,9.7535,9.7613,10.0501,10.2698,10.2776,10.4297,10.5715,10.6599,0.0,10.6909,0.0,10.7884,10.7884,10.7884,10.8703,10.9117,10.9186,10.9888,11.0394,11.0394,11.1213,11.168,11.1719,11.2615,11.3395,11.4291,11.5109,11.5499,11.5616,11.5616,11.5616,11.5616,11.5694,11.5694,11.5694,11.5694,11.5811,11.5811,11.5811,11.5811,11.5811,11.5811,11.5811,11.5811,11.5811,11.5616,11.5499,11.5499,11.5499,11.5499,11.5499,11.5499,11.5499,11.5499,11.5499,11.5616,11.5616,11.5616,11.5616,11.5694,11.6317,11.7097,11.7993,11.8811,11.9591,12.0409,12.0604,12.0682,12.0682,12.1383,12.2201,12.3098,12.3214,12.2903,12.2084,12.2708,12.3214,12.3214,12.3214,12.3214,12.3214,12.2396,12.2006,12.2006,12.111,12.0682,12.0682,11.9006,11.811,11.811,11.6516,11.5687,11.5697,11.5682,11.5719,11.568,11.4912,11.45,9.1625,9.2068,9.2366,9.2119,9.2235,9.2391,9.2391,9.2391,9.2586,9.321,9.356,9.4067,9.5314,9.66,9.7925,9.9211,10.132,10.3205,10.4492,10.5611,10.6586,10.7391,0.0,10.7791,10.8696,10.8813,10.9008,10.9592,10.9281,10.9398,11.0005,11.0784,11.129,11.129,11.2109,11.2888,11.3512,11.4408,11.4914,11.5187,11.5382,11.5811,11.6512,11.6512,11.6785,11.7408,11.7993,11.8305,11.8383,11.9006,11.9318,11.9318,11.9318,11.9318,11.9318,11.9318,11.9318,11.9318,11.9318,11.7603,11.5499,11.5499,11.5499,11.5499,11.5499,11.5499,11.5499,11.5499,11.6006,11.6512,11.6512,11.6902,11.7486,11.8188,11.8499,11.8889,11.9785,12.0097,12.0292,12.0604,12.111,12.1812,12.2396,12.2708,12.2903,12.3214,12.3214,12.3098,12.2903,12.3098,12.3214,12.3214,12.3214,12.3214,12.3214,12.2981,12.2903,12.2903,12.2084,12.1617,12.1617,12.0487,11.9591,11.9006,11.8005,11.7218,11.6594,11.5897,11.5695,11.568,11.5498,11.5407,9.2263,9.2405,9.2391,9.2391,9.2391,9.2391,9.2391,9.2391,9.2664,9.3521,9.3989,9.4613,9.5976,9.7535,9.8977,9.9951,10.2178,10.4207,10.5194,10.6391,10.7301,0.0,10.8103,0.0,10.9108,10.9381,11.0005,11.0784,11.0511,11.0394,11.0784,11.168,11.2304,11.2693,11.32,11.3826,11.4506,11.5209,11.5509,11.5587,11.6312,11.6973,11.7503,11.7916,11.8383,11.8811,11.9278,11.9472,11.9589,11.9978,12.0321,12.0388,12.0388,12.0507,12.0604,12.0604,12.0604,12.0604,12.0604,11.9318,11.7681,11.7681,11.7681,11.7681,11.7681,11.7681,11.7681,11.7681,11.811,11.8499,11.8499,11.8811,11.9318,11.9785,11.9902,12.0097,12.0993,12.1188,12.1305,12.1695,12.2084,12.2591,12.3098,12.3214,12.3214,12.3214,12.3214,12.3214,12.3214,12.3214,12.3214,12.3214,12.3214,12.3214,12.3214,12.3214,12.3214,12.3214,12.2708,12.2513,12.2513,12.1617,12.0915,12.0487,11.9721,11.8801,11.7998,11.7506,11.7081,11.6818,11.6403,11.6305,9.2391,9.2391,9.2391,9.2391,9.2391,9.2391,9.2391,9.2508,9.282,9.3677,9.4496,9.5353,9.621,9.8392,10.0107,10.0317,10.3102,10.5312,10.5389,10.6898,10.7912,10.8001,10.8579,10.9186,10.9381,11.0083,11.0806,11.1606,11.1801,11.1918,11.1918,11.2619,11.3379,11.4217,11.4295,11.4618,11.5015,11.5598,11.5969,11.5969,11.77,11.847,11.847,11.9422,11.9803,11.9803,11.9919,11.9997,11.999,12.0184,12.0413,12.0624,12.0624,12.0716,12.0915,12.0915,12.0915,12.0915,12.0915,12.0915,12.0915,12.0682,12.0604,12.0604,12.0604,12.0604,12.0604,12.0604,12.0604,12.0604,12.0604,12.0604,12.0604,12.0682,12.0798,12.0993,12.189,12.2084,12.2279,12.3098,12.3214,12.3214,12.3214,12.3214,12.3214,12.3214,12.3214,12.3214,12.3214,12.3214,12.3214,12.3214,12.3214,12.3214,12.3214,12.3214,12.3214,12.3214,12.3214,12.3214,12.3214,12.2513,12.2006,12.189,12.1185,12.04,11.9612,11.9605,11.9313,11.8514,11.7695,11.7304,9.2391,9.2391,9.2391,9.2391,9.2391,9.2391,9.2391,9.2976,9.3716,9.4535,9.5392,9.6249,9.7106,9.8821,10.0317,10.1086,10.3478,10.552,10.6208,10.7182,10.8118,10.8813,10.8991,10.9615,11.1018,11.129,11.1608,11.2191,11.2905,11.3294,11.3294,11.3411,11.3695,11.4281,11.4978,11.5371,11.5532,11.7003,11.7777,11.7777,11.9002,11.9499,11.9499,11.9693,11.9803,11.9803,12.0617,12.1014,12.13,12.2,12.2399,12.2708,12.2708,12.2689,12.2708,12.2708,12.2708,12.2708,12.2708,12.2708,12.2513,12.111,12.0604,12.0604,12.0604,12.0604,12.0604,12.0604,12.0604,12.0604,12.0604,12.0604,12.0798,12.15,12.1695,12.189,12.2786,12.2981,12.2981,12.3214,12.3214,12.3214,12.3214,12.3214,12.3214,12.3214,12.3214,12.3214,12.3214,12.3214,12.3214,12.3214,12.3214,12.3214,12.3214,12.3214,12.3214,12.3214,12.3214,12.3214,12.3214,12.3098,12.2591,12.189,12.1791,12.1302,12.0494,12.0486,12.0112,11.9405,11.9214,11.8789,9.2391,9.2391,9.2391,9.2391,9.2391,9.2391,9.2391,9.3054,9.3911,9.4729,9.5587,9.6483,9.734,9.8938,10.0395,10.1295,10.3595,10.5584,10.6402,10.7299,10.8103,10.8991,10.9498,11.0199,11.1485,11.2211,11.2705,11.301,11.3582,11.3802,11.3375,11.4189,11.4707,11.5002,11.6093,11.6711,11.6711,11.7903,11.8474,11.8474,11.9487,11.9991,11.9991,12.0496,12.0807,12.1032,12.1419,12.1675,12.2005,12.2393,12.2726,12.3013,12.3013,12.3096,12.3214,12.3214,12.3214,12.3214,12.3214,12.3214,12.3098,12.2201,12.2006,12.2006,12.2006,12.2006,12.2006,12.2006,12.2006,12.2006,12.2006,12.2006,12.2084,12.2513,12.2591,12.2708,12.3098,12.3214,12.3214,12.3214,12.3214,12.3214,12.3214,12.3214,12.3214,12.3214,12.3214,12.3214,12.3214,12.3214,12.3214,12.3214,12.3214,12.3214,12.3214,12.3214,12.3214,12.3214,12.3214,12.3214,12.3214,12.3214,12.2981,12.2591,12.2591,12.2198,12.142,12.1396,12.1017,12.02,12.0278,12.011,9.2391,9.2391,9.2391,9.2391,9.2391,9.2469,9.2625,9.3327,9.4184,9.5002,9.5859,9.6678,9.7379,9.8938,10.0395,10.1503,10.3712,10.5623,10.6689,10.7416,10.8205,10.9186,10.9888,11.0706,11.1797,11.2922,11.3578,11.3484,11.3997,11.4125,11.3505,11.5128,11.5901,11.5901,11.7275,11.7991,11.7991,11.872,11.8995,11.8995,12.0026,12.0382,12.0382,12.1207,12.1706,12.1923,12.1923,12.2082,12.2334,12.2334,12.2504,12.27,12.2804,12.289,12.3098,12.3195,12.3214,12.3214,12.3214,12.3214,12.3214,12.3214,12.3214,12.3214,12.3214,12.3214,12.3214,12.3214,12.3214,12.3214,12.3214,12.3214,12.3214,12.3214,12.3214,12.3214,12.3214,12.3214,12.3214,12.3214,12.3214,12.3214,12.3214,12.3214,12.3214,12.3214,12.3214,12.3214,12.3214,12.3214,12.3214,12.3214,12.3214,12.3214,12.3214,12.3214,12.3214,12.3214,12.3214,12.3214,12.3214,12.3214,12.3214,12.3214,12.3194,12.2878,12.2293,12.2307,12.1903,12.1098,12.1098,12.1098,9.2391,9.2391,9.2391,9.2391,9.2391,9.2625,9.3405,9.4223,9.5041,9.5898,9.6756,9.7379,9.7496,9.8938,10.0604,10.2308,10.4102,10.5788,10.7496,10.7791,10.8407,11.0005,11.0316,11.1018,11.2615,11.3311,11.3495,11.3214,11.3972,11.4602,11.4791,11.6167,11.7131,11.7131,11.8063,11.8574,11.8574,11.9516,11.9988,11.9988,12.1015,12.1523,12.1523,12.16,12.1608,12.1608,12.1608,12.1794,12.2005,12.2005,12.2194,12.2504,12.2711,12.2817,12.288,12.3078,12.3214,12.3214,12.3214,12.3214,12.3214,12.3214,12.3214,12.3214,12.3214,12.3214,12.3214,12.3214,12.3214,12.3214,12.3214,12.3214,12.3214,12.3214,12.3214,12.3214,12.3214,12.3214,12.3214,12.3214,12.3214,12.3214,12.3214,12.3214,12.3214,12.3214,12.3214,12.3214,12.3214,12.3214,12.3214,12.3214,12.3214,12.3214,12.3214,12.3214,12.3214,12.3214,12.3214,12.3214,12.3214,12.3214,12.3214,12.3214,12.3173,12.3184,12.319,12.3178,12.2785,12.1996,12.1996,12.1591,9.2391,9.2391,9.2391,9.2391,9.2391,9.2625,9.3482,9.4301,9.5158,9.6015,9.6873,9.7496,9.7496,9.8938,10.0682,10.2386,10.4102,10.5788,10.7613,10.7791,10.8407,11.0083,11.0316,11.1081,11.31,11.3717,11.4503,11.5522,11.5905,11.6379,11.7213,11.7208,11.7489,11.8128,11.8995,11.9516,11.9516,12.0497,12.1015,12.1015,12.1408,12.16,12.16,12.16,12.17,12.1798,12.1798,12.2004,12.2191,12.2191,12.23,12.2401,12.2527,12.2722,12.2791,12.289,12.3096,12.3214,12.3214,12.3214,12.3214,12.3214,12.3214,12.3214,12.3214,12.3214,12.3214,12.3214,12.3214,12.3214,12.3214,12.3214,12.3214,12.3214,12.3214,12.3214,12.3214,12.3214,12.3214,12.3214,12.3214,12.3214,12.3214,12.3214,12.3214,12.3214,12.3214,12.3214,12.3214,12.3214,12.3214,12.3214,12.3214,12.3214,12.3214,12.3214,12.3214,12.3214,12.3214,12.3214,12.3214,12.3214,12.3214,12.3214,12.3194,12.3207,12.3307,12.3282,12.3203,12.2894,12.2894,12.2707,9.2391,9.2391,9.2391,9.2391,9.2391,9.2703,9.3794,9.4496,9.5236,9.6366,9.7067,9.7496,9.7496,9.8938,10.0604,10.2101,10.3893,10.5695,10.7288,10.7908,10.868,11.0083,11.0511,11.1491,11.3399,11.4215,11.5272,11.7068,11.7208,11.7809,11.8995,11.8409,11.8358,11.9072,11.9988,12.0497,12.0497,12.1207,12.16,12.16,12.16,12.16,12.16,12.16,12.17,12.1921,12.1921,12.2004,12.2196,12.2196,12.2196,12.2196,12.2304,12.2401,12.2489,12.2587,12.2791,12.2996,12.2996,12.3078,12.3214,12.3214,12.3214,12.3214,12.3214,12.3214,12.3214,12.3214,12.3214,12.3214,12.3214,12.3214,12.3214,12.3214,12.3214,12.3214,12.3214,12.3214,12.3214,12.3214,12.3214,12.3214,12.3214,12.3214,12.3214,12.3214,12.3214,12.3214,12.3214,12.3214,12.3214,12.3214,12.3214,12.3214,12.3214,12.3214,12.3214,12.3214,12.3214,12.3214,12.3214,12.3214,12.3214,12.3214,12.3194,12.319,12.3307,12.3321,12.3308,12.3401,12.3401,12.3401,9.2405,9.2391,9.2391,9.2391,9.2391,9.2859,9.4496,9.4885,9.5392,9.7145,9.7496,9.7496,9.7496,9.8938,10.0395,10.1295,10.3489,10.55,10.6402,10.801,10.9381,11.0199,11.1096,11.2114,11.3476,11.4393,11.5571,11.7106,11.7208,11.8013,11.9988,12.0103,12.0103,12.0103,12.1092,12.16,12.16,12.16,12.16,12.16,12.16,12.16,12.16,12.16,12.16,12.16,12.16,12.16,12.1562,12.1562,12.1562,12.1608,12.1882,12.1925,12.1805,12.208,12.2395,12.2606,12.2606,12.2905,12.3214,12.3214,12.3214,12.3214,12.3214,12.3214,12.3214,12.3214,12.3214,12.3214,12.3214,12.3214,12.3214,12.3214,12.3214,12.3214,12.3214,12.3214,12.3214,12.3214,12.3214,12.3214,12.3214,12.3214,12.3214,12.3214,12.3214,12.3214,12.3214,12.3214,12.3214,12.3214,12.3214,12.3214,12.3214,12.3214,12.3214,12.3214,12.3214,12.3214,12.3214,12.3214,12.3214,12.3214,12.319,12.3184,12.3307,12.3308,12.3292,12.3401,12.3401,12.3401,9.2405,9.2391,9.2391,9.2391,9.2391,9.2859,9.4535,9.4885,9.5392,9.7145,9.7496,9.7496,9.7496,9.8938,10.0604,10.1984,10.3893,10.5695,10.721,10.8415,10.9381,11.0199,11.2191,11.3506,11.3699,11.5401,11.6902,11.7973,11.8728,11.9636,12.0798,12.0875,12.0899,12.1092,12.1313,12.1496,12.1496,12.1496,12.1496,12.1496,12.1592,12.16,12.16,12.16,12.16,12.16,12.16,12.16,12.16,12.1506,12.1496,12.1496,12.1506,12.1493,12.1716,12.1802,12.2005,12.2184,12.2184,12.2489,12.2817,12.2817,12.3013,12.3214,12.3214,12.3214,12.3214,12.3214,12.3214,12.3214,12.3214,12.3214,12.3214,12.3214,12.3214,12.3214,12.3214,12.3214,12.3214,12.3214,12.3214,12.3214,12.3214,12.3214,12.3214,12.3214,12.3214,12.3214,12.3214,12.3214,12.3214,12.3214,12.3214,12.3214,12.3214,12.3214,12.3214,12.3214,12.3214,12.3214,12.3214,12.3214,12.3214,12.3214,12.3194,12.319,12.3307,12.3321,12.332,12.3401,12.3401,12.3401,9.2419,9.2405,9.2391,9.2391,9.2391,9.2859,9.4535,9.4885,9.5392,9.7145,9.7496,9.7496,9.7496,9.8938,10.0604,10.1984,10.3893,10.5695,10.721,10.861,11.0009,11.1413,11.3194,11.4279,11.4335,11.6042,11.7591,11.8395,11.9431,12.0287,12.1208,12.122,12.1398,12.1467,12.1419,12.137,12.1506,12.1506,12.1506,12.1506,12.1592,12.16,12.16,12.1908,12.1908,12.1515,12.1899,12.1813,0.0,12.1398,12.1271,12.1271,12.122,12.1271,12.139,12.139,12.1507,12.1808,12.1808,12.2002,12.2419,12.2616,12.2905,12.3214,12.3214,12.3214,12.3214,12.3214,12.3214,12.3214,12.3214,12.3214,12.3214,12.3214,12.3214,12.3214,12.3214,12.3214,12.3214,12.3214,12.3214,12.3214,12.3214,12.3214,12.3214,12.3214,12.3214,12.3214,12.3214,12.3214,12.3214,12.3214,12.3214,12.3214,12.3214,12.3214,12.3214,12.3214,12.3214,12.3214,12.3214,12.3214,12.3214,12.3214,12.3214,12.3212,12.3278,12.3307,12.332,12.3401,12.3401,12.3401,0.0,9.2419,9.2391,9.2391,9.2391,9.2859,9.4535,9.4885,0.0,0.0,0.0,0.0,9.7574,0.0,10.0395,10.1412,10.3606,10.55,10.6519,10.8696,11.1121,11.3321,11.401,11.4511,11.4978,11.6376,11.7591,11.8509,11.938,12.0326,12.1131,12.1309,12.1409,12.1409,12.1409,12.1496,12.16,12.16,12.16,12.16,12.1677,12.1677,12.16,12.2524,12.2274,12.1409,12.2215,12.2077,12.1208,12.1208,12.1208,12.1208,12.1194,12.1104,12.0997,12.0997,12.1093,12.1399,12.1399,12.1601,12.2002,12.2489,12.2905,12.3195,12.3214,12.3214,12.3214,12.3214,12.3214,12.3214,12.3214,12.3214,12.3214,12.3214,12.3214,12.3214,12.3214,12.3214,12.3214,12.3214,12.3214,12.3214,12.3214,12.3214,12.3214,12.3214,12.3214,12.3214,12.3214,12.3214,12.3214,12.3214,12.3214,12.3214,12.3214,12.3214,12.3214,12.3214,12.3214,12.3214,12.3214,12.3214,12.3214,12.3214,12.3214,12.3212,12.3207,12.3282,12.3292,12.3401,12.3401,12.3401,9.2393,0.0,9.2391,9.2391,9.2391,9.2859,0.0,9.4885,0.0,0.0,0.0,0.0,0.0,0.0,0.0,10.301,10.4385,10.5695,10.7299,10.8882,11.0692,11.3002,11.3623,11.4286,11.5421,11.7093,11.8495,11.919,12.0178,12.0821,12.1013,12.1104,12.1208,12.1409,12.1309,12.1309,12.1419,12.1419,12.1419,12.1496,12.2207,12.2207,12.1496,12.2303,12.2166,12.1297,12.1489,12.1361,12.1208,12.1104,12.1013,12.1013,12.0905,12.0872,12.0796,12.0796,12.0889,12.0921,12.0921,12.1206,12.1721,12.2388,12.27,12.2778,12.3098,12.3214,12.3214,12.3214,12.3214,12.3214,12.3214,12.3214,12.3214,12.3214,12.3214,12.3214,12.3214,12.3214,12.3214,12.3214,12.3214,12.3214,12.3214,12.3214,12.3214,12.3214,12.3214,12.3214,12.3214,12.3214,12.3214,12.3214,12.3214,12.3214,12.3214,12.3214,12.3214,12.3214,12.3214,12.3214,12.3214,12.3214,12.3214,12.3214,12.3212,12.3207,12.3293,12.3295,12.3292,12.3401,12.3401,12.3401,9.2419,9.2405,9.2391,9.2391,9.2391,9.2859,9.4535,0.0,0.0,0.0,0.0,0.0,0.0,0.0,10.1905,10.3712,10.4985,10.649,10.8595,10.9587,11.098,11.3378,11.3697,11.4487,11.6094,11.7562,11.8801,11.9403,12.0408,12.1036,12.0889,12.0982,12.1089,12.1169,12.1208,12.1297,12.1409,12.1321,12.1501,12.1885,12.2023,12.1974,12.1885,12.2307,12.2026,12.1104,12.1487,12.1396,12.0997,12.0905,12.0889,12.0889,12.0778,12.0816,12.0816,12.0816,12.0816,12.0816,12.0816,12.1118,12.15,12.1928,12.2285,12.2595,12.2905,12.3096,12.3214,12.3214,12.3214,12.3214,12.3214,12.3214,12.3214,12.3214,12.3214,12.3214,12.3214,12.3214,12.3214,12.3214,12.3214,12.3214,12.3214,12.3214,12.3214,12.3214,12.3214,12.3214,12.3214,12.3214,12.3214,12.3214,12.3214,12.3214,12.3214,12.3214,12.3214,12.3214,12.3214,12.3214,12.3214,12.3214,12.3214,12.3214,12.3212,12.3207,12.3307,12.3282,12.3281,12.3401,12.3401,12.3401,9.2391,9.2391,9.2391,9.2391,9.2508,9.3015,9.4535,0.0,0.0,0.0,0.0,0.0,0.0,10.1189,10.3088,10.418,10.5818,10.7714,11.0005,11.0484,11.1598,11.4,11.4235,11.4939,11.7011,11.8097,11.8862,11.9594,12.0506,12.0905,12.0834,12.0905,12.0997,12.1013,12.118,12.1399,12.1513,12.1412,12.1706,12.2205,12.1821,12.1821,12.2191,12.2268,12.1908,12.0982,12.1725,12.1501,12.0816,12.0816,12.0816,12.0816,12.0816,12.0816,12.0816,12.0816,12.0816,12.0816,12.0816,12.0989,12.1313,12.1493,12.2005,12.2509,12.2672,12.2913,12.3214,12.3214,12.3214,12.3214,12.3214,12.3214,12.3214,12.3214,12.3214,12.3214,12.3214,12.3214,12.3214,12.3214,12.3214,12.3214,12.3214,12.3214,12.3214,12.3214,12.3214,12.3214,12.3214,12.3214,12.3214,12.3214,12.3214,12.3214,12.3214,12.3214,12.3214,12.3214,12.3214,12.3214,12.3214,12.3214,12.3214,12.3214,12.3214,12.319,12.3307,12.3307,12.3308,12.3401,12.3401,12.3401,9.2391,9.2391,9.2391,9.2391,9.2937,9.3755,9.469,9.547,9.6483,0.0,0.0,0.0,0.0,10.2397,10.3396,10.5701,10.7581,10.9125,11.0083,11.1105,11.2299,11.4077,11.5009,11.6108,11.7874,11.8868,11.967,12.0511,12.0702,12.0872,12.0982,12.0997,12.1089,12.1194,12.1664,12.2123,12.2085,12.2191,12.1898,12.1399,12.2703,12.2612,12.1204,12.1893,12.167,12.0834,12.1025,12.0893,12.0816,12.0816,12.0816,12.0816,12.0816,12.0816,12.0816,12.0816,12.0816,12.0816,12.0816,12.0796,12.0974,12.1725,12.2004,12.2218,12.289,12.3195,12.3214,12.3214,12.3214,12.3214,12.3214,12.3214,12.3214,12.3214,12.3214,12.3214,12.3214,12.3214,12.3214,12.3214,12.3214,12.3214,12.3214,12.3214,12.3214,12.3214,12.3214,12.3214,12.3214,12.3214,12.3214,12.3214,12.3214,12.3214,12.3214,12.3214,12.3214,12.3214,12.3214,12.3214,12.3214,12.3214,12.3214,12.3214,12.3214,12.319,12.3307,12.3307,12.3308,12.3401,12.3401,12.3401,9.2391,9.2391,9.2508,9.2976,9.3405,9.4028,9.5314,9.6288,0.0,0.0,0.0,0.0,10.2504,10.379,10.5506,10.7611,10.8822,10.9793,11.061,11.1576,11.2619,11.3891,11.5006,11.6384,11.8103,11.8982,11.9899,12.0702,12.0816,12.0778,12.0927,12.0927,12.0889,12.1036,12.1692,12.1921,12.1424,12.2397,12.272,12.2337,12.2222,12.19,12.1501,12.1501,12.1178,12.0816,12.0816,12.0816,12.0816,12.0927,12.0889,12.0889,12.1036,12.0982,12.0889,12.0778,12.0816,12.0816,12.0816,12.0816,12.0927,12.1167,12.1507,12.1769,12.2388,12.2687,12.2913,12.3098,12.3214,12.3214,12.3214,12.3214,12.3214,12.3214,12.3214,12.3214,12.3214,12.3214,12.3214,12.3214,12.3214,12.3214,12.3214,12.3214,12.3214,12.3214,12.3214,12.3214,12.3214,12.3214,12.3214,12.3214,12.3214,12.3214,12.3214,12.3214,12.3214,12.3214,12.3214,12.3214,12.3214,12.3214,12.3214,12.3214,12.3214,12.319,12.3307,12.3307,12.3308,12.3401,12.3401,12.3401,9.2391,9.2391,9.2664,9.3716,9.3989,9.4418,9.6132,0.0,0.0,0.0,0.0,0.0,10.3492,10.5416,10.7405,10.8883,10.9583,11.0325,11.1184,11.2299,11.3185,11.4022,11.5395,11.6804,11.818,11.9211,12.009,12.0702,12.0816,12.0816,12.0816,12.0816,12.0893,12.1084,12.1695,12.181,12.1389,12.2497,12.288,12.2688,12.1619,12.1313,12.1695,12.1084,12.0816,12.0816,12.0834,12.0778,12.0778,12.1036,12.1013,12.0997,12.1118,12.1104,12.0997,12.0927,12.0778,12.0816,12.0816,12.0816,12.0778,12.0905,12.1105,12.15,12.1889,12.2323,12.27,12.3013,12.3098,12.3214,12.3214,12.3214,12.3214,12.3214,12.3214,12.3214,12.3214,12.3214,12.3214,12.3214,12.3214,12.3214,12.3214,12.3214,12.3214,12.3214,12.3214,12.3214,12.3214,12.3214,12.3214,12.3214,12.3214,12.3214,12.3214,12.3214,12.3214,12.3214,12.3214,12.3214,12.3214,12.3214,12.3214,12.3214,12.3214,12.3212,12.3293,12.3307,12.3295,12.3391,12.3401,12.3401,9.2391,9.2391,9.2781,9.4418,9.4807,0.0,9.6989,0.0,0.0,0.0,0.0,0.0,0.0,10.7093,10.7986,10.8891,10.981,11.0693,11.2025,11.3274,11.4394,11.4912,11.6774,11.818,11.8294,11.9785,12.0702,12.0816,12.0816,12.0816,12.0816,12.0816,12.1122,12.1886,12.2001,12.2383,12.3109,12.2383,12.1695,12.1007,12.158,12.158,12.0893,12.0816,12.0816,12.0778,12.0905,12.0889,12.0778,12.1089,12.1104,12.0997,12.1118,12.1104,12.0997,12.0997,12.0889,12.0816,12.0816,12.0816,12.0927,12.1217,12.1399,12.15,12.1889,12.2323,12.2606,12.2595,12.289,12.3214,12.3214,12.3214,12.3214,12.3214,12.3214,12.3214,12.3214,12.3214,12.3214,12.3214,12.3214,12.3214,12.3214,12.3214,12.3214,12.3214,12.3214,12.3214,12.3214,12.3214,12.3214,12.3214,12.3214,12.3214,12.3214,12.3214,12.3214,12.3214,12.3214,12.3214,12.3214,12.3214,12.3214,12.3214,12.3214,12.3194,12.3207,12.3293,12.3282,12.3281,12.3391,12.3401,9.2391,9.282,9.3599,9.5275,0.0,0.0,0.0,0.0,0.0,0.0,0.0,0.0,0.0,10.8015,10.8883,10.9693,11.0589,11.1491,11.2592,11.3717,11.4588,11.5303,11.7064,11.8485,11.8982,12.009,12.0816,12.0816,12.0816,12.0816,12.0816,12.0816,12.0893,12.1198,12.1695,12.1886,12.1695,12.1886,12.158,12.0816,12.1084,12.1084,12.0816,12.0927,12.0889,12.0905,12.1089,12.1104,12.1089,12.122,12.1309,12.1297,12.1309,12.1309,12.122,12.1089,12.0982,12.0889,12.0778,12.0816,12.0834,12.1013,12.0989,12.1093,12.1507,12.1689,12.1928,12.2188,12.2509,12.289,12.3098,12.3214,12.3214,12.3214,12.3214,12.3214,12.3214,12.3214,12.3214,12.3214,12.3214,12.3214,12.3214,12.3214,12.3214,12.3214,12.3214,12.3214,12.3214,12.3214,12.3214,12.3214,12.3214,12.3214,12.3214,12.3214,12.3214,12.3214,12.3214,12.3214,12.3214,12.3214,12.3214,12.3214,12.3214,12.3194,12.3207,12.3293,12.3282,12.3281,12.3391,12.3401,9.2742,9.3249,9.4184,9.6132,0.0,0.0,0.0,0.0,0.0,0.0,10.5611,0.0,10.8079,10.8688,10.9491,11.0511,11.1315,11.2176,11.3291,11.4121,11.4925,11.5994,11.7377,11.86,11.9403,12.032,12.0816,12.0816,12.0816,12.0816,12.0816,12.0816,12.0893,12.1198,12.1504,12.1504,12.1198,12.1504,12.1313,12.0816,12.0796,12.0872,12.0872,12.0997,12.1089,12.1089,12.1208,12.122,12.1208,12.1409,12.1496,12.1496,12.1496,12.1419,12.1409,12.1208,12.1142,12.0997,12.0889,12.0834,12.0816,12.0816,12.0816,12.0872,12.1105,12.1265,12.15,12.1689,12.2184,12.27,12.2913,12.3098,12.3214,12.3214,12.3214,12.3214,12.3214,12.3214,12.3214,12.3214,12.3214,12.3214,12.3214,12.3214,12.3214,12.3214,12.3214,12.3214,12.3214,12.3214,12.3214,12.3214,12.3214,12.3214,12.3214,12.3214,12.3214,12.3214,12.3214,12.3214,12.3214,12.3214,12.3214,12.3214,12.3214,12.3194,12.319,12.3278,12.3321,12.3308,12.3381,12.3401,9.3443,9.3716,9.434,9.6873,9.8197,0.0,0.0,0.0,0.0,10.6092,10.7288,10.8118,10.8898,10.9102,10.9693,11.129,11.2011,11.2796,11.4109,11.4699,11.5532,11.6896,11.7798,11.86,11.9403,12.032,12.0816,12.0816,12.0816,12.0816,12.0816,12.0816,12.1198,12.2001,12.1198,12.1198,12.2001,12.1198,12.0816,12.0816,12.0905,12.0997,12.0997,12.1118,12.1208,12.1208,12.1321,12.1271,12.1169,12.1506,12.16,12.16,12.16,12.1467,12.1409,12.1409,12.122,12.0997,12.0997,12.0889,12.0816,12.0816,12.0816,12.0816,12.0816,12.1079,12.1408,12.1408,12.2005,12.2606,12.2606,12.289,12.3214,12.3214,12.3214,12.3214,12.3214,12.3214,12.3214,12.3214,12.3214,12.3214,12.3214,12.3214,12.3214,12.3214,12.3214,12.3214,12.3214,12.3214,12.3214,12.3214,12.3214,12.3214,12.3214,12.3214,12.3214,12.3214,12.3214,12.3214,12.3214,12.3214,12.3214,12.3214,12.3214,12.3214,12.3214,12.3301,12.3307,12.3307,12.3409,12.3401,9.3443,9.4574,0.0,9.7925,9.9981,0.0,0.0,10.4492,0.0,0.0,10.8079,10.8805,10.9102,11.0099,11.1018,11.1485,11.2517,11.3523,11.4186,11.4699,11.5724,11.7699,11.8103,11.8906,12.032,12.0587,12.0816,12.0816,12.0816,12.0816,12.0816,12.0816,12.0893,12.1122,12.0893,12.0893,12.1198,12.1004,12.0905,12.0905,12.1156,12.1208,12.0997,12.122,12.1321,12.1321,12.1506,12.1467,12.1506,12.1592,12.16,12.16,12.16,12.16,12.1515,12.1419,12.1282,12.1297,12.1089,12.1036,12.0889,12.0834,12.0816,12.0816,12.0816,12.0889,12.1013,12.1013,12.1399,12.1771,12.2113,12.2519,12.2827,12.3098,12.3214,12.3214,12.3214,12.3214,12.3214,12.3214,12.3214,12.3214,12.3214,12.3214,12.3214,12.3214,12.3214,12.3214,12.3214,12.3214,12.3214,12.3214,12.3214,12.3214,12.3214,12.3214,12.3214,12.3214,12.3214,12.3214,12.3214,12.3214,12.3214,12.3214,12.3214,12.3214,12.3214,12.3301,12.3307,12.3307,12.3409,12.3401,9.395,9.5431,0.0,9.9318,10.1306,10.3191,10.5296,0.0,0.0,0.0,10.8712,10.9296,11.0005,11.0901,11.1819,11.2308,11.3204,11.401,11.451,11.4984,11.602,11.812,11.8294,11.8982,12.0587,12.0816,12.0816,12.0816,12.0816,12.0816,12.0816,12.0816,12.0816,12.0816,12.0816,12.0816,12.0816,12.0905,12.0997,12.0997,12.1259,12.1271,12.1194,12.1409,12.1506,12.1506,12.1592,12.16,12.16,12.16,12.16,12.16,12.16,12.16,12.16,12.1506,12.137,12.1309,12.1118,12.0997,12.0889,12.0778,12.0816,12.0816,12.0816,12.0816,12.0816,12.0816,12.1131,12.1507,12.1889,12.2285,12.2726,12.3078,12.3214,12.3214,12.3214,12.3214,12.3214,12.3214,12.3214,12.3214,12.3214,12.3214,12.3214,12.3214,12.3214,12.3214,12.3214,12.3214,12.3214,12.3214,12.3214,12.3214,12.3214,12.3214,12.3214,12.3214,12.3214,12.3214,12.3214,12.3214,12.3214,12.3214,12.3214,12.3214,12.3214,12.3301,12.3307,12.3307,12.3409,12.3401,9.4768,9.6288,9.8251,10.0813,10.2202,0.0,10.6013,10.7293,10.8103,10.8891,10.9091,10.9715,11.129,11.168,11.2075,11.3385,11.4003,11.4509,11.4912,11.5522,11.6384,11.8103,11.8409,11.8982,12.0587,12.0816,12.0816,12.0816,12.0816,12.0816,12.0816,12.0816,12.0816,12.0778,12.0778,12.0778,12.0834,12.0982,12.1013,12.1013,12.1309,12.137,12.137,12.1515,12.16,12.16,12.16,12.16,12.16,12.16,12.16,12.16,12.16,12.16,12.16,12.16,12.1419,12.122,12.1208,12.1013,12.0834,12.0778,12.0816,12.0816,12.0816,12.0816,12.0816,12.0816,12.1118,12.1416,12.1811,12.2218,12.2606,12.3018,12.3117,12.3195,12.3214,12.3195,12.3195,12.3214,12.3214,12.3214,12.3214,12.3214,12.3214,12.3214,12.3214,12.3214,12.3214,12.3214,12.3214,12.3214,12.3214,12.3214,12.3214,12.3214,12.3214,12.3214,12.3214,12.3214,12.3214,12.3214,12.3214,12.3214,12.3214,12.3214,12.3214,12.3301,12.3307,12.3307,12.3409,12.3401,9.5509,9.7184,9.8977,10.0901,10.3513,10.588,10.6896,10.7986,10.8891,10.9108,10.9427,11.0005,11.139,11.2187,11.2776,11.3502,11.4003,11.4509,11.4912,11.597,11.711,11.818,11.8906,11.9708,12.0702,12.0816,12.0816,12.0816,12.0816,12.0816,12.0816,12.0816,12.0796,12.0982,12.091,12.0889,12.1104,12.1118,12.1208,12.1271,12.1506,12.1592,12.1592,12.16,12.16,12.16,12.16,12.16,12.16,12.16,12.16,12.16,12.16,12.16,12.16,12.16,12.1592,12.1506,12.1297,12.1194,12.1089,12.0872,12.0816,12.0816,12.0816,12.0816,12.0816,12.0816,12.0927,12.0989,12.1416,12.1596,12.1811,12.2616,12.2687,12.2803,12.3098,12.2991,12.2803,12.3098,12.3214,12.3214,12.3214,12.3214,12.3214,12.3214,12.3214,12.3214,12.3214,12.3214,12.3214,12.3214,12.3214,12.3214,12.3214,12.3214,12.3214,12.3214,12.3214,12.3214,12.3214,12.3214,12.3214,12.3214,12.3214,12.3214,12.3214,12.3301,12.3307,12.3307,12.3409,12.3401,9.5976,9.7769,9.999,10.2601,10.5101,10.7013,10.7403,10.8077,10.8793,10.9502,11.0206,11.1023,11.2013,11.2888,11.3613,11.3892,11.4486,11.5013,11.5284,11.6276,11.7301,11.818,11.8982,11.9785,12.0702,12.0816,12.0816,12.0816,12.0816,12.0778,12.0927,12.0834,12.0927,12.1104,12.0982,12.0997,12.1208,12.1297,12.1321,12.1409,12.1515,12.16,12.16,12.16,12.16,12.16,12.16,12.16,12.16,12.16,12.16,12.16,12.16,12.16,12.16,12.16,12.1592,12.1506,12.1297,12.1194,12.1089,12.0872,12.0816,12.0816,12.0816,12.0816,12.0816,12.0816,12.0816,12.0889,12.1304,12.1408,12.159,12.2222,12.2285,12.238,12.2803,12.2606,12.2388,12.2606,12.2817,12.289,12.289,12.3116,12.3214,12.3214,12.3214,12.3214,12.3214,12.3214,12.3214,12.3214,12.3214,12.3214,12.3214,12.3214,12.3214,12.3214,12.3214,12.3214,12.3214,12.3214,12.3214,12.3214,12.3214,12.3214,12.3214,12.3301,12.3307,12.3307,12.3409,12.3401,9.6366,9.8431,10.1315,10.4393,10.6291,10.7481,10.781,10.8179,10.8772,11.0206,11.1003,11.1801,11.2693,11.3593,11.4112,11.4293,11.5008,11.5509,11.5702,11.6613,11.7492,11.818,11.9097,12.0014,12.0702,12.0816,12.0816,12.0816,12.0778,12.0927,12.0997,12.0889,12.1036,12.1169,12.1104,12.1104,12.1297,12.1398,12.137,12.1419,12.1515,12.16,12.16,12.16,12.16,12.16,12.16,12.16,12.16,12.16,12.16,12.16,12.16,12.16,12.16,12.16,12.1515,12.137,12.1309,12.1118,12.0997,12.0927,12.0778,12.0816,12.0816,12.0816,12.0816,12.0816,12.0816,12.0889,12.1206,12.1304,12.1408,12.181,12.1811,12.1889,12.2419,12.2222,12.1889,12.2004,12.2317,12.2606,12.2606,12.2913,12.3214,12.3214,12.3214,12.3214,12.3214,12.3214,12.3214,12.3214,12.3214,12.3214,12.3214,12.3214,12.3214,12.3214,12.3214,12.3214,12.3214,12.3214,12.3214,12.3214,12.3214,12.3214,12.3214,12.3301,12.3307,12.3307,12.3409,12.3401,9.7106,9.9756,10.2718,10.4705,10.6481,10.7888,10.8288,10.921,11.0206,11.0893,11.1103,11.1499,11.2697,11.3317,11.3811,11.4186,11.4703,11.524,11.5611,11.711,11.818,11.8294,11.9708,12.0702,12.0816,12.0816,12.0816,12.0816,12.0889,12.0997,12.0997,12.1104,12.1208,12.1398,12.122,12.1309,12.1515,12.1419,12.1496,12.16,12.16,12.16,12.16,12.16,12.16,12.16,12.16,12.16,12.16,12.16,12.16,12.16,12.16,12.16,12.16,12.16,12.16,12.1592,12.137,12.1309,12.1194,12.0997,12.0889,12.0816,12.0816,12.0816,12.0816,12.0816,12.0816,12.0778,12.0927,12.0889,12.1013,12.1408,12.1206,12.1194,12.1889,12.1808,12.1596,12.1889,12.2317,12.2606,12.2606,12.2913,12.3214,12.3214,12.3214,12.3214,12.3214,12.3214,12.3214,12.3214,12.3214,12.3214,12.3214,12.3214,12.3214,12.3214,12.3214,12.3214,12.3214,12.3214,12.3214,12.3214,12.3214,12.3214,12.3214,12.3301,12.3307,12.3307,12.3409,12.3401,9.8587,10.0784,10.3099,10.4783,10.6196,10.7503,10.8608,10.9299,11.0121,11.1216,11.1781,11.2404,11.31,11.3902,11.4397,11.4704,11.5307,11.5686,11.5673,11.7186,11.8294,11.8294,11.9785,12.0816,12.0816,12.0816,12.0834,12.0889,12.0982,12.1089,12.1169,12.1208,12.1309,12.1506,12.1409,12.1409,12.16,12.1515,12.1515,12.16,12.16,12.16,12.16,12.16,12.16,12.16,12.16,12.16,12.16,12.16,12.16,12.16,12.16,12.16,12.16,12.16,12.16,12.16,12.1419,12.1309,12.1194,12.1013,12.0889,12.0816,12.0816,12.0816,12.0816,12.0816,12.0816,12.0816,12.0816,12.0816,12.0796,12.0989,12.0867,12.0889,12.1293,12.1194,12.1194,12.1596,12.181,12.2116,12.2509,12.2713,12.2913,12.3195,12.3214,12.3214,12.3214,12.3214,12.3214,12.3214,12.3214,12.3214,12.3214,12.3214,12.3214,12.3214,12.3214,12.3214,12.3214,12.3214,12.3214,12.3214,12.3214,12.3214,12.3214,12.3207,12.32,12.32,12.3308,12.3303,9.9678,10.1501,10.34,10.4799,10.6111,10.7274,10.8804,10.9291,10.9819,11.1296,11.219,11.3027,11.3706,11.4271,11.4784,11.5037,11.5579,11.608,11.5979,11.7301,11.8409,11.86,11.9899,12.0816,12.0816,12.0816,12.091,12.0997,12.1013,12.1194,12.1409,12.1321,12.1409,12.16,12.1506,12.1506,12.16,12.16,12.16,12.16,12.16,12.16,12.16,12.16,12.16,12.16,12.16,12.16,12.16,12.16,12.16,12.16,12.16,12.16,12.16,12.16,12.16,12.16,12.1506,12.1321,12.1208,12.1104,12.0905,12.0816,12.0816,12.0816,12.0816,12.0816,12.0816,12.0816,12.0816,12.0816,12.0816,12.0816,12.0816,12.0816,12.0816,12.0816,12.0889,12.1194,12.1275,12.1596,12.2184,12.2489,12.2726,12.2996,12.3098,12.3214,12.3214,12.3214,12.3214,12.3214,12.3214,12.3214,12.3214,12.3214,12.3214,12.3214,12.3214,12.3214,12.3214,12.3214,12.3214,12.3214,12.3214,12.3214,12.3214,12.319,12.3207,12.3207,12.3295,12.332,9.9834,10.2007,10.4102,10.4994,10.6177,10.7593,10.8801,10.9426,11.0092,11.1294,11.1994,11.2775,11.3988,11.4306,11.4508,11.4874,11.5407,11.6017,11.6804,11.7683,11.86,11.9288,12.0205,12.0816,12.0816,12.0816,12.091,12.0997,12.1104,12.1297,12.1409,12.1467,12.16,12.16,12.16,12.16,12.16,12.16,12.16,12.16,12.16,12.16,12.16,12.16,12.16,12.16,12.16,12.16,12.16,12.16,12.16,12.16,12.16,12.16,12.16,12.16,12.16,12.16,12.16,12.137,12.1208,12.1208,12.0997,12.0816,12.0816,12.0816,12.0816,12.0816,12.0816,12.0816,12.0816,12.0816,12.0816,12.0816,12.0816,12.0816,12.0816,12.0816,12.0778,12.0834,12.1105,12.137,12.1539,12.2113,12.2606,12.2595,12.3013,12.3214,12.3214,12.3214,12.3214,12.3214,12.3214,12.3214,12.3214,12.3214,12.3214,12.3214,12.3214,12.3214,12.3214,12.3214,12.3214,12.3214,12.3214,12.3214,12.3214,12.319,12.3207,12.3207,12.3295,12.332,10.0497,10.1993,10.3396,10.4783,10.5807,10.6888,10.8684,10.9503,11.0115,11.1411,11.1972,11.2813,11.407,11.4125,11.4301,11.5292,11.5573,11.6002,11.6919,11.7798,11.86,11.9403,12.032,12.0816,12.0816,12.0927,12.1036,12.1104,12.1297,12.1409,12.1515,12.16,12.16,12.16,12.16,12.16,12.16,12.16,12.16,12.16,12.16,12.16,12.16,12.16,12.16,12.16,12.16,12.16,12.16,12.16,12.16,12.16,12.16,12.16,12.16,12.16,12.16,12.16,12.16,12.1506,12.1271,12.1169,12.1089,12.0889,12.0778,12.0816,12.0816,12.0816,12.0816,12.0816,12.0816,12.0816,12.0816,12.0816,12.0816,12.0816,12.0816,12.0816,12.0816,12.0816,12.0905,12.1093,12.1399,12.1601,12.1889,12.2222,12.2616,12.2803,12.2803,12.3018,12.3214,12.3214,12.3214,12.3214,12.3214,12.3214,12.3214,12.3214,12.3214,12.3214,12.3214,12.3214,12.3214,12.3214,12.3214,12.3214,12.3214,12.3194,12.3212,12.3212,12.3184,12.3215,10.1081,10.2187,10.3396,10.4783,10.5573,10.6499,10.8295,10.9309,10.999,11.0808,11.1584,11.26,11.3891,11.3796,11.4114,11.5482,11.5696,11.6117,11.7301,11.7912,11.8677,11.9785,12.0396,12.0816,12.0816,12.0889,12.1089,12.1208,12.1271,12.1496,12.16,12.16,12.16,12.16,12.16,12.16,12.16,12.16,12.16,12.16,12.16,12.16,12.16,12.16,12.16,12.16,12.16,12.16,12.16,12.16,12.16,12.16,12.16,12.16,12.16,12.16,12.16,12.16,12.16,12.1467,12.1409,12.1309,12.1118,12.0997,12.0889,12.0834,12.0816,12.0816,12.0816,12.0816,12.0816,12.0816,12.0816,12.0816,12.0816,12.0816,12.0816,12.0816,12.0816,12.0816,12.0816,12.0889,12.1182,12.1313,12.1462,12.1808,12.211,12.2411,12.2606,12.2803,12.3096,12.3214,12.3214,12.3214,12.3214,12.3214,12.3214,12.3214,12.3214,12.3214,12.3214,12.3214,12.3214,12.3214,12.3214,12.3214,12.3214,12.3214,12.3214,12.3214,12.319,12.3184,0.0,0.0,0.0,10.4994,10.5612,10.631,10.7516,10.8803,10.9786,10.9799,11.0895,11.2191,11.3488,11.349,11.3709,11.5391,11.5696,11.6308,11.7989,11.8294,11.8906,12.0587,12.0816,12.0816,12.0816,12.0889,12.1089,12.1208,12.1271,12.1496,12.16,12.16,12.16,12.16,12.16,12.16,12.16,12.16,12.16,12.16,12.16,12.16,12.16,12.16,12.16,12.16,12.16,12.16,12.16,12.16,12.16,12.16,12.16,12.16,12.16,12.16,12.16,12.16,12.16,12.1467,12.1409,12.1409,12.1169,12.0997,12.0997,12.0889,12.0816,12.0816,12.0816,12.0816,12.0816,12.0816,12.0816,12.0816,12.0816,12.0816,12.0816,12.0816,12.0816,12.0816,12.0816,12.0816,12.0816,12.1105,12.1408,12.1408,12.1728,12.2075,12.2509,12.2577,12.2713,12.3098,12.3214,12.3214,12.3214,12.3214,12.3214,12.3214,12.3214,12.3214,12.3214,12.3214,12.3214,12.3214,12.3214,12.3214,12.3214,12.3214,12.3214,12.3214,12.319,12.3215,10.2094,0.0,0.0,0.0,0.0,0.0,10.7883,10.8591,10.9307,11.0872,11.08,11.1186,11.3407,11.349,11.3595,11.4703,11.5314,11.6117,11.7186,11.7912,11.8677,11.9708,12.0396,12.0816,12.0816,12.0997,12.1194,12.1208,12.137,12.1592,12.16,12.16,12.16,12.16,12.16,12.16,12.16,12.16,12.16,12.16,12.16,12.16,12.16,12.16,12.16,12.16,12.16,12.16,12.16,12.16,12.16,12.16,12.16,12.16,12.16,12.16,12.16,12.16,12.16,12.16,12.1467,12.1271,12.1208,12.1104,12.0889,12.0778,12.0816,12.0816,12.0816,12.0816,12.0816,12.0816,12.0816,12.0816,12.0816,12.0816,12.0816,12.0816,12.0816,12.0816,12.0816,12.0816,12.0816,12.0889,12.0997,12.0997,12.1313,12.1601,12.1686,12.2004,12.2317,12.2687,12.2791,12.2929,12.3195,12.3214,12.3214,12.3214,12.3214,12.3214,12.3214,12.3214,12.3214,12.3214,12.3214,12.3214,12.3214,12.3214,12.3214,12.3214,12.3194,12.3207,0.0,0.0,0.0,10.4799,0.0,0.0,10.7695,10.8405,10.8815,11.0001,11.0382,11.0902,11.2291,11.2882,11.3518,11.4397,11.4894,11.5582,11.6804,11.7798,11.86,11.9403,12.032,12.0816,12.0816,12.0997,12.1118,12.1208,12.1409,12.1515,12.16,12.1908,12.1985,12.16,12.16,12.16,12.16,12.16,12.16,12.16,12.16,12.16,12.16,12.16,12.16,12.16,12.16,12.16,12.16,12.16,12.16,12.16,12.16,12.16,12.16,12.16,12.16,12.16,12.16,12.16,12.1592,12.1398,12.122,12.1194,12.0905,12.0796,12.0816,12.0816,12.0816,12.0816,12.0816,12.0816,12.0816,12.0816,12.0816,12.0816,12.0816,12.0816,12.0816,12.0816,12.0816,12.0816,12.0816,12.0816,12.0816,12.0816,12.0974,12.1206,12.1361,12.1601,12.1928,12.2285,12.2278,12.2509,12.289,12.2874,12.2996,12.3214,12.3214,12.3214,12.3214,12.3214,12.3214,12.3214,12.3214,12.3214,12.3214,12.3214,12.3214,12.3214,12.3214,12.3212,0.0,0.0,0.0,0.0,10.5282,0.0,10.7488,10.8102,10.8284,10.8194,10.9572,11.0891,11.0793,11.199,11.3213,11.4206,11.4397,11.4894,11.6613,11.7607,11.8409,11.9097,12.009,12.0702,12.0702,12.0889,12.1089,12.1208,12.1321,12.1506,12.16,12.2293,12.2408,12.16,12.16,12.16,12.16,12.16,12.16,12.16,12.16,12.16,12.16,12.16,12.16,12.16,12.16,12.16,12.16,12.16,12.16,12.16,12.16,12.16,12.16,12.16,12.16,12.16,12.16,12.16,12.16,12.1419,12.1309,12.1194,12.0959,12.0889,12.0816,12.0816,12.0816,12.0816,12.0816,12.0816,12.0816,12.0816,12.0816,12.0816,12.0816,12.0816,12.0816,12.0816,12.0816,12.0816,12.0816,12.0816,12.0816,12.0816,12.0816,12.0867,12.1304,12.1275,12.15,12.1889,12.1889,12.2113,12.248,12.2509,12.27,12.3018,12.3116,12.3116,12.3098,12.3098,12.3195,12.3214,12.3214,12.3214,12.3214,12.3214,12.3214,12.3214,12.3214,12.3212,0.0,0.0,0.0,0.0,10.571,0.0,10.8021,10.7892,10.788,10.9302,10.8909,10.9008,11.129,11.1417,11.1684,11.3213,11.3518,11.4015,11.5696,11.669,11.7301,11.7492,11.8791,11.9785,11.9785,12.0468,12.1089,12.1208,12.137,12.16,12.16,12.1793,12.1793,12.16,12.16,12.16,12.16,12.16,12.16,12.16,12.16,12.16,12.16,12.16,12.16,12.16,12.16,12.16,12.16,12.16,12.16,12.16,12.16,12.16,12.16,12.16,12.16,12.16,12.16,12.16,12.1592,12.1271,12.1169,12.1194,12.0889,12.0778,12.0816,12.0816,12.0816,12.0816,12.0816,12.0816,12.0816,12.0816,12.0816,12.0816,12.0816,12.0816,12.0816,12.0816,12.0816,12.0816,12.0816,12.0816,12.0816,12.0816,12.0816,12.0834,12.0905,12.0905,12.1079,12.15,12.1507,12.1725,12.2077,12.2075,12.2188,12.2179,12.2179,12.2388,12.2687,12.2687,12.2905,12.3214,12.3214,12.3214,12.3214,12.3214,12.3214,12.3214,12.3214,12.3212,0.0,0.0,0.0,10.5701,10.6193,0.0,0.0,10.7727,10.748,10.8794,10.849,10.8465,10.9913,11.0806,11.1493,11.1914,11.2716,11.3518,11.4321,11.5505,11.6499,11.6919,11.8103,11.9097,11.9479,12.0025,12.0606,12.1309,12.1929,12.2216,12.2216,12.2216,12.2216,12.2216,12.1793,12.16,12.16,12.16,12.16,12.16,12.16,12.16,12.16,12.16,12.16,12.16,12.16,12.16,12.16,12.16,12.16,12.16,12.16,12.16,12.16,12.16,12.16,12.16,12.16,12.16,12.1592,12.1309,12.1208,12.1118,12.0927,12.0816,12.0816,12.0816,12.0816,12.0816,12.0816,12.0816,12.0816,12.0816,12.0816,12.0816,12.0816,12.0816,12.0816,12.0816,12.0816,12.0816,12.0816,12.0816,12.0816,12.0816,12.0816,12.0816,12.0816,12.0816,12.0889,12.1079,12.1093,12.1293,12.1682,12.1686,12.1769,12.2004,12.2004,12.2184,12.2606,12.2606,12.2817,12.3214,12.3214,12.3214,12.3214,12.3214,12.3214,12.3214,12.3214,12.3194,10.5122,10.5312,10.5585,10.6416,10.6607,10.691,0.0,0.0,0.0,10.7911,10.8106,10.8273,10.8421,10.9812,11.0882,11.05,11.1684,11.2716,11.2716,11.4206,11.5582,11.6514,11.7377,11.8294,11.8999,11.949,12.0198,12.1332,12.2159,12.2601,12.2601,12.2601,12.2601,12.2601,12.1985,12.16,12.16,12.16,12.16,12.16,12.16,12.16,12.16,12.16,12.16,12.16,12.16,12.16,12.16,12.16,12.16,12.16,12.16,12.16,12.16,12.16,12.16,12.16,12.16,12.16,12.1592,12.1271,12.1208,12.1104,12.0872,12.0816,12.0816,12.0816,12.0816,12.0816,12.0816,12.0816,12.0816,12.0816,12.0816,12.0816,12.0816,12.0816,12.0816,12.0816,12.0816,12.0816,12.0816,12.0816,12.0816,12.0816,12.0816,12.0816,12.0816,12.0816,12.0816,12.0816,12.0816,12.0867,12.1293,12.1304,12.1416,12.1689,12.1808,12.1927,12.2395,12.2509,12.2791,12.3116,12.3195,12.3214,12.3214,12.3214,12.3214,12.3214,12.3214,12.3214,10.4711,10.5294,10.5981,10.6403,10.6877,10.7303,10.7689,0.0,10.7417,10.7911,0.0,10.7125,10.8919,0.0,0.0,10.9315,11.0385,11.0997,11.0997,11.241,11.3915,11.4783,11.6285,11.7202,11.7385,11.892,12.03,12.1293,12.163,12.1677,12.1677,12.1677,12.1677,12.1677,12.1677,12.16,12.16,12.16,12.16,12.16,12.16,12.16,12.16,12.16,12.16,12.16,12.16,12.16,12.16,12.16,12.16,12.16,12.16,12.16,12.16,12.16,12.16,12.16,12.16,12.16,12.16,12.1419,12.1169,12.0997,12.0796,12.0816,12.0816,12.0816,12.0816,12.0816,12.0816,12.0816,12.0816,12.0816,12.0816,12.0816,12.0816,12.0816,12.0816,12.0816,12.0816,12.0816,12.0816,12.0816,12.0816,12.0816,12.0816,12.0816,12.0816,12.0816,12.0816,12.0816,12.0816,12.0778,12.0927,12.0927,12.0889,12.0867,12.0921,12.1093,12.1507,12.2218,12.2595,12.27,12.2996,12.3214,12.3214,12.3214,12.3214,12.3214,12.3214,12.3214,10.5797,10.6223,10.6405,10.6589,10.6809,10.7076,10.7779,10.7802,10.7904,10.8993,0.0,0.0,0.0,0.0,0.0,0.0,10.9086,11.0118,11.0614,11.1684,11.2792,11.3685,11.4885,11.6084,11.7196,11.8895,12.0108,12.0602,12.1207,12.1793,12.2293,12.1908,12.1793,12.2293,12.1908,12.16,12.16,12.16,12.16,12.16,12.16,12.16,12.16,12.16,12.16,12.16,12.16,12.16,12.16,12.16,12.16,12.16,12.16,12.16,12.16,12.16,12.16,12.16,12.16,12.16,12.16,12.1419,12.1169,12.0997,12.0905,12.0872,12.0816,12.0816,12.0816,12.0816,12.0816,12.0816,12.0816,12.0816,12.0816,12.0816,12.0816,12.0816,12.0816,12.0816,12.0816,12.0816,12.0816,12.0816,12.0816,12.0816,12.0816,12.0816,12.0816,12.0816,12.0816,12.0816,12.0816,12.0816,12.0816,12.0816,12.0816,12.0816,12.1027,12.1167,12.1408,12.1927,12.229,12.229,12.238,12.2509,12.2509,12.2713,12.2905,12.2905,12.3078,12.3214,10.6589,10.6585,10.6624,10.6711,10.6691,10.6783,10.7503,10.759,10.7911,10.9101,10.8086,0.0,0.0,0.0,10.729,10.6679,0.0,10.9201,10.9583,11.0614,11.1799,11.3112,11.4056,11.5395,11.6924,11.8382,11.9506,12.0113,12.0784,12.16,12.2485,12.2216,12.21,12.2485,12.2216,12.1793,12.16,12.16,12.16,12.16,12.16,12.16,12.16,12.16,12.16,12.16,12.16,12.16,12.16,12.16,12.16,12.16,12.16,12.16,12.16,12.16,12.16,12.16,12.16,12.16,12.16,12.1419,12.122,12.1013,12.0997,12.0889,12.0816,12.0816,12.0816,12.0816,12.0816,12.0816,12.0816,12.0816,12.0816,12.0816,12.0816,12.0816,12.0816,12.0816,12.0816,12.0816,12.0816,12.0816,12.0816,12.0816,12.0816,12.0816,12.0816,12.0816,12.0816,12.0816,12.0816,12.0816,12.0816,12.0816,12.0816,12.0816,12.1079,12.1217,12.1217,12.1601,12.1811,12.1811,12.1927,12.2004,12.2004,12.2285,12.248,12.2606,12.2996,12.3214,10.6215,10.6215,10.6295,10.6585,10.6485,10.6295,10.6697,10.6485,10.6482,10.7405,10.6598,10.5991,10.6794,10.6297,0.0,0.0,10.7099,0.0,0.0,10.8398,11.0513,11.3062,11.4284,11.5313,11.6176,11.7107,11.8384,12.0216,12.0292,12.0716,12.16,12.2408,12.2485,12.1677,12.2408,12.2485,12.16,12.16,12.16,12.16,12.16,12.16,12.16,12.16,12.16,12.16,12.16,12.16,12.16,12.16,12.16,12.16,12.16,12.16,12.16,12.16,12.16,12.16,12.16,12.16,12.16,12.1419,12.1309,12.1194,12.1013,12.0889,12.0816,12.0816,12.0816,12.0816,12.0816,12.0816,12.0816,12.0816,12.0816,12.0816,12.0816,12.0816,12.0816,12.0816,12.0816,12.0816,12.0816,12.0816,12.0816,12.0816,12.0816,12.0816,12.0816,12.0816,12.0816,12.0816,12.0816,12.0816,12.0816,12.0816,12.0816,12.0816,12.0778,12.0778,12.0778,12.1206,12.1416,12.1416,12.181,12.2004,12.2004,12.2002,12.2218,12.2606,12.2996,12.3214,10.7494,10.7494,10.758,10.7724,10.7595,10.7695,10.83,10.8401,10.8375,10.8682,10.7962,10.729,10.6985,10.622,0.0,0.0,0.0,10.6794,0.0,10.8842,11.0318,11.2369,11.3403,11.4295,11.5417,11.63,11.7222,11.8288,11.9584,12.04,12.0622,12.1476,12.2216,12.2485,12.2216,12.2216,12.2485,12.1908,12.16,12.16,12.16,12.16,12.16,12.16,12.16,12.16,12.16,12.16,12.16,12.16,12.16,12.16,12.16,12.16,12.16,12.16,12.16,12.16,12.16,12.16,12.16,12.1515,12.1409,12.1208,12.1118,12.0982,12.0816,12.0816,12.0816,12.0816,12.0816,12.0816,12.0816,12.0816,12.0816,12.0816,12.0816,12.0816,12.0816,12.0816,12.0816,12.0816,12.0816,12.0816,12.0816,12.0816,12.0816,12.0816,12.0816,12.0816,12.0816,12.0816,12.0816,12.0816,12.0816,12.0816,12.0816,12.0816,12.0816,12.0816,12.0816,12.0867,12.0974,12.0974,12.1105,12.1206,12.1206,12.15,12.1682,12.181,12.2799,12.3205,10.8207,10.8207,10.8207,10.8207,10.8207,10.8284,10.8895,10.901,10.901,10.901,10.8589,10.8016,10.7481,10.6908,0.0,0.0,0.0,10.6412,0.0,10.8383,10.9486,11.0394,11.1766,11.3203,11.458,11.5694,11.6616,11.6983,11.8768,11.9891,12.0199,12.1006,12.1784,12.2408,12.2216,12.2216,12.2408,12.1908,12.16,12.16,12.16,12.16,12.16,12.16,12.16,12.16,12.16,12.16,12.16,12.16,12.16,12.16,12.16,12.16,12.16,12.16,12.16,12.16,12.16,12.16,12.16,12.16,12.1496,12.1297,12.1208,12.1089,12.108,12.1886,12.1713,12.1407,12.2001,12.1695,12.1198,12.0893,12.0816,12.0816,12.0816,12.0816,12.0816,12.0816,12.0816,12.0816,12.0816,12.0816,12.0816,12.0816,12.0816,12.0816,12.0816,12.0816,12.0816,12.0816,12.0816,12.0816,12.0816,12.0816,12.0816,12.0816,12.0816,12.0816,12.0816,12.0816,12.1122,12.1695,12.1122,12.1122,12.1695,12.1386,12.1293,12.1408,12.2492,12.3117]},{"header":{"parameterUnit":"m.s-1","parameterCategory":1,"la1":30.6,"la2":29.2853,"lo1":-89.7004,"lo2":-87.6739,"dy":0.0162,"dx":0.0183,"nx":112,"ny":82,"refTime":"2023-10-27T12:00:00:Z","depth":0,"parameterNumber":3,"parameterNumberName":"V-component_of_WINDS"},"data":[0.0,0.0,0.0,0.0,0.0,0.0,0.0,0.0,0.0,0.0,0.0,0.0,0.0,0.0,0.0,0.0,0.0,0.0,0.0,0.0,0.0,0.0,0.0,0.0,0.0,0.0,0.0,0.0,0.0,0.0,0.0,0.0,0.0,0.0,0.0,0.0,0.0,0.0,0.0,0.0,0.0,0.0,0.0,0.0,0.0,0.0,0.0,0.0,0.0,0.0,0.0,0.0,0.0,0.0,0.0,0.0,0.0,0.0,0.0,0.0,0.0,0.0,0.0,0.0,0.0,0.0,0.0,0.0,0.0,0.0,0.0,0.0,0.0,0.0,0.0,0.0,0.0,0.0,0.0,0.0,0.0,0.0,0.0,0.0,0.0,0.0,0.0,0.0,0.0,0.0,0.0,0.0,0.1616,0.283,0.3234,0.3234,0.3234,0.3234,0.0,0.0,0.0,0.0,0.0,0.0,0.0,0.0,0.0,0.0,0.0,0.0,0.0,0.0,0.0,0.0,0.0,0.0,0.0,0.0,0.0,0.0,0.0,0.0,0.0,0.0,0.0,0.0,0.0,0.0,0.0,0.0,0.0,0.0,0.0,0.0,0.0,0.0,0.0,0.0,0.0,0.0,0.0,0.0,0.0,0.0,0.0,0.0,0.0,0.0,0.0,0.0,0.0,0.0,0.0,0.0,0.0,0.0,0.0,0.0,0.0,0.0,0.0,0.0,0.0,0.0,0.0,0.0,0.0,0.0,0.0,0.0,0.0,0.0,0.0,0.0,0.0,0.0,0.0,0.0,0.0,0.0,0.0,0.0,0.0,0.0,0.0,0.0,0.0,0.0,0.0,0.0,0.0,0.0,0.0,0.0,0.0,0.0,0.0,0.0,0.0,0.0,0.0,0.0,0.0,0.0,0.0202,0.1212,0.3032,0.3234,0.3234,0.3234,0.0,0.0,0.0,0.0,0.0,0.0,0.0,0.0,0.0,0.0,0.0,0.0,0.0,0.0,0.0,0.0,0.0,0.0,0.0,0.0,0.0,0.0,0.0,0.0,0.0,0.0,0.0,0.0,0.0,0.0,0.0,0.0,0.0,0.0,0.0,0.0,0.0,0.0,0.0,0.0,0.0,0.0,0.0,0.0,0.0,0.0,0.0,0.0,0.0,0.0,0.0,0.0,0.0,0.0,0.0,0.0,0.0,0.0,0.0,0.0,0.0,0.0,0.0,0.0,0.0,0.0,0.0,0.0,0.0,0.0,0.0,0.0,0.0,0.0,0.0,0.0,0.0,0.0,0.0,0.0,0.0,0.0,0.0,0.0,0.0,0.0,0.0,0.0,0.0,0.0,0.0,0.0,0.0,0.0,0.0,0.0,0.0,0.0,0.0,0.0,0.0,0.0,0.0,0.0,0.0,0.0,0.0,0.041,0.1436,0.2462,0.2667,0.1641,0.0612,0.0,0.0,0.0,0.0,0.0,0.0,0.0,0.0,0.0,0.0,0.0,0.0,0.0,0.0,0.0,0.0,0.0,0.0,0.0,0.0,0.0,0.0,0.0,0.0,0.0,0.0,0.0,0.0,0.0,0.0,0.0,0.0,0.0,0.0,0.0,0.0,0.0,0.0,0.0,0.0,0.0,0.0,0.0,0.0,0.0,0.0,0.0,0.0,0.0,0.0,0.0,0.0,0.0,0.0,0.0,0.0,0.0,0.0,0.0,0.0,0.0,0.0,0.0,0.0,0.0,0.0,0.0,0.0,0.0,0.0,0.0,0.0,0.0,0.0,0.0,0.0,0.0,0.0,0.0,0.0,0.0,0.0,0.0,0.0,0.0,0.0,0.0,0.0,0.0,0.0,0.0,0.0,0.0,0.0,0.0,0.0,0.0,0.0,0.0,0.0,0.0,0.0,0.0,0.0,0.0,0.0,0.0,0.0,0.1454,0.1662,0.0,0.0,0.0,0.0,0.0,0.0,0.0,0.0,0.0,0.0,0.0,0.0,0.0,0.0,0.0,0.0,0.0,0.0,0.0,0.0,0.0,0.0,0.0,0.0,0.0,0.0,0.0,0.0,0.0,0.0,0.0,0.0,0.0,0.0,0.0,0.0,0.0,0.0,0.0,0.0,0.0,0.0,0.0,0.0,0.0,0.0,0.0,0.0,0.0,0.0,0.0,0.0,0.0,0.0,0.0,0.0,0.0,0.0,0.0,0.0,0.0,0.0,0.0,0.0,0.0,0.0,0.0,0.0,0.0,0.0,0.0,0.0,0.0,0.0,0.0,0.0,0.0,0.0,0.0,0.0,0.0,0.0,0.0,0.0,0.0,0.0,0.0,0.0,0.0,0.0,0.0,0.0,0.0,0.0,0.0,0.0,0.0,0.0,0.0,0.0,0.0,0.0,0.0,0.0,0.0,0.0,0.0,0.0,0.0,0.0,0.0208,0.0208,0.0,0.0,0.0,0.0,0.0,0.0,0.0,0.0,0.0,0.0,0.0,0.0,0.0,0.0,0.0,0.0,0.0,0.0,0.0,0.0,0.0,0.0,0.0,0.0,0.0,0.0,0.0,0.0,0.0,0.0,0.0,0.0,0.0,0.0,0.0,0.0,0.0,0.0,0.0,0.0,0.0,0.0,0.0,0.0,0.0,0.0,0.0,0.0,0.0,0.0,0.0,0.0,0.0,0.0,0.0,0.0,0.0,0.0,0.0,0.0,0.0,0.0,0.0,0.0,0.0,0.0,0.0,0.0,0.0,0.0,0.0,0.0,0.0,0.0,0.0,0.0,0.0,0.0,0.0,0.0,0.0,0.0,0.0,0.0,0.0,0.0,0.0,0.0,0.0,0.0,0.0,0.0,0.0,0.0,0.0,0.0,0.0,0.0,0.0,0.0,0.0,0.0,0.0,0.0,0.0,0.0,0.0,0.0,0.0,0.0,0.0,0.0,0.0,0.0,0.0,0.0,0.0,0.0,0.0,0.0,0.0,0.0,0.0,0.0,0.0,0.0,0.0,0.0,0.0,0.0,0.0,0.0,0.0,0.0,0.0,0.0,0.0,0.0,0.0,0.0,0.0,0.0,0.0,0.0,0.0,0.0,0.0,0.0,0.0,0.0,0.0,0.0,0.0,0.0,0.0,0.0,0.0,0.0,0.0,0.0,0.0,0.0,0.0,0.0,0.0,0.0,0.0,0.0,0.0,0.0,0.0,0.0,0.0,0.0,0.0,0.0,0.0,0.0,0.0,0.0,0.0,0.0,0.0,0.0,0.0,0.0,0.0,0.0,0.0,0.0,0.0,0.0,0.0,0.0,0.0,0.0,0.0,0.0,0.0,0.0,0.0,0.0,0.0,0.0,0.0,0.0,0.0,0.0,0.0,0.0,0.0,0.0,0.0,0.0,0.0,0.0,0.0,0.0,0.0,0.0,0.0,0.0,0.0,0.0,0.0,0.0,0.0,0.0,0.0,0.0,0.0,0.0,0.0,0.0,0.0,0.0,0.0,0.0,0.0,0.0,0.0,0.0,0.0,0.0,0.0,0.0,0.0,0.0,0.0,0.0,0.0,0.0,0.0,0.0,0.0,0.0,0.0,0.0,0.0,0.0,0.0,0.0,0.0,0.0,0.0,0.0,0.0,0.0,0.0,0.0,0.0,0.0,0.0,0.0,0.0,0.0,0.0,0.0,0.0,0.0,0.0,0.0,0.0,0.0,0.0,0.0,0.0,0.0,0.0,0.0,0.0,0.0,0.0,0.0,0.0,0.0,0.0,0.0,0.0,0.0,0.0,0.0,0.0,0.0,0.0,0.0,0.0,0.0,0.0,0.0,0.0,0.0,0.0,0.0,0.0,0.0,0.0,0.0,0.0,0.0,0.0,0.0,0.0,0.0,0.0,0.0,0.0,0.0,0.0,0.0,0.0,0.0,0.0,0.0,0.0,0.0,0.0,0.0,0.0,0.0,0.0,0.0,0.0,0.0,0.0,0.0,0.0,0.0,0.0,0.0,0.0,0.0,0.0,0.0,0.0,0.0,0.0,0.0,0.0,0.0,0.0,0.0,0.0,0.0,0.0,0.0,0.0,0.0,0.0,0.0,0.0,0.0,0.0,0.0,0.0,0.0,0.0,0.0,0.0,0.0,0.0,0.0,0.0,0.0,0.0,0.0,0.0,0.0,0.0,0.0,0.0,0.0,0.0,0.0,0.0,0.0,0.0,0.0,0.0,0.0,0.0,0.0,0.0,0.0,0.0,0.0,0.0,0.0,0.0,0.0,0.0,0.0,0.0,0.0,0.0,0.0,0.0,0.0,0.0,0.0,0.0,0.0,0.0,0.0,0.0,0.0,0.0,0.0,0.0,0.0,0.0,0.0,0.0,0.0,0.0,0.0,0.0,0.0,0.0,0.0,0.0,0.0,0.0,0.0,0.0,0.0,0.0,0.0,0.0,0.0,0.0,0.0,0.0,0.0,0.0,0.0,0.0,0.0,0.0,0.0,0.0,0.0,0.0,0.0,0.0,0.0,0.0,0.0,0.0,0.0,0.0,0.0,0.0,0.0,0.0,0.0,0.0,0.0,0.0,0.0,0.0,0.0,0.0,0.0,0.0,0.0,0.0,0.0,0.0,0.0,0.0,0.0,0.0,0.0,0.0,0.0,0.0,0.0,0.0,0.0,0.0,0.0,0.0,0.0,0.0,0.0,0.0,0.0,0.0,0.0,0.0,0.0,0.0,0.0,0.0,0.0,0.0,0.0,0.0,0.0,0.0,0.0,0.0,0.0,0.0,0.0,0.0,0.0,0.0,0.0,0.0,0.0,0.0,0.0,0.0,0.0,0.0,0.0,0.0,0.0,0.0,0.0,0.0,0.0,0.0,0.0,0.0,0.0,0.0,0.0,0.0,0.0,0.0,0.0,0.0,0.0,0.0,0.0,0.0,0.0,0.0,0.0,0.0,0.0,0.0,0.0,0.0,0.0,0.0,0.0,0.0,0.0,0.0,0.0,0.0,0.0,0.0,0.0,0.0,0.0,0.0,0.0,0.0,0.0,0.0,0.0,0.0,0.0,0.0,0.0,0.0,0.0,0.0,0.0,0.0,0.0,0.0,0.0,0.0,0.0,0.0,0.0,0.0,0.0,0.0,0.0,0.0,0.0,0.0,0.0,0.0,0.0,0.0,0.0,0.0,0.0,0.0,0.0,0.0,0.0,0.0,0.0,0.0,0.0,0.0,0.0,0.0,0.0,0.0,0.0,0.0,0.0,0.0,0.0,0.0,0.0,0.0,0.0,0.0,0.0,0.0,0.0,0.0,0.0,0.0,0.0,0.0,0.0,0.0,0.0,0.0,0.0,0.0,0.0,0.0,0.0,0.0,0.0,0.0,0.0,0.0,0.0,0.0,0.0,0.0,0.0,0.0,0.0,0.0,0.0,0.0,0.0,0.0,0.0,0.0,0.0,0.0,0.0,0.0,0.0,0.0,0.0,0.0,0.0,0.0,0.0,0.0,0.0,0.0,0.0,0.0,0.0,0.0,0.0,0.0,0.0,0.0,0.0,0.0,0.0,0.0,0.0,0.0,0.0,0.0,0.0,0.0,0.0,0.0,0.0,0.0,0.0,0.0,0.0,0.0,0.0,0.0,0.0,0.0,0.0,0.0,0.0,0.0,0.0,0.0,0.0,0.0,0.0,0.0,0.0,0.0,0.0,0.0,0.1562,0.0,0.0,0.0,0.0,0.0,0.0,0.0,0.0,0.0,0.0,0.0,0.0,0.0,0.0,0.0,0.0,0.0,0.0,0.0,0.0,0.0,0.0,0.0,0.0,0.0,0.0,0.0,0.0,0.0,0.0,0.0,0.0,0.0,0.0,0.0,0.0,0.0,0.0,0.0,0.0,0.0,0.0,0.0,0.0,0.0,0.0,0.0,0.0,0.0,0.0,0.0,0.0,0.0,0.0,0.0,0.0,0.0,0.0,0.0,0.0,0.0,0.0,0.0,0.0,0.0,0.0,0.0,0.0,0.0,0.0,0.0,0.0,0.0,0.0,0.0,0.0,0.0,0.0,0.0,0.0,0.0,0.0,0.0,0.0,0.0,0.0,0.0,0.0,0.0,0.0,0.0,0.0,0.0,0.0,0.0,0.0,0.0,0.0,0.0,0.0,0.0,0.0,0.0,0.0,0.0,0.0,0.0,0.0,0.0,0.0,0.0,0.2956,0.157,0.0,0.0,0.0,0.0,0.0,0.0,0.0,0.0,0.0,0.0,0.0,0.0,0.0,0.0,0.0,0.0,0.0,0.0,0.0,0.0,0.0,0.0,0.0,0.0,0.0,0.0,0.0,0.0,0.0,0.0,0.0,0.0,0.0,0.0,0.0,0.0,0.0,0.0,0.0,0.0,0.0,0.0,0.0,0.0,0.0,0.0,0.0,0.0,0.0,0.0,0.0,0.0,0.0,0.0,0.0,0.0,0.0,0.0,0.0,0.0,0.0,0.0,0.0,0.0,0.0,0.0,0.0,0.0,0.0,0.0,0.0,0.0,0.0,0.0,0.0,0.0,0.0,0.0,0.0,0.0,0.0,0.0,0.0,0.0,0.0,0.0,0.0,0.0,0.0,0.0,0.0,0.0,0.0,0.0,0.0,0.0,0.0,0.0,0.0,0.0,0.0,0.0,0.0,0.0,0.3744,0.3764,0.3793,0.3791,0.481,0.6461,0.4569,0.3747,0.355,0.1775,0.0,0.0,0.0,0.0,0.0,0.0,0.0,0.0,0.0,0.0,0.0,0.0,0.0,0.0,0.0,0.0,0.0,0.0,0.0,0.0,0.0,0.0,0.0,0.0,0.0,0.0,0.0,0.0,0.0,0.0,0.0,0.0,0.0,0.0,0.0,0.0,0.0,0.0,0.0,0.0,0.0,0.0,0.0,0.0,0.0,0.0,0.0,0.0,0.0,0.0,0.0,0.0,0.0,0.0,0.0,0.0,0.0,0.0,0.0,0.0,0.0,0.0,0.0,0.0,0.0,0.0,0.0,0.0,0.0,0.0,0.0,0.0,0.0,0.0,0.0,0.0,0.0,0.0,0.0,0.0,0.0,0.0,0.0,0.0,0.0,0.0,0.0,0.0,0.0,0.0,0.0,0.0,0.0,0.0,0.0,0.0,0.0,0.3135,0.3533,0.5544,0.6365,0.5968,0.6017,0.6045,0.6052,0.6047,0.6251,0.6461,0.6243,0.0,0.604,0.5839,0.0,0.0,0.0,0.0,0.0,0.0,0.0,0.0,0.0,0.0,0.0,0.0,0.0,0.0,0.0,0.0,0.0,0.0,0.0,0.0,0.0,0.0,0.0,0.0,0.0,0.0,0.0,0.0,0.0,0.0,0.0,0.0,0.0,0.0,0.0,0.0,0.0,0.0,0.0,0.0,0.0,0.0,0.0,0.0,0.0,0.0,0.0,0.0,0.0,0.0,0.0,0.0,0.0,0.0,0.0,0.0,0.0,0.0,0.0,0.0,0.0,0.0,0.0,0.0,0.0,0.0,0.0,0.0,0.0,0.0,0.0,0.0,0.0,0.0,0.0,0.0,0.0,0.0,0.0,0.0,0.0,0.1904,0.2481,0.0191,0.0,0.0,0.0,0.0,0.0,0.0,0.0,0.0,0.0,0.0,0.0,0.5144,0.5147,0.496,0.4985,0.6009,0.6425,0.6425,0.6485,0.6515,0.6515,0.6545,0.6559,0.6559,0.6559,0.6561,0.6559,0.6491,0.545,0.3635,0.0,0.0,0.0,0.0,0.3283,0.3284,0.082,0.0,0.0,0.0,0.0,0.0,0.0,0.0,0.0,0.0,0.0,0.0,0.0,0.0,0.0,0.0,0.0,0.0,0.0,0.0,0.0,0.0,0.0,0.0,0.0,0.0,0.0,0.0,0.0,0.0,0.0,0.0,0.0,0.0,0.0,0.0,0.0,0.0,0.0,0.0,0.0,0.0,0.0,0.0,0.0,0.0,0.0,0.0,0.0,0.0,0.0,0.0,0.0,0.0,0.0,0.0,0.0,0.0,0.0,0.0,0.0,0.0,0.0,0.0,0.0,0.0,0.0,0.0,0.0,0.0,0.0,0.0,0.0,0.2672,0.3818,0.1718,0.1526,0.1336,0.0,0.0,0.0,0.0,0.0,0.0,0.4134,0.5518,0.6536,0.6598,0.66,0.6428,0.6482,0.6485,0.6493,0.6507,0.6553,0.6572,0.6575,0.6616,0.6635,0.6635,0.6635,0.6635,0.663,0.6542,0.6507,0.6309,0.4917,0.3287,0.1644,0.1655,0.3322,0.5196,0.2283,0.1038,0.083,0.083,0.083,0.1038,0.1661,0.0,0.0,0.0,0.0,0.0,0.0,0.0,0.0,0.0,0.0,0.0,0.0,0.0,0.0,0.0,0.0,0.0,0.0,0.0,0.0,0.0,0.0,0.0,0.0,0.0,0.0,0.0,0.0,0.0,0.0,0.0,0.0,0.0,0.0,0.0,0.0,0.0,0.0,0.0,0.0,0.0,0.0,0.0,0.0,0.0,0.0,0.0,0.0,0.0,0.0,0.0,0.0,0.0,0.0,0.0,0.0,0.0,0.0,0.0,0.0,0.0,0.0,0.0,0.0,0.0,0.0,0.0,0.0,0.5347,0.5728,0.0,0.0,0.0,0.0,0.3331,0.5298,0.6505,0.6363,0.6365,0.6595,0.6455,0.6458,0.6485,0.6548,0.6548,0.6575,0.6627,0.663,0.6632,0.6632,0.6635,0.6635,0.6635,0.6635,0.6635,0.6635,0.663,0.663,0.6635,0.6431,0.6433,0.6436,0.6436,0.519,0.3528,0.3942,0.3734,0.3321,0.3321,0.3321,0.3737,0.5816,0.3341,0.0,0.0,0.0,0.0,0.0,0.0,0.0,0.0,0.0,0.0,0.0,0.0,0.0,0.0,0.0,0.0,0.0,0.0,0.0,0.0,0.0,0.0,0.0,0.0,0.0,0.0,0.0,0.0,0.0,0.0,0.0,0.0,0.0,0.0,0.0,0.0,0.0,0.0,0.0,0.0,0.0,0.0,0.0,0.0,0.0,0.0,0.0,0.0,0.0,0.0,0.0,0.0,0.0,0.0,0.0,0.0,0.0,0.0,0.0,0.0,0.0,0.0,0.0,0.0,0.0,0.0,0.0,0.5921,0.6145,0.0,0.5222,0.5255,0.5294,0.5344,0.614,0.6567,0.6425,0.6431,0.6458,0.6518,0.6521,0.6548,0.6605,0.6605,0.6616,0.6638,0.6676,0.6695,0.6695,0.6736,0.6752,0.6752,0.6752,0.6752,0.6752,0.6752,0.6709,0.6643,0.6681,0.67,0.6709,0.6747,0.6336,0.5703,0.5914,0.5703,0.5492,0.5492,0.4646,0.38,0.613,0.5719,0.3825,0.0855,0.0,0.0,0.0,0.0,0.0,0.0,0.0,0.0882,0.3972,0.3569,0.2252,0.1346,0.0672,0.0,0.0,0.0,0.0,0.0,0.0,0.0,0.0,0.0,0.0,0.0,0.0,0.0,0.0,0.0,0.0,0.0,0.0,0.0,0.0,0.0,0.0,0.0,0.0,-0.0448,0.0,0.0,0.0,0.0,0.0,0.0,0.0,0.0,0.0,0.0,0.0,0.0,0.0,0.0,0.0,0.0,0.0,0.0,0.0,0.0,0.0,0.0,0.0,0.0,0.0,0.44,0.6139,0.6139,0.6191,0.6234,0.6254,0.6488,0.6539,0.6598,0.6401,0.6428,0.6488,0.6493,0.6518,0.6578,0.6581,0.6608,0.6665,0.6668,0.6687,0.6728,0.6769,0.6799,0.682,0.6861,0.688,0.688,0.688,0.688,0.688,0.688,0.6831,0.676,0.6779,0.6801,0.6828,0.6869,0.6883,0.6883,0.6883,0.6883,0.6883,0.6883,0.5804,0.4943,0.6456,0.6456,0.5385,0.2382,0.1301,0.1303,0.131,0.1316,0.1318,0.1318,0.0887,0.1341,0.4248,0.4976,0.4566,0.2968,0.1136,0.0,0.0,0.0,0.0,0.0,0.0,0.0,0.0,0.0,0.0,0.0,0.0,0.0,0.0,0.0,0.0,0.0,0.0,0.0,0.0,0.0,0.0,0.0,0.0,0.0,-0.0,0.0,0.0,0.0,0.0,0.0,0.0,0.0,0.0,0.0,0.0,0.0,0.0,0.0,0.0,0.0,0.0,0.0,0.0,0.0,0.0,0.0,0.0,0.0,0.6115,0.6359,0.6395,0.6199,0.6254,0.6311,0.6365,0.6371,0.6398,0.6458,0.6463,0.6491,0.6548,0.6553,0.6581,0.6638,0.664,0.667,0.673,0.6736,0.6796,0.691,0.691,0.6943,0.7,0.7,0.7006,0.7006,0.7006,0.7006,0.7006,0.7006,0.7006,0.7,0.6937,0.6948,0.7,0.7,0.7,0.7,0.7,0.7,0.7,0.7,0.7,0.7,0.7,0.5903,0.4807,0.4807,0.4155,0.3721,0.3721,0.3744,0.377,0.377,0.2919,0.1817,0.0454,0.3889,0.6453,0.4375,0.1841,0.0,0.0,0.0,0.0,0.0,0.0233,0.0,0.0235,0.0236,0.0,0.0,0.0,0.0,0.0236,0.0236,0.0236,0.0236,0.0,0.0,0.0,0.0,0.0,0.0,0.0,0.0,0.0,0.0,0.0,0.0,0.0,0.0,0.0,0.0,0.0,0.0,0.0,0.0,0.0,0.0,0.0,0.0,0.0,0.0,0.0,0.0,0.0,0.0,0.6142,0.5784,0.4239,0.5409,0.621,0.6256,0.6313,0.6354,0.6368,0.6412,0.6444,0.6461,0.6502,0.6534,0.6551,0.6591,0.664,0.67,0.6744,0.6796,0.6858,0.6902,0.6943,0.6976,0.6976,0.6787,0.6399,0.6399,0.6203,0.5791,0.5791,0.5791,0.5791,0.5791,0.5815,0.5831,0.6594,0.6984,0.7,0.7,0.7,0.7,0.7,0.7,0.7,0.7,0.7,0.7,0.7,0.6779,0.6347,0.6392,0.6404,0.5979,0.5157,0.4957,0.5198,0.6145,0.6175,0.5733,0.5503,0.6001,0.6501,0.5799,0.4196,0.2101,0.0232,0.0,0.0,0.0,0.3053,0.5423,0.5702,0.4041,0.2142,0.0239,0.0,0.1437,0.5513,0.549,0.4754,0.2852,0.0943,0.0,0.0,0.0,0.0,0.0,0.0,0.0,0.0,0.0,0.0,0.0,0.0,0.0,0.0,0.0,0.0,0.0,0.0,0.0,0.0,0.0,0.0,0.0,0.0,0.0,0.0,0.0,0.0,0.0,0.6191,0.5848,0.4696,0.548,0.6278,0.6316,0.6373,0.6409,0.6409,0.6463,0.6499,0.6499,0.6553,0.6611,0.666,0.6695,0.6752,0.6839,0.6875,0.6708,0.6545,0.6581,0.6619,0.6222,0.6222,0.625,0.5849,0.5849,0.5639,0.544,0.544,0.544,0.544,0.544,0.5456,0.5471,0.0,0.0,0.0,0.0,0.6874,0.7071,0.7071,0.7071,0.7071,0.7071,0.6869,0.6665,0.6665,0.6686,0.6488,0.6518,0.6757,0.677,0.6152,0.6168,0.6403,0.7125,0.7154,0.7172,0.7398,0.6747,0.6317,0.6784,0.6121,0.0,0.3529,0.2343,0.1642,0.1655,0.4027,0.6416,0.767,0.6476,0.5038,0.3374,0.2411,0.2894,0.6033,0.7215,0.0,0.0,0.0,0.2129,0.0,0.0,0.0,0.0,0.0,0.0,0.0,0.0,0.0,0.0,0.0,0.0,0.0,0.0,0.0,0.0,0.0,0.0,0.0,0.0,0.0,0.0,0.0,0.0,0.0,0.0,0.0,0.0,0.6254,0.6308,0.6363,0.6376,0.6382,0.6382,0.6428,0.6463,0.6472,0.6521,0.6559,0.657,0.6624,0.6706,0.6823,0.6834,0.0,0.0,0.0,0.6607,0.5997,0.6004,0.5826,0.5456,0.5456,0.5483,0.5524,0.5524,0.553,0.5534,0.5534,0.5534,0.5534,0.5534,0.5534,0.5528,0.5477,0.5481,0.5514,0.5928,0.6562,0.6969,0.6969,0.0,0.0,0.6969,0.6783,0.6367,0.6367,0.5946,0.575,0.575,0.6209,0.6441,0.6446,0.6908,0.7371,0.7376,0.6954,0.676,0.7228,0.6804,0.6606,0.7315,0.7602,0.7643,0.7643,0.5698,0.4263,0.4291,0.4294,0.5268,0.7484,0.7733,0.7983,0.7991,0.0,0.0,0.4354,0.6529,0.7733,0.7733,0.7679,0.5474,0.0708,0.0236,0.0,0.0,0.0,0.0,0.0,0.0,0.0,0.0,0.0,0.0,0.0,0.0,0.0,0.0,0.0,0.0,0.0,0.0,0.0,0.0,0.0,0.0,0.0,0.0,0.0,0.6264,0.6313,0.6357,0.6368,0.6414,0.6444,0.6444,0.6455,0.648,0.6529,0.6545,0.6591,0.6687,0.6749,0.6815,0.6886,0.6937,0.6779,0.6184,0.6226,0.605,0.5649,0.5688,0.5715,0.6193,0.6193,0.0,0.6269,0.6269,0.6059,0.5628,0.5628,0.5628,0.5628,0.5628,0.5628,0.5618,0.554,0.5514,0.5518,0.5508,0.5726,0.5722,0.5722,0.5722,0.5722,0.5722,0.6186,0.6422,0.6422,0.6658,0.0,0.7125,0.7125,0.7138,0.672,0.6501,0.674,0.6784,0.657,0.6817,0.7289,0.7336,0.7376,0.7616,0.7657,0.7698,0.7698,0.721,0.6975,0.6982,0.6982,0.7243,0.779,0.779,0.7812,0.7861,0.7373,0.7128,0.7128,0.7579,0.779,0.779,0.7733,0.6234,0.3093,0.1189,0.0,0.0,0.0,0.0,0.0,0.0,0.0,0.0,0.0,0.0,0.0,0.0,0.0,0.0,0.0,0.0,0.0,0.0,0.0,0.0,0.0,0.5232,0.584,0.0,0.6327,0.6324,0.6376,0.6417,0.6417,0.6469,0.6507,0.6507,0.6507,0.6542,0.6632,0.6668,0.6722,0.6812,0.6875,0.6732,0.6599,0.6632,0.6461,0.5866,0.6122,0.6156,0.5518,0.5771,0.6026,0.6052,0.6052,0.6063,0.6088,0.6088,0.5869,0.5655,0.5655,0.5655,0.5655,0.5655,0.5655,0.5651,0.5602,0.5803,0.6013,0.6013,0.6227,0.6434,0.6434,0.6434,0.6434,0.6434,0.6453,0.6477,0.6477,0.6496,0.652,0.652,0.6747,0.6987,0.6544,0.6792,0.7038,0.7092,0.7113,0.7118,0.7621,0.7649,0.767,0.767,0.772,0.7763,0.7763,0.779,0.7804,0.7769,0.7763,0.7782,0.7845,0.7853,0.7858,0.7894,0.7894,0.7894,0.7894,0.7875,0.7839,0.7804,0.7782,0.7256,0.5755,0.4558,0.2628,0.0,0.0,0.0,0.0,0.0,0.0,0.0,0.0,0.0,0.0,0.0,0.0,0.0,0.0,0.0,0.0,0.5163,0.5176,0.5034,0.5248,0.5656,0.5698,0.6148,0.6387,0.6387,0.6439,0.648,0.648,0.654,0.6591,0.6602,0.6594,0.6627,0.6736,0.6799,0.6869,0.6737,0.6787,0.6645,0.608,0.6087,0.6126,0.553,0.599,0.625,0.5597,0.6066,0.6081,0.589,0.589,0.589,0.6128,0.6139,0.6139,0.6139,0.615,0.6154,0.6154,0.6154,0.6154,0.6154,0.6154,0.6363,0.6792,0.6539,0.6735,0.7159,0.7159,0.7159,0.7159,0.7159,0.6728,0.6532,0.6532,0.6329,0.6128,0.6128,0.637,0.6849,0.6849,0.7092,0.7586,0.7635,0.7643,0.7657,0.7706,0.772,0.7733,0.7733,0.7782,0.7826,0.7839,0.788,0.7894,0.7831,0.7831,0.7858,0.7908,0.7924,0.7929,0.7929,0.7929,0.7929,0.7929,0.7929,0.7902,0.7845,0.7845,0.7812,0.7741,0.7741,0.5304,0.0717,0.0239,0.0,0.0,0.0,0.0,0.0,0.0,0.0,0.3432,0.3624,0.4196,0.4958,0.5339,0.5542,0.0,0.5987,0.6003,0.6061,0.6117,0.6352,0.636,0.6409,0.645,0.645,0.6502,0.6542,0.6542,0.6638,0.6728,0.6782,0.6741,0.6733,0.6801,0.6861,0.675,0.6246,0.6262,0.6087,0.5497,0.6193,0.6221,0.5577,0.6273,0.6299,0.5645,0.5645,0.6121,0.6594,0.6594,0.6829,0.7302,0.7357,0.7384,0.7384,0.7431,0.745,0.745,0.745,0.745,0.745,0.745,0.7452,0.7431,0.615,0.5879,0.5875,0.5875,0.5875,0.5875,0.5875,0.611,0.6587,0.6587,0.6824,0.7302,0.7302,0.7341,0.7384,0.7384,0.7657,0.7692,0.7698,0.7706,0.7706,0.7714,0.7755,0.7796,0.7796,0.7845,0.7902,0.7957,0.7973,0.7957,0.7894,0.7929,0.7965,0.7973,0.8022,0.8055,0.8055,0.8055,0.8055,0.8055,0.8055,0.8027,0.7973,0.7965,0.7916,0.7796,0.7796,0.6556,0.3374,0.1204,0.0,0.0,0.0,0.0,0.0,0.0,0.0,0.4387,0.4577,0.4774,0.5569,0.5769,0.5974,0.6226,0.6243,0.6259,0.6319,0.6352,0.6382,0.6417,0.6444,0.6474,0.6507,0.6534,0.6575,0.6643,0.6725,0.6801,0.6864,0.6507,0.6342,0.6367,0.6392,0.6234,0.5911,0.6145,0.6179,0.5555,0.6019,0.6273,0.5624,0.6329,0.6333,0.6121,0.6625,0.6881,0.7118,0.7146,0.7402,0.7643,0.7665,0.7679,0.7679,0.7706,0.7714,0.7714,0.7714,0.7714,0.7714,0.7714,0.7714,0.7706,0.7176,0.6925,0.6925,0.6925,0.6925,0.6925,0.6925,0.6925,0.7164,0.7164,0.7405,0.7643,0.7643,0.7657,0.7679,0.7679,0.7692,0.772,0.7755,0.7769,0.7777,0.7809,0.7867,0.7908,0.7908,0.7957,0.8006,0.8036,0.8041,0.8027,0.8006,0.8022,0.8041,0.8041,0.8063,0.8076,0.8076,0.8076,0.8076,0.8076,0.8076,0.8063,0.8041,0.8041,0.8,0.7916,0.7916,0.7381,0.6314,0.2912,0.0725,0.0,0.0,0.0,-0.0,-0.1427,-0.1419,0.4961,0.517,0.5387,0.599,0.6202,0.6229,0.6292,0.6305,0.6322,0.6384,0.6395,0.6409,0.6452,0.6474,0.6502,0.6545,0.6594,0.6654,0.6741,0.6834,0.6916,0.6758,0.6449,0.6087,0.6115,0.611,0.5906,0.553,0.6001,0.6019,0.5602,0.6303,0.6322,0.589,0.661,0.6856,0.6856,0.7384,0.7649,0.7649,0.7692,0.7714,0.7714,0.7728,0.7747,0.7763,0.7763,0.7763,0.7763,0.7763,0.7763,0.7763,0.7763,0.7763,0.7763,0.7763,0.7741,0.7714,0.7714,0.7714,0.7714,0.7714,0.7714,0.7714,0.7714,0.7714,0.7714,0.7714,0.7728,0.7741,0.7741,0.7747,0.7777,0.7818,0.7839,0.7867,0.7908,0.7965,0.8014,0.8014,0.8049,0.8085,0.8098,0.8112,0.8134,0.8147,0.8166,0.8161,0.8134,0.8153,0.8175,0.8175,0.8175,0.8175,0.8175,0.8161,0.8139,0.8126,0.8112,0.8076,0.8014,0.8,0.7951,0.7861,0.4899,0.2437,0.0968,0.0242,0.0,-0.0,-0.264,-0.2872,0.4397,0.4641,0.4894,0.6008,0.6234,0.6292,0.6354,0.6368,0.6384,0.6447,0.6458,0.6461,0.6461,0.651,0.6551,0.6551,0.6698,0.6809,0.6815,0.697,0.6882,0.6269,0.6324,0.6168,0.5571,0.554,0.5534,0.5581,0.5587,0.5602,0.5651,0.6356,0.6594,0.6594,0.7118,0.763,0.763,0.7684,0.7714,0.7714,0.7714,0.7714,0.7714,0.7777,0.7831,0.7888,0.7888,0.7888,0.7888,0.7888,0.7888,0.7888,0.7888,0.7888,0.7888,0.7888,0.7818,0.7714,0.7714,0.7714,0.7714,0.7714,0.7714,0.7714,0.7714,0.7714,0.7714,0.7714,0.7755,0.7804,0.7804,0.7845,0.7888,0.7894,0.7938,0.7978,0.7987,0.8027,0.8076,0.8076,0.8076,0.8098,0.8153,0.821,0.8264,0.8327,0.8384,0.8376,0.8259,0.8349,0.842,0.842,0.842,0.842,0.842,0.8371,0.8308,0.8251,0.8196,0.8139,0.8076,0.8022,0.7987,0.7987,0.6935,0.5654,0.366,0.1219,0.0,-0.0,-0.2655,-0.3862,0.4467,0.4883,0.5499,0.6106,0.6324,0.6357,0.6417,0.6431,0.6436,0.6458,0.6461,0.6474,0.6515,0.6537,0.6591,0.6709,0.6779,0.666,0.6374,0.6444,0.6513,0.6379,0.5975,0.6013,0.628,0.5803,0.5581,0.5628,0.6099,0.634,0.6356,0.6868,0.7363,0.7363,0.7418,0.7684,0.7684,0.7741,0.7777,0.7777,0.7812,0.7853,0.7894,0.7916,0.7957,0.8014,0.8014,0.8014,0.8014,0.8014,0.8014,0.8014,0.8014,0.8014,0.8014,0.8014,0.7992,0.7943,0.7858,0.7831,0.7831,0.7831,0.7831,0.7831,0.7831,0.7831,0.7831,0.7831,0.788,0.7924,0.7924,0.7973,0.8014,0.8014,0.8027,0.8049,0.8049,0.809,0.8139,0.8139,0.8202,0.8259,0.8278,0.8335,0.8376,0.8398,0.842,0.842,0.8376,0.8406,0.8433,0.8433,0.8433,0.8433,0.8433,0.8412,0.839,0.8371,0.8314,0.8259,0.8196,0.8139,0.809,0.8049,0.674,0.5709,0.4707,0.2217,0.0491,-0.0,-0.2681,-0.3893,0.4706,0.5324,0.5752,0.6167,0.6387,0.6414,0.6452,0.6461,0.6461,0.6461,0.648,0.6507,0.6545,0.6602,0.6684,0.6799,0.6676,0.6561,0.6262,0.6312,0.6145,0.6227,0.603,0.6059,0.6539,0.6077,0.5858,0.6121,0.6375,0.6625,0.6861,0.7389,0.7657,0.7657,0.7714,0.7747,0.7747,0.7804,0.7845,0.7867,0.7929,0.7978,0.8022,0.8022,0.8041,0.8076,0.8076,0.8076,0.8076,0.8076,0.8076,0.8076,0.8076,0.8076,0.8076,0.8076,0.8076,0.8063,0.7987,0.7957,0.7957,0.7957,0.7957,0.7957,0.7957,0.7957,0.7957,0.7957,0.7987,0.8022,0.8022,0.8049,0.8076,0.8076,0.809,0.8112,0.8134,0.8188,0.8237,0.8259,0.8322,0.8376,0.8376,0.8425,0.8474,0.8496,0.8496,0.8488,0.8469,0.8482,0.8496,0.8496,0.8496,0.8496,0.8496,0.8474,0.8469,0.8469,0.8406,0.8357,0.8322,0.8237,0.8183,0.8139,0.68,0.6017,0.5766,0.3492,0.1991,0.1245,-0.2223,-0.3938,0.5317,0.5575,0.5841,0.639,0.642,0.6461,0.6461,0.6461,0.6463,0.6466,0.6512,0.6553,0.6559,0.67,0.682,0.6826,0.6367,0.6281,0.6286,0.6379,0.6234,0.582,0.0,0.6539,0.0,0.6598,0.6598,0.6598,0.6649,0.6913,0.7635,0.7684,0.772,0.772,0.7777,0.7809,0.7812,0.7875,0.7929,0.7992,0.8049,0.8076,0.8085,0.8085,0.8085,0.8085,0.809,0.809,0.809,0.809,0.8098,0.8098,0.8098,0.8098,0.8098,0.8098,0.8098,0.8098,0.8098,0.8085,0.8076,0.8076,0.8076,0.8076,0.8076,0.8076,0.8076,0.8076,0.8076,0.8085,0.8085,0.8085,0.8085,0.809,0.8134,0.8188,0.8251,0.8308,0.8363,0.842,0.8433,0.8439,0.8439,0.8488,0.8545,0.8608,0.8616,0.8594,0.8537,0.8581,0.8616,0.8616,0.8616,0.8616,0.8616,0.8559,0.8532,0.8532,0.8469,0.8439,0.8439,0.8322,0.8259,0.8259,0.6871,0.6316,0.6823,0.4798,0.3788,0.3787,-0.1504,-0.3998,0.5604,0.6034,0.6256,0.6442,0.645,0.6461,0.6461,0.6461,0.6474,0.6518,0.6542,0.6578,0.6665,0.6755,0.6848,0.6937,0.6419,0.6312,0.6391,0.5997,0.6052,0.6333,0.0,0.6829,0.7363,0.737,0.7384,0.7423,0.7402,0.741,0.7692,0.7747,0.7782,0.7782,0.7839,0.7894,0.7938,0.8,0.8036,0.8055,0.8068,0.8098,0.8147,0.8147,0.8166,0.821,0.8251,0.8273,0.8278,0.8322,0.8344,0.8344,0.8344,0.8344,0.8344,0.8344,0.8344,0.8344,0.8344,0.8224,0.8076,0.8076,0.8076,0.8076,0.8076,0.8076,0.8076,0.8076,0.8112,0.8147,0.8147,0.8175,0.8215,0.8264,0.8286,0.8314,0.8376,0.8398,0.8412,0.8433,0.8469,0.8518,0.8559,0.8581,0.8594,0.8616,0.8616,0.8608,0.8594,0.8608,0.8616,0.8616,0.8616,0.8616,0.8616,0.86,0.8594,0.8594,0.8537,0.8504,0.8504,0.8425,0.8363,0.8322,0.7476,0.6913,0.6876,0.43,0.3282,0.3787,-0.1512,-0.3778,0.6047,0.6259,0.6461,0.6461,0.6461,0.6461,0.6461,0.6461,0.648,0.654,0.6572,0.6616,0.6711,0.682,0.6921,0.6989,0.6473,0.5917,0.6434,0.6041,0.5858,0.0,0.6849,0.0,0.763,0.7649,0.7692,0.7747,0.7728,0.772,0.7747,0.7809,0.7853,0.788,0.7916,0.8459,0.9766,1.1093,1.1631,1.1639,1.1456,1.1521,1.1314,1.1094,1.1138,1.1179,1.1223,1.1241,1.1252,1.1288,1.0527,0.9739,0.9739,0.922,0.8433,0.8433,0.8433,0.8433,0.8433,0.8344,0.8229,0.8229,0.8229,0.8229,0.8229,0.8229,0.8229,0.8229,0.8259,0.8286,0.8286,0.8308,0.8344,0.8376,0.8384,0.8398,0.8461,0.8474,0.8482,0.851,0.8537,0.8572,0.8608,0.8616,0.8616,0.8616,0.8616,0.8616,0.8616,0.8616,0.8616,0.8616,0.8616,0.8616,0.8616,0.8616,0.8616,0.8616,0.8581,0.8567,0.8567,0.8504,0.8455,0.8425,0.7585,0.7266,0.6959,0.4103,0.2555,0.2039,-0.0762,-0.2284,0.6461,0.6461,0.6461,0.6461,0.6461,0.6461,0.6461,0.6469,0.6491,0.6551,0.6608,0.6668,0.6728,0.688,0.7,0.6795,0.608,0.575,0.6446,0.607,0.6128,0.6606,0.7355,0.7635,0.7649,0.7698,0.7991,0.8294,0.8308,0.8317,0.8317,0.8369,0.8674,0.8989,0.8995,1.028,1.2596,1.4962,1.6298,1.6298,1.5757,1.5597,1.5597,1.4928,1.471,1.471,1.4724,1.4734,1.4467,1.4491,1.3187,1.1084,1.1084,1.0031,0.8455,0.8455,0.8455,0.8455,0.8455,0.8455,0.8455,0.8439,0.8433,0.8433,0.8433,0.8433,0.8433,0.8433,0.8433,0.8433,0.8433,0.8433,0.8433,0.8439,0.8447,0.8461,0.8523,0.8537,0.8551,0.8608,0.8616,0.8616,0.8616,0.8616,0.8616,0.8616,0.8616,0.8616,0.8616,0.8616,0.8616,0.8616,0.8616,0.8616,0.8616,0.8616,0.8616,0.8616,0.8616,0.8616,0.8616,0.8567,0.8532,0.8523,0.7943,0.7364,0.6792,0.4438,0.2343,0.0517,0.0257,0.0,0.6461,0.6461,0.6461,0.6461,0.6461,0.6461,0.6461,0.6502,0.6553,0.6611,0.667,0.673,0.679,0.691,0.6795,0.6404,0.6329,0.6223,0.6496,0.6556,0.6613,0.737,0.7621,0.7665,0.7763,0.7782,0.8784,1.105,1.1369,1.1408,1.1408,1.142,1.2452,1.4792,1.4882,1.5189,1.5467,1.5663,1.5767,1.5767,1.5139,1.4937,1.4937,1.4962,1.471,1.471,1.481,1.3788,1.2214,1.2285,1.0978,0.9119,0.9119,0.8848,0.8581,0.8581,0.8581,0.8581,0.8581,0.8581,0.8567,0.8469,0.8433,0.8433,0.8433,0.8433,0.8433,0.8433,0.8433,0.8433,0.8433,0.8433,0.8447,0.8496,0.851,0.8523,0.8586,0.86,0.86,0.8616,0.8616,0.8616,0.8616,0.8616,0.8616,0.8616,0.8616,0.8616,0.8616,0.8616,0.8616,0.8616,0.8616,0.8616,0.8616,0.8616,0.8616,0.8616,0.8616,0.8616,0.8616,0.8608,0.8572,0.8523,0.8249,0.7951,0.7106,0.5787,0.4457,0.3387,0.104,0.0,0.6461,0.6461,0.6461,0.6461,0.6461,0.6461,0.6461,0.6507,0.6567,0.6624,0.6684,0.6747,0.6807,0.6918,0.68,0.6195,0.6336,0.6458,0.6508,0.6563,0.6849,0.7621,0.7657,0.7706,0.7796,0.9078,1.0604,1.1878,1.3443,1.4225,1.4172,1.4274,1.4847,1.6163,1.735,1.7964,1.7964,1.8938,1.956,1.956,1.8925,1.8736,1.8736,1.8277,1.7516,1.6472,1.6524,1.5479,1.3362,1.3404,1.2087,1.0222,1.0222,0.9688,0.8616,0.8616,0.8616,0.8616,0.8616,0.8616,0.8608,0.8545,0.8532,0.8532,0.8532,0.8532,0.8532,0.8532,0.8532,0.8532,0.8532,0.8532,0.8537,0.8567,0.8572,0.8581,0.8608,0.8616,0.8616,0.8616,0.8616,0.8616,0.8616,0.8616,0.8616,0.8616,0.8616,0.8616,0.8616,0.8616,0.8616,0.8616,0.8616,0.8616,0.8616,0.8616,0.8616,0.8616,0.8616,0.8616,0.8616,0.8616,0.86,0.8572,0.8572,0.8009,0.6629,0.6362,0.5284,0.4197,0.2887,0.131,0.6461,0.6461,0.6461,0.6461,0.6461,0.6466,0.6477,0.6526,0.6586,0.6643,0.6703,0.676,0.6809,0.6918,0.68,0.5986,0.6343,0.646,0.6292,0.657,0.7092,0.7635,0.7684,0.7741,0.7818,1.0376,1.2439,1.293,1.6021,1.7565,1.6963,1.7463,1.7839,1.7839,1.9625,2.054,2.054,2.2003,2.2861,2.2861,2.2245,2.204,2.204,2.1645,2.0367,1.8766,1.8766,1.7701,1.5563,1.5563,1.4499,1.2355,1.2095,1.0751,0.9148,0.8885,0.8616,0.8616,0.8616,0.8616,0.8616,0.8616,0.8616,0.8616,0.8616,0.8616,0.8616,0.8616,0.8616,0.8616,0.8616,0.8616,0.8616,0.8616,0.8616,0.8616,0.8616,0.8616,0.8616,0.8616,0.8616,0.8616,0.8616,0.8616,0.8616,0.8616,0.8616,0.8616,0.8616,0.8616,0.8616,0.8616,0.8616,0.8616,0.8616,0.8616,0.8616,0.8616,0.8616,0.8616,0.8616,0.8616,0.8616,0.8616,0.8345,0.7785,0.6409,0.6142,0.5589,0.4229,0.4229,0.2907,0.6461,0.6461,0.6461,0.6461,0.6461,0.6477,0.6531,0.6589,0.6646,0.6706,0.6766,0.6809,0.6818,0.6918,0.6594,0.5586,0.6367,0.6934,0.5869,0.6829,0.7581,0.7692,0.7714,0.7763,0.7875,1.0412,1.3182,1.5408,2.0609,2.2536,2.0241,2.2055,2.3033,2.3033,2.2949,2.278,2.278,2.2421,2.2238,2.2238,2.1611,2.1428,2.1428,2.1441,2.1169,2.1169,2.1169,1.9835,1.7962,1.7962,1.663,1.4499,1.2627,1.1556,1.1291,0.9416,0.8616,0.8616,0.8616,0.8616,0.8616,0.8616,0.8616,0.8616,0.8616,0.8616,0.8616,0.8616,0.8616,0.8616,0.8616,0.8616,0.8616,0.8616,0.8616,0.8616,0.8616,0.8616,0.8616,0.8616,0.8616,0.8616,0.8616,0.8616,0.8616,0.8616,0.8616,0.8616,0.8616,0.8616,0.8616,0.8616,0.8616,0.8616,0.8616,0.8616,0.8616,0.8616,0.8616,0.8616,0.8616,0.8616,0.8616,0.8616,0.8073,0.7265,0.6456,0.5917,0.5093,0.426,0.426,0.3449,0.6461,0.6461,0.6461,0.6461,0.6461,0.6477,0.6537,0.6594,0.6654,0.6714,0.6774,0.6818,0.6818,0.6918,0.6599,0.559,0.6367,0.6934,0.5875,0.6829,0.7581,0.7698,0.7714,0.8498,1.0144,1.2956,1.6347,2.037,2.2792,2.3413,2.1989,2.3048,2.3637,2.3229,2.2861,2.2421,2.2421,2.2061,2.1611,2.1611,2.1408,2.1441,2.1441,2.1441,2.0639,1.9563,1.9563,1.8234,1.6358,1.6358,1.583,1.5029,1.396,1.2899,1.1823,1.0751,0.9688,0.8616,0.8616,0.8616,0.8616,0.8616,0.8616,0.8616,0.8616,0.8616,0.8616,0.8616,0.8616,0.8616,0.8616,0.8616,0.8616,0.8616,0.8616,0.8616,0.8616,0.8616,0.8616,0.8616,0.8616,0.8616,0.8616,0.8616,0.8616,0.8616,0.8616,0.8616,0.8616,0.8616,0.8616,0.8616,0.8616,0.8616,0.8616,0.8616,0.8616,0.8616,0.8616,0.8616,0.8616,0.8616,0.8616,0.8616,0.8345,0.7536,0.6462,0.6191,0.5379,0.4292,0.4292,0.4017,0.6461,0.6461,0.6461,0.6461,0.6461,0.6482,0.6559,0.6608,0.666,0.6739,0.6788,0.6818,0.6818,0.6918,0.6594,0.5798,0.6582,0.7159,0.6092,0.6836,0.76,0.7698,0.7728,0.8775,1.1919,1.529,1.929,2.3552,2.3846,2.3434,2.2861,2.3016,2.3275,2.2876,2.2238,2.2061,2.2061,2.1645,2.1441,2.1441,2.1441,2.1441,2.1441,2.1441,2.0639,1.9038,1.9038,1.8234,1.6902,1.6902,1.6902,1.6902,1.6102,1.5029,1.3956,1.3425,1.1823,0.995,0.995,0.9416,0.8616,0.8616,0.8616,0.8616,0.8616,0.8616,0.8616,0.8616,0.8616,0.8616,0.8616,0.8616,0.8616,0.8616,0.8616,0.8616,0.8616,0.8616,0.8616,0.8616,0.8616,0.8616,0.8616,0.8616,0.8616,0.8616,0.8616,0.8616,0.8616,0.8616,0.8616,0.8616,0.8616,0.8616,0.8616,0.8616,0.8616,0.8616,0.8616,0.8616,0.8616,0.8616,0.8616,0.8616,0.8345,0.7804,0.6462,0.6193,0.5653,0.4309,0.4309,0.4309,0.6259,0.6461,0.6461,0.6461,0.6461,0.6493,0.6608,0.6635,0.667,0.6793,0.6818,0.6818,0.6818,0.6918,0.68,0.6195,0.6783,0.7146,0.6508,0.7079,0.7649,0.7706,0.7769,0.8824,1.1927,1.7096,2.142,2.356,2.3846,2.3207,2.2238,2.226,2.226,2.226,2.1624,2.1441,2.1441,2.1441,2.1441,2.1441,2.1441,2.1441,2.1441,2.1441,2.1441,2.1441,2.1441,2.1441,2.1435,2.1435,2.1435,2.1169,1.9032,1.8494,1.902,1.6886,1.4757,1.2886,1.2886,1.1023,0.8616,0.8616,0.8616,0.8616,0.8616,0.8616,0.8616,0.8616,0.8616,0.8616,0.8616,0.8616,0.8616,0.8616,0.8616,0.8616,0.8616,0.8616,0.8616,0.8616,0.8616,0.8616,0.8616,0.8616,0.8616,0.8616,0.8616,0.8616,0.8616,0.8616,0.8616,0.8616,0.8616,0.8616,0.8616,0.8616,0.8616,0.8616,0.8616,0.8616,0.8616,0.8616,0.8616,0.8616,0.7804,0.7265,0.6462,0.5653,0.5114,0.4309,0.4309,0.4309,0.6259,0.6461,0.6461,0.6461,0.6461,0.6493,0.6611,0.6635,0.667,0.6793,0.6818,0.6818,0.6818,0.6918,0.6594,0.5791,0.6582,0.7159,0.6088,0.6868,0.7649,0.7706,1.105,1.4691,1.7246,2.0608,2.2988,2.4002,2.3617,2.3255,2.3207,2.3222,2.268,2.1624,2.1937,2.2244,2.2244,2.2244,2.2244,2.2244,2.1714,2.1441,2.1441,2.1441,2.1441,2.1441,2.1441,2.1441,2.1441,2.1972,2.2244,2.2244,2.1972,2.1149,1.9823,1.9292,1.769,1.5815,1.5815,1.3956,1.1556,1.1556,1.0222,0.8616,0.8616,0.8616,0.8616,0.8616,0.8616,0.8616,0.8616,0.8616,0.8616,0.8616,0.8616,0.8616,0.8616,0.8616,0.8616,0.8616,0.8616,0.8616,0.8616,0.8616,0.8616,0.8616,0.8616,0.8616,0.8616,0.8616,0.8616,0.8616,0.8616,0.8616,0.8616,0.8616,0.8616,0.8616,0.8616,0.8616,0.8616,0.8616,0.8616,0.8616,0.8345,0.7804,0.6462,0.6193,0.5384,0.4309,0.4309,0.4309,0.6057,0.6259,0.6461,0.6461,0.6461,0.6493,0.6611,0.6635,0.667,0.6793,0.6818,0.6818,0.6818,0.6918,0.6594,0.5791,0.6582,0.7159,0.6088,0.6881,0.8175,0.9258,1.3397,1.7334,1.9903,2.2294,2.3924,2.4088,2.3486,2.3382,2.356,2.3289,2.2774,2.1965,2.223,2.2495,2.1972,2.1972,2.1972,2.1972,2.1714,2.1441,2.1441,2.1496,2.1496,2.17,2.1768,2.2027,0.0,2.2774,2.3024,2.3024,2.3289,2.3024,2.1951,2.1951,2.0606,1.8748,1.8748,1.6875,1.4218,1.3158,1.1023,0.8616,0.8616,0.8616,0.8616,0.8616,0.8616,0.8616,0.8616,0.8616,0.8616,0.8616,0.8616,0.8616,0.8616,0.8616,0.8616,0.8616,0.8616,0.8616,0.8616,0.8616,0.8616,0.8616,0.8616,0.8616,0.8616,0.8616,0.8616,0.8616,0.8616,0.8616,0.8616,0.8616,0.8616,0.8616,0.8616,0.8616,0.8616,0.8616,0.8616,0.8616,0.8616,0.8076,0.7,0.6462,0.5384,0.4309,0.4309,0.4309,0.0,0.6057,0.6461,0.6461,0.6461,0.6493,0.6611,0.6635,0.0,0.0,0.0,0.0,0.6823,0.0,0.68,0.6203,0.6791,0.7146,0.6515,0.7363,0.8989,1.1911,1.4757,1.7625,2.0532,2.2621,2.3924,2.4111,2.3746,2.3389,2.3545,2.3031,2.2502,2.2502,2.2502,2.2244,2.1441,2.1441,2.1441,2.1441,2.1455,2.1455,2.1441,2.1604,2.2111,2.2502,2.2651,2.3177,2.356,2.356,2.356,2.356,2.3832,2.4089,2.4617,2.4617,2.3538,2.1679,2.1679,1.9804,1.6875,1.3956,1.1023,0.8885,0.8616,0.8616,0.8616,0.8616,0.8616,0.8616,0.8616,0.8616,0.8616,0.8616,0.8616,0.8616,0.8616,0.8616,0.8616,0.8616,0.8616,0.8616,0.8616,0.8616,0.8616,0.8616,0.8616,0.8616,0.8616,0.8616,0.8616,0.8616,0.8616,0.8616,0.8616,0.8616,0.8616,0.8616,0.8616,0.8616,0.8616,0.8616,0.8616,0.8616,0.8616,0.8076,0.7536,0.6191,0.5114,0.4309,0.4309,0.4309,0.5853,0.0,0.6461,0.6461,0.6461,0.6493,0.0,0.6635,0.0,0.0,0.0,0.0,0.0,0.0,0.0,0.63,0.6842,0.7159,0.6563,0.9047,1.1878,1.4626,1.7488,2.0409,2.3221,2.3823,2.4377,2.5063,2.4724,2.4307,2.4345,2.4089,2.356,2.2502,2.3031,2.3031,2.223,2.223,2.223,2.2244,2.1823,2.1823,2.2244,2.2392,2.2918,2.3303,2.334,2.359,2.356,2.4089,2.4345,2.4345,2.4873,2.5417,2.5401,2.5401,2.5145,2.4602,2.4602,2.2738,1.9551,1.4486,1.2355,1.1552,0.9148,0.8616,0.8616,0.8616,0.8616,0.8616,0.8616,0.8616,0.8616,0.8616,0.8616,0.8616,0.8616,0.8616,0.8616,0.8616,0.8616,0.8616,0.8616,0.8616,0.8616,0.8616,0.8616,0.8616,0.8616,0.8616,0.8616,0.8616,0.8616,0.8616,0.8616,0.8616,0.8616,0.8616,0.8616,0.8616,0.8616,0.8616,0.8616,0.8616,0.8076,0.7536,0.6731,0.5922,0.5114,0.4309,0.4309,0.4309,0.6057,0.6259,0.6461,0.6461,0.6461,0.6493,0.6611,0.0,0.0,0.0,0.0,0.0,0.0,0.0,0.6456,0.6343,0.6651,0.698,0.7118,1.0793,1.4118,1.5934,1.8517,2.1477,2.4412,2.4453,2.444,2.538,2.4771,2.4625,2.5145,2.4889,2.4361,2.3553,2.356,2.3303,2.2502,2.2759,2.3068,2.3141,2.2616,2.2882,2.3141,2.3221,2.3443,2.4089,2.4165,2.4423,2.4617,2.4873,2.5145,2.5145,2.5672,2.568,2.568,2.568,2.568,2.568,2.568,2.3817,2.0878,1.7679,1.5015,1.2615,1.1023,0.9688,0.8616,0.8616,0.8616,0.8616,0.8616,0.8616,0.8616,0.8616,0.8616,0.8616,0.8616,0.8616,0.8616,0.8616,0.8616,0.8616,0.8616,0.8616,0.8616,0.8616,0.8616,0.8616,0.8616,0.8616,0.8616,0.8616,0.8616,0.8616,0.8616,0.8616,0.8616,0.8616,0.8616,0.8616,0.8616,0.8616,0.8616,0.8616,0.8076,0.7536,0.6462,0.6191,0.5383,0.4309,0.4309,0.4309,0.6461,0.6461,0.6461,0.6461,0.6469,0.6504,0.6611,0.0,0.0,0.0,0.0,0.0,0.0,0.6632,0.6305,0.6372,0.6472,0.6824,0.7692,1.2344,1.5684,1.6275,1.886,2.1822,2.4605,2.4564,2.4723,2.542,2.5065,2.4873,2.5409,2.4873,2.4617,2.4345,2.4104,2.3598,2.2795,2.3325,2.3657,2.3754,2.368,2.368,2.4028,2.4043,2.4249,2.4889,2.4765,2.5272,2.568,2.568,2.568,2.568,2.568,2.568,2.568,2.568,2.568,2.568,2.568,2.4066,2.1937,2.1149,1.7418,1.3417,1.2623,1.0483,0.8616,0.8616,0.8616,0.8616,0.8616,0.8616,0.8616,0.8616,0.8616,0.8616,0.8616,0.8616,0.8616,0.8616,0.8616,0.8616,0.8616,0.8616,0.8616,0.8616,0.8616,0.8616,0.8616,0.8616,0.8616,0.8616,0.8616,0.8616,0.8616,0.8616,0.8616,0.8616,0.8616,0.8616,0.8616,0.8616,0.8616,0.8616,0.8616,0.7804,0.6462,0.6462,0.5653,0.4309,0.4309,0.4309,0.6461,0.6461,0.6461,0.6461,0.6499,0.6556,0.6621,0.6676,0.6747,0.0,0.0,0.0,0.0,0.6711,0.7003,0.6465,0.7051,0.7392,0.7698,1.2413,1.6032,1.6286,2.0797,2.4151,2.5055,2.5266,2.5437,2.5615,2.5656,2.5417,2.4889,2.4617,2.4361,2.3832,2.4476,2.4569,2.4561,2.4028,2.3695,2.3598,2.3851,2.4111,2.4384,2.4523,2.5031,2.5409,2.5449,2.5697,2.568,2.568,2.568,2.568,2.568,2.568,2.568,2.568,2.568,2.568,2.568,2.5401,2.4338,1.9279,1.7147,1.5548,1.0751,0.8885,0.8616,0.8616,0.8616,0.8616,0.8616,0.8616,0.8616,0.8616,0.8616,0.8616,0.8616,0.8616,0.8616,0.8616,0.8616,0.8616,0.8616,0.8616,0.8616,0.8616,0.8616,0.8616,0.8616,0.8616,0.8616,0.8616,0.8616,0.8616,0.8616,0.8616,0.8616,0.8616,0.8616,0.8616,0.8616,0.8616,0.8616,0.8616,0.8616,0.7804,0.6462,0.6462,0.5653,0.4309,0.4309,0.4309,0.6461,0.6461,0.6469,0.6502,0.6531,0.6575,0.6665,0.6733,0.0,0.0,0.0,0.0,0.6269,0.6348,0.6453,0.6582,0.8326,0.9847,0.992,1.4689,1.8089,1.8293,2.2095,2.4738,2.5104,2.529,2.5485,2.5656,2.568,2.5672,2.5153,2.5153,2.5145,2.4625,2.5312,2.536,2.5256,2.518,2.4968,2.489,2.4866,2.5078,2.5272,2.5272,2.5481,2.568,2.568,2.568,2.568,2.5153,2.5145,2.5145,2.4625,2.4889,2.5145,2.5672,2.568,2.568,2.568,2.568,2.5153,2.2731,2.0606,1.8742,1.4486,1.2084,1.0483,0.9148,0.8616,0.8616,0.8616,0.8616,0.8616,0.8616,0.8616,0.8616,0.8616,0.8616,0.8616,0.8616,0.8616,0.8616,0.8616,0.8616,0.8616,0.8616,0.8616,0.8616,0.8616,0.8616,0.8616,0.8616,0.8616,0.8616,0.8616,0.8616,0.8616,0.8616,0.8616,0.8616,0.8616,0.8616,0.8616,0.8616,0.8616,0.7804,0.6462,0.6462,0.5653,0.4309,0.4309,0.4309,0.6461,0.6461,0.648,0.6553,0.6572,0.6602,0.6722,0.0,0.0,0.0,0.0,0.0,0.6103,0.5986,0.6099,0.6898,0.9106,1.0866,1.1686,1.6032,1.9449,2.0105,2.2954,2.4828,2.512,2.5339,2.5526,2.5656,2.568,2.568,2.568,2.568,2.5697,2.5737,2.5867,2.5891,2.5802,2.6038,2.6119,2.6078,2.5851,2.5786,2.5867,2.5737,2.568,2.568,2.5409,2.5672,2.5672,2.4625,2.4345,2.4617,2.3817,2.4089,2.4617,2.5153,2.5672,2.568,2.568,2.568,2.5672,2.4873,2.3266,2.0878,1.7945,1.5019,1.2355,1.0222,0.9148,0.8616,0.8616,0.8616,0.8616,0.8616,0.8616,0.8616,0.8616,0.8616,0.8616,0.8616,0.8616,0.8616,0.8616,0.8616,0.8616,0.8616,0.8616,0.8616,0.8616,0.8616,0.8616,0.8616,0.8616,0.8616,0.8616,0.8616,0.8616,0.8616,0.8616,0.8616,0.8616,0.8616,0.8616,0.8616,0.8616,0.8076,0.6731,0.6462,0.5922,0.4578,0.4309,0.4309,0.6461,0.6461,0.6488,0.6602,0.663,0.0,0.6782,0.0,0.0,0.0,0.0,0.0,0.0,0.6081,0.6841,0.7376,0.7679,0.8955,1.1527,1.4661,1.7352,2.0004,2.3228,2.512,2.5144,2.5461,2.5656,2.568,2.568,2.568,2.568,2.568,2.5745,2.5908,2.5932,2.6013,2.6168,2.6013,2.5867,2.5721,2.5843,2.5843,2.5697,2.568,2.568,2.5672,2.4873,2.5145,2.5672,2.4361,2.4089,2.4617,2.3817,2.4089,2.4617,2.4617,2.5145,2.568,2.568,2.568,2.5153,2.2466,2.1679,2.0878,1.7945,1.5019,1.2886,1.2615,1.0751,0.8616,0.8616,0.8616,0.8616,0.8616,0.8616,0.8616,0.8616,0.8616,0.8616,0.8616,0.8616,0.8616,0.8616,0.8616,0.8616,0.8616,0.8616,0.8616,0.8616,0.8616,0.8616,0.8616,0.8616,0.8616,0.8616,0.8616,0.8616,0.8616,0.8616,0.8616,0.8616,0.8616,0.8616,0.8616,0.8616,0.8345,0.7536,0.6731,0.6191,0.5383,0.4578,0.4309,0.6461,0.6491,0.6545,0.6662,0.0,0.0,0.0,0.0,0.0,0.0,0.0,0.0,0.0,0.637,0.6898,0.767,0.7733,0.9264,1.3825,1.5476,1.7893,2.2413,2.4349,2.5185,2.529,2.5526,2.568,2.568,2.568,2.568,2.568,2.568,2.5697,2.5761,2.5867,2.5908,2.5867,2.5908,2.5843,2.568,2.5737,2.5737,2.568,2.5153,2.5145,2.4873,2.4361,2.4089,2.4361,2.3289,2.3031,2.3303,2.3031,2.3031,2.3289,2.4361,2.4889,2.5145,2.5672,2.568,2.5409,2.4345,2.4066,2.3538,2.0606,1.9002,1.7679,1.6086,1.3417,1.0751,0.9148,0.8616,0.8616,0.8616,0.8616,0.8616,0.8616,0.8616,0.8616,0.8616,0.8616,0.8616,0.8616,0.8616,0.8616,0.8616,0.8616,0.8616,0.8616,0.8616,0.8616,0.8616,0.8616,0.8616,0.8616,0.8616,0.8616,0.8616,0.8616,0.8616,0.8616,0.8616,0.8616,0.8616,0.8616,0.8345,0.7536,0.6731,0.6191,0.5383,0.4578,0.4309,0.6485,0.6521,0.6586,0.6722,0.0,0.0,0.0,0.0,0.0,0.0,0.5997,0.0,0.661,0.6886,0.7176,0.7728,0.8516,1.0801,1.5418,1.6801,1.9232,2.4127,2.4949,2.5209,2.538,2.5575,2.568,2.568,2.568,2.568,2.568,2.568,2.5697,2.5761,2.5826,2.5826,2.5761,2.5826,2.5786,2.568,2.5401,2.5417,2.5417,2.4617,2.4361,2.4361,2.356,2.3289,2.356,2.2502,2.2244,2.2244,2.2244,2.223,2.2502,2.356,2.4097,2.4617,2.5145,2.5409,2.568,2.568,2.568,2.5417,2.3266,2.2202,2.0878,1.9002,1.5815,1.2355,1.0483,0.9148,0.8616,0.8616,0.8616,0.8616,0.8616,0.8616,0.8616,0.8616,0.8616,0.8616,0.8616,0.8616,0.8616,0.8616,0.8616,0.8616,0.8616,0.8616,0.8616,0.8616,0.8616,0.8616,0.8616,0.8616,0.8616,0.8616,0.8616,0.8616,0.8616,0.8616,0.8616,0.8616,0.8616,0.8345,0.7804,0.7,0.6193,0.5653,0.4848,0.4309,0.6534,0.6553,0.6597,0.6774,0.6867,0.0,0.0,0.0,0.0,0.5792,0.6092,0.6613,0.666,0.7151,0.767,0.7782,1.0046,1.3101,1.5783,1.868,2.1413,2.4581,2.5039,2.5209,2.538,2.5575,2.568,2.568,2.568,2.568,2.568,2.568,2.5761,2.5932,2.5761,2.5761,2.5932,2.5761,2.568,2.568,2.4873,2.4617,2.4617,2.3817,2.356,2.356,2.2759,2.3024,2.3553,2.1972,2.1441,2.1441,2.1441,2.1965,2.2502,2.2502,2.3289,2.4617,2.4617,2.5145,2.568,2.568,2.568,2.568,2.568,2.381,2.1408,2.1408,1.7418,1.2886,1.2886,1.0751,0.8616,0.8616,0.8616,0.8616,0.8616,0.8616,0.8616,0.8616,0.8616,0.8616,0.8616,0.8616,0.8616,0.8616,0.8616,0.8616,0.8616,0.8616,0.8616,0.8616,0.8616,0.8616,0.8616,0.8616,0.8616,0.8616,0.8616,0.8616,0.8616,0.8616,0.8616,0.8616,0.8616,0.8616,0.8616,0.7271,0.6462,0.6462,0.5118,0.4309,0.6534,0.6613,0.0,0.6848,0.6553,0.0,0.0,0.6391,0.0,0.0,0.661,0.6893,0.7151,0.7458,0.7763,0.7796,1.0091,1.2934,1.5794,1.868,2.1448,2.4749,2.5104,2.5274,2.5575,2.5632,2.568,2.568,2.568,2.568,2.568,2.568,2.5697,2.5745,2.5697,2.5697,2.5761,2.5169,2.4873,2.4873,2.3825,2.356,2.4617,2.3289,2.2759,2.2759,2.1972,2.1965,2.1972,2.1714,2.1441,2.1441,2.1441,2.1441,2.17,2.223,2.2752,2.3303,2.4361,2.4625,2.5145,2.5409,2.568,2.568,2.568,2.5145,2.4345,2.4345,2.1679,1.847,1.6348,1.3689,1.1016,0.9148,0.8616,0.8616,0.8616,0.8616,0.8616,0.8616,0.8616,0.8616,0.8616,0.8616,0.8616,0.8616,0.8616,0.8616,0.8616,0.8616,0.8616,0.8616,0.8616,0.8616,0.8616,0.8616,0.8616,0.8616,0.8616,0.8616,0.8616,0.8616,0.8616,0.8616,0.8616,0.8616,0.8616,0.7271,0.6462,0.6462,0.5118,0.4309,0.657,0.6673,0.0,0.651,0.664,0.6537,0.6671,0.0,0.0,0.0,0.7125,0.7164,0.7692,0.7755,0.8064,0.9332,1.1898,1.4757,1.7369,2.0275,2.2815,2.4838,2.5144,2.529,2.5632,2.568,2.568,2.568,2.568,2.568,2.568,2.568,2.568,2.568,2.568,2.568,2.568,2.4873,2.4617,2.4617,2.3296,2.3024,2.3832,2.2502,2.1972,2.1972,2.1714,2.1441,2.1441,2.1441,2.1441,2.1441,2.1441,2.1441,2.1441,2.1972,2.2495,2.3031,2.3817,2.4617,2.5145,2.5672,2.568,2.568,2.568,2.568,2.568,2.568,2.3545,2.0606,1.7945,1.5015,1.2087,0.9416,0.8616,0.8616,0.8616,0.8616,0.8616,0.8616,0.8616,0.8616,0.8616,0.8616,0.8616,0.8616,0.8616,0.8616,0.8616,0.8616,0.8616,0.8616,0.8616,0.8616,0.8616,0.8616,0.8616,0.8616,0.8616,0.8616,0.8616,0.8616,0.8616,0.8616,0.8616,0.8616,0.8616,0.7271,0.6462,0.6462,0.5118,0.4309,0.6627,0.6733,0.6655,0.6387,0.6699,0.0,0.7646,0.7267,0.6849,0.7376,0.7868,0.7913,0.7782,0.7809,0.882,1.1667,1.4503,1.7114,2.0004,2.2717,2.4738,2.5104,2.5169,2.529,2.5632,2.568,2.568,2.568,2.568,2.568,2.568,2.568,2.568,2.5672,2.5672,2.5672,2.5409,2.4889,2.4345,2.4345,2.3031,2.2495,2.2495,2.17,2.1441,2.1441,2.1441,2.1441,2.1441,2.1441,2.1441,2.1441,2.1441,2.1441,2.1441,2.1441,2.223,2.3289,2.356,2.4345,2.5409,2.5672,2.568,2.568,2.568,2.568,2.568,2.568,2.3817,2.1136,1.8205,1.5548,1.2886,0.9682,0.8879,0.8885,0.8616,0.8885,0.8885,0.8616,0.8616,0.8616,0.8616,0.8616,0.8616,0.8616,0.8616,0.8616,0.8616,0.8616,0.8616,0.8616,0.8616,0.8616,0.8616,0.8616,0.8616,0.8616,0.8616,0.8616,0.8616,0.8616,0.8616,0.8616,0.8616,0.8616,0.8616,0.7271,0.6462,0.6462,0.5118,0.4309,0.6679,0.6796,0.6921,0.6835,0.7011,0.7868,0.9352,0.8499,0.7376,0.763,0.9093,1.0108,0.8033,0.7845,0.8876,1.1679,1.4503,1.7114,2.0004,2.3068,2.4892,2.512,2.5274,2.5445,2.5656,2.568,2.568,2.568,2.568,2.568,2.568,2.568,2.5401,2.4889,2.5425,2.5145,2.4089,2.3817,2.356,2.3024,2.1972,2.1714,2.1714,2.1441,2.1441,2.1441,2.1441,2.1441,2.1441,2.1441,2.1441,2.1441,2.1441,2.1441,2.1441,2.1441,2.1714,2.1972,2.3303,2.3832,2.4361,2.5417,2.568,2.568,2.568,2.568,2.568,2.568,2.5153,2.4066,2.1136,2.0076,1.8205,1.3158,1.2084,1.1284,0.9148,1.049,1.1284,0.9148,0.8616,0.8616,0.8616,0.8616,0.8616,0.8616,0.8616,0.8616,0.8616,0.8616,0.8616,0.8616,0.8616,0.8616,0.8616,0.8616,0.8616,0.8616,0.8616,0.8616,0.8616,0.8616,0.8616,0.8616,0.8616,0.8616,0.8616,0.7271,0.6462,0.6462,0.5118,0.4309,0.6711,0.6837,0.6992,0.7175,0.781,0.8422,0.8925,1.0169,1.0476,0.8137,0.8673,0.9225,0.8078,0.7894,0.9191,1.348,1.5327,1.7702,2.1887,2.3921,2.4933,2.512,2.529,2.5461,2.5656,2.568,2.568,2.568,2.568,2.5672,2.5153,2.5409,2.5153,2.4089,2.4889,2.4617,2.356,2.3303,2.2759,2.2502,2.17,2.1441,2.1441,2.1441,2.1441,2.1441,2.1441,2.1441,2.1441,2.1441,2.1441,2.1441,2.1441,2.1441,2.1441,2.1441,2.1714,2.1972,2.3303,2.3832,2.4361,2.5417,2.568,2.568,2.568,2.568,2.568,2.568,2.568,2.5145,2.2209,2.1408,2.0347,1.582,1.5015,1.4214,1.1284,1.2886,1.4486,1.2886,1.1556,1.0751,1.0751,0.9419,0.8616,0.8616,0.8616,0.8616,0.8616,0.8616,0.8616,0.8616,0.8616,0.8616,0.8616,0.8616,0.8616,0.8616,0.8616,0.8616,0.8616,0.8616,0.8616,0.8616,0.8616,0.8616,0.8616,0.7271,0.6462,0.6462,0.5118,0.4309,0.6739,0.6883,0.7085,0.73,0.8132,0.8931,0.8248,1.1131,1.2874,0.9157,0.8493,0.8308,0.788,0.8441,1.0234,1.5301,1.6675,1.8812,2.3803,2.4787,2.4974,2.512,2.5315,2.551,2.5656,2.568,2.568,2.568,2.5672,2.5153,2.4617,2.5145,2.4625,2.3553,2.4089,2.4089,2.3303,2.2774,2.2495,2.223,2.17,2.1441,2.1441,2.1441,2.1441,2.1441,2.1441,2.1441,2.1441,2.1441,2.1441,2.1441,2.1441,2.1441,2.1441,2.1441,2.17,2.2495,2.3031,2.3817,2.4617,2.5153,2.5672,2.568,2.568,2.568,2.568,2.568,2.568,2.5145,2.2738,2.2209,2.1408,1.8476,1.8205,1.7673,1.4218,1.582,1.7673,1.7147,1.4748,1.2886,1.2886,1.0483,0.8616,0.8616,0.8616,0.8616,0.8616,0.8616,0.8616,0.8616,0.8616,0.8616,0.8616,0.8616,0.8616,0.8616,0.8616,0.8616,0.8616,0.8616,0.8616,0.8616,0.8616,0.8616,0.8616,0.7271,0.6462,0.6462,0.5118,0.4309,0.679,0.6976,0.7183,0.7322,0.7679,0.8254,1.0427,0.9795,0.9157,1.0678,1.0943,1.0491,0.8375,0.9914,1.2464,1.5794,1.8167,2.0839,2.4047,2.4892,2.512,2.5144,2.5445,2.5656,2.568,2.568,2.568,2.568,2.5145,2.4617,2.4617,2.4089,2.356,2.2774,2.3289,2.3031,2.17,2.223,2.2244,2.1441,2.1441,2.1441,2.1441,2.1441,2.1441,2.1441,2.1441,2.1441,2.1441,2.1441,2.1441,2.1441,2.1441,2.1441,2.1441,2.1441,2.1441,2.1714,2.2495,2.3031,2.3832,2.4617,2.5145,2.568,2.568,2.568,2.568,2.568,2.568,2.5672,2.5153,2.5145,2.4345,2.1408,2.2738,2.3009,1.7673,1.8748,2.0076,1.7673,1.4748,1.2886,1.2886,1.0483,0.8616,0.8616,0.8616,0.8616,0.8616,0.8616,0.8616,0.8616,0.8616,0.8616,0.8616,0.8616,0.8616,0.8616,0.8616,0.8616,0.8616,0.8616,0.8616,0.8616,0.8616,0.8616,0.8616,0.7271,0.6462,0.6462,0.5118,0.4309,0.6894,0.6827,0.6757,0.7327,0.9291,1.0825,0.9502,1.0524,1.1331,0.973,0.9534,0.9587,1.0144,1.1218,1.354,1.7911,1.9554,2.1441,2.4323,2.4909,2.5144,2.5144,2.5461,2.568,2.568,2.568,2.5409,2.5145,2.4889,2.4361,2.3553,2.356,2.3031,2.1972,2.2502,2.2502,2.1441,2.17,2.17,2.1441,2.1441,2.1441,2.1441,2.1441,2.1441,2.1441,2.1441,2.1441,2.1441,2.1441,2.1441,2.1441,2.1441,2.1441,2.1441,2.1441,2.1441,2.1441,2.223,2.3031,2.3832,2.4345,2.5145,2.568,2.568,2.568,2.568,2.568,2.568,2.568,2.568,2.568,2.5401,2.4066,2.4865,2.5145,2.248,2.3009,2.3009,2.0076,1.8476,1.6619,1.3417,1.1816,1.0483,0.8885,0.8616,0.8616,0.8616,0.8616,0.8616,0.8616,0.8616,0.8616,0.8616,0.8616,0.8616,0.8616,0.8616,0.8616,0.8616,0.8616,0.8616,0.8616,0.8616,0.8616,0.8616,0.7536,0.6996,0.6996,0.5653,0.4845,0.697,0.6653,0.6324,0.7099,1.0217,1.2222,0.8563,1.1005,1.2998,0.8759,0.8337,0.964,1.2704,1.3272,1.4857,1.9509,2.1161,2.2301,2.4388,2.4933,2.5169,2.5209,2.5485,2.568,2.568,2.568,2.5425,2.4617,2.4345,2.3832,2.2502,2.2759,2.2502,2.1441,2.1972,2.1972,2.1441,2.1441,2.1441,2.1441,2.1441,2.1441,2.1441,2.1441,2.1441,2.1441,2.1441,2.1441,2.1441,2.1441,2.1441,2.1441,2.1441,2.1441,2.1441,2.1441,2.1441,2.1441,2.1972,2.2759,2.356,2.4089,2.4873,2.568,2.568,2.568,2.568,2.568,2.568,2.568,2.568,2.568,2.568,2.568,2.568,2.568,2.568,2.568,2.5145,2.3009,2.193,2.0076,1.5815,1.3956,1.2087,0.995,0.9148,0.8616,0.8616,0.8616,0.8616,0.8616,0.8616,0.8616,0.8616,0.8616,0.8616,0.8616,0.8616,0.8616,0.8616,0.8616,0.8616,0.8616,0.8616,0.8616,0.8616,0.7804,0.7536,0.7536,0.5922,0.5384,0.6981,0.6686,0.6367,0.7112,0.9056,0.9886,0.8085,0.9573,1.0843,0.8271,0.9798,1.26,1.5513,1.6065,1.6858,1.9997,2.2694,2.4396,2.4828,2.5014,2.5209,2.5355,2.555,2.568,2.568,2.568,2.5425,2.4617,2.4089,2.3303,2.2502,2.1965,2.1441,2.1441,2.1441,2.1441,2.1441,2.1441,2.1441,2.1441,2.1441,2.1441,2.1441,2.1441,2.1441,2.1441,2.1441,2.1441,2.1441,2.1441,2.1441,2.1441,2.1441,2.1441,2.1441,2.1441,2.1441,2.1441,2.1441,2.2495,2.356,2.356,2.4617,2.568,2.568,2.568,2.568,2.568,2.568,2.568,2.568,2.568,2.568,2.568,2.568,2.568,2.568,2.568,2.5672,2.5409,2.3266,2.1401,2.0884,1.6348,1.2886,1.2615,1.0222,0.8616,0.8616,0.8616,0.8616,0.8616,0.8616,0.8616,0.8616,0.8616,0.8616,0.8616,0.8616,0.8616,0.8616,0.8616,0.8616,0.8616,0.8616,0.8616,0.8616,0.7804,0.7536,0.7536,0.5922,0.5384,0.7027,0.6908,0.7003,0.7327,0.9257,1.0292,0.8077,0.958,1.0603,0.8279,1.0042,1.2604,1.5778,1.7565,1.9641,2.2672,2.4039,2.4657,2.4852,2.5039,2.5209,2.538,2.5575,2.568,2.568,2.5153,2.4625,2.4089,2.3303,2.2502,2.17,2.1441,2.1441,2.1441,2.1441,2.1441,2.1441,2.1441,2.1441,2.1441,2.1441,2.1441,2.1441,2.1441,2.1441,2.1441,2.1441,2.1441,2.1441,2.1441,2.1441,2.1441,2.1441,2.1441,2.1441,2.1441,2.1441,2.1441,2.1441,2.1972,2.3024,2.3553,2.4361,2.5145,2.5672,2.568,2.568,2.568,2.568,2.568,2.568,2.568,2.568,2.568,2.568,2.568,2.568,2.568,2.568,2.568,2.4873,2.3538,2.1679,1.9804,1.7673,1.582,1.3158,1.1284,1.1284,0.9682,0.8616,0.8616,0.8616,0.8616,0.8616,0.8616,0.8616,0.8616,0.8616,0.8616,0.8616,0.8616,0.8616,0.8616,0.8616,0.8616,0.8616,0.8345,0.8076,0.8076,0.7265,0.6727,0.7068,0.6922,0.7003,0.7327,0.9236,1.0255,0.8048,0.9563,1.1075,0.9451,1.1236,1.4075,1.7021,1.9809,2.2181,2.4283,2.4592,2.4681,2.4933,2.5063,2.5225,2.5461,2.5591,2.568,2.568,2.5145,2.4361,2.356,2.3024,2.2244,2.1441,2.1441,2.1441,2.1441,2.1441,2.1441,2.1441,2.1441,2.1441,2.1441,2.1441,2.1441,2.1441,2.1441,2.1441,2.1441,2.1441,2.1441,2.1441,2.1441,2.1441,2.1441,2.1441,2.1441,2.1441,2.1441,2.1441,2.1441,2.1441,2.1965,2.2502,2.3031,2.3817,2.4617,2.5145,2.5409,2.568,2.568,2.568,2.568,2.568,2.568,2.568,2.568,2.568,2.568,2.568,2.568,2.568,2.568,2.568,2.5145,2.3281,2.1937,2.0871,1.8748,1.6076,1.3947,1.2886,1.1284,0.9688,0.8616,0.8616,0.8616,0.8616,0.8616,0.8616,0.8616,0.8616,0.8616,0.8616,0.8616,0.8616,0.8616,0.8616,0.8616,0.8616,0.8616,0.8616,0.8616,0.7804,0.7265,0.0,0.0,0.0,0.7112,0.8776,0.9768,0.799,0.9519,1.1539,1.1783,1.3862,1.6767,1.9756,2.2317,2.417,2.4527,2.4592,2.4722,2.5079,2.5144,2.5274,2.5632,2.568,2.568,2.568,2.5145,2.4361,2.356,2.3024,2.2244,2.1441,2.1441,2.1441,2.1441,2.1441,2.1441,2.1441,2.1441,2.1441,2.1441,2.1441,2.1441,2.1441,2.1441,2.1441,2.1441,2.1441,2.1441,2.1441,2.1441,2.1441,2.1441,2.1441,2.1441,2.1441,2.1441,2.1441,2.1441,2.1441,2.1965,2.2502,2.2502,2.3553,2.4617,2.4617,2.5145,2.568,2.568,2.568,2.568,2.568,2.568,2.568,2.568,2.568,2.568,2.568,2.568,2.568,2.568,2.568,2.568,2.568,2.3266,2.1408,2.1408,1.9008,1.6342,1.3417,1.3154,1.1816,0.9148,0.8616,0.8616,0.8616,0.8616,0.8616,0.8616,0.8616,0.8616,0.8616,0.8616,0.8616,0.8616,0.8616,0.8616,0.8616,0.8616,0.8616,0.8616,0.7804,0.6727,0.7139,0.0,0.0,0.0,0.0,0.0,1.015,1.0935,1.1971,1.4351,1.6559,1.8856,1.9997,2.2317,2.4145,2.4381,2.4511,2.4681,2.4909,2.5063,2.5225,2.5445,2.5591,2.568,2.568,2.4617,2.3832,2.356,2.2495,2.1714,2.1441,2.1441,2.1441,2.1441,2.1441,2.1441,2.1441,2.1441,2.1441,2.1441,2.1441,2.1441,2.1441,2.1441,2.1441,2.1441,2.1441,2.1441,2.1441,2.1441,2.1441,2.1441,2.1441,2.1441,2.1441,2.1441,2.1441,2.1441,2.1441,2.1441,2.1965,2.3024,2.356,2.4089,2.5145,2.5672,2.568,2.568,2.568,2.568,2.568,2.568,2.568,2.568,2.568,2.568,2.568,2.568,2.568,2.568,2.568,2.568,2.568,2.5145,2.4617,2.4617,2.1937,1.9804,1.9273,1.7147,1.4748,1.2084,1.1823,1.0755,0.8885,0.8616,0.8616,0.8616,0.8616,0.8616,0.8616,0.8616,0.8616,0.8616,0.8616,0.8616,0.8616,0.8616,0.8616,0.8616,0.8345,0.7536,0.0,0.0,0.0,0.7099,0.0,0.0,0.9185,1.0438,1.2157,1.4971,1.773,1.9805,2.1319,2.2966,2.4129,2.4316,2.4421,2.4568,2.4828,2.5039,2.5209,2.538,2.5575,2.568,2.568,2.4617,2.3817,2.356,2.2502,2.17,2.1441,2.1496,2.1509,2.1441,2.1441,2.1441,2.1441,2.1441,2.1441,2.1441,2.1441,2.1441,2.1441,2.1441,2.1441,2.1441,2.1441,2.1441,2.1441,2.1441,2.1441,2.1441,2.1441,2.1441,2.1441,2.1441,2.1441,2.1441,2.1441,2.1441,2.1714,2.2774,2.3289,2.3832,2.4873,2.5401,2.568,2.568,2.568,2.568,2.568,2.568,2.568,2.568,2.568,2.568,2.568,2.568,2.568,2.568,2.568,2.568,2.568,2.568,2.568,2.568,2.4338,2.2738,2.1672,1.9804,1.7679,1.5015,1.4743,1.3417,1.0751,1.048,0.995,0.8616,0.8616,0.8616,0.8616,0.8616,0.8616,0.8616,0.8616,0.8616,0.8616,0.8616,0.8616,0.8616,0.8616,0.8076,0.0,0.0,0.0,0.0,0.6901,0.0,0.7281,0.9458,1.2337,1.5206,1.7845,2.0302,2.3045,2.3804,2.4064,2.4275,2.4316,2.4421,2.4787,2.4998,2.5169,2.5315,2.5526,2.5656,2.5656,2.5145,2.4361,2.356,2.2759,2.1972,2.1441,2.1564,2.1584,2.1441,2.1441,2.1441,2.1441,2.1441,2.1441,2.1441,2.1441,2.1441,2.1441,2.1441,2.1441,2.1441,2.1441,2.1441,2.1441,2.1441,2.1441,2.1441,2.1441,2.1441,2.1441,2.1441,2.1441,2.1441,2.1441,2.1441,2.1441,2.223,2.3031,2.3832,2.4609,2.5145,2.568,2.568,2.568,2.568,2.568,2.568,2.568,2.568,2.568,2.568,2.568,2.568,2.568,2.568,2.568,2.568,2.568,2.568,2.568,2.568,2.568,2.4865,2.2209,2.193,2.0878,1.7945,1.7673,1.6348,1.3684,1.3417,1.2355,0.9682,0.9419,0.9419,0.9148,0.9148,0.8885,0.8616,0.8616,0.8616,0.8616,0.8616,0.8616,0.8616,0.8616,0.8076,0.0,0.0,0.0,0.0,0.6929,0.0,0.9926,1.0864,1.2768,1.7556,1.8959,1.9958,2.3148,2.3682,2.3739,2.4064,2.4129,2.4235,2.4592,2.4803,2.4933,2.4974,2.525,2.5461,2.5461,2.5057,2.4361,2.356,2.2495,2.1441,2.1441,2.1475,2.1475,2.1441,2.1441,2.1441,2.1441,2.1441,2.1441,2.1441,2.1441,2.1441,2.1441,2.1441,2.1441,2.1441,2.1441,2.1441,2.1441,2.1441,2.1441,2.1441,2.1441,2.1441,2.1441,2.1441,2.1441,2.1441,2.1441,2.1441,2.1714,2.3024,2.3553,2.3832,2.5145,2.5672,2.568,2.568,2.568,2.568,2.568,2.568,2.568,2.568,2.568,2.568,2.568,2.568,2.568,2.568,2.568,2.568,2.568,2.568,2.568,2.568,2.568,2.5409,2.4873,2.4873,2.381,2.0878,2.0606,1.9279,1.6614,1.6342,1.6086,1.5543,1.5543,1.4486,1.2084,1.2084,1.1023,0.8616,0.8616,0.8616,0.8616,0.8616,0.8616,0.8616,0.8616,0.8076,0.0,0.0,0.0,0.6465,0.6728,0.0,0.0,1.0136,1.2483,1.6502,1.8398,2.0103,2.2862,2.3552,2.3699,2.3788,2.3959,2.4129,2.43,2.4551,2.4763,2.4852,2.5104,2.5315,2.5396,2.4692,2.399,2.3031,2.2048,2.155,2.155,2.155,2.155,2.155,2.1475,2.1441,2.1441,2.1441,2.1441,2.1441,2.1441,2.1441,2.1441,2.1441,2.1441,2.1441,2.1441,2.1441,2.1441,2.1441,2.1441,2.1441,2.1441,2.1441,2.1441,2.1441,2.1441,2.1441,2.1441,2.1441,2.1714,2.3031,2.356,2.3817,2.5153,2.568,2.568,2.568,2.568,2.568,2.568,2.568,2.568,2.568,2.568,2.568,2.568,2.568,2.568,2.568,2.568,2.568,2.568,2.568,2.568,2.568,2.568,2.568,2.568,2.568,2.5145,2.381,2.3538,2.248,1.9545,1.9273,1.8742,1.7147,1.7147,1.5815,1.2886,1.2886,1.1556,0.8616,0.8616,0.8616,0.8616,0.8616,0.8616,0.8616,0.8616,0.8345,0.8043,0.7595,0.7615,0.6276,0.6987,0.771,0.0,0.0,0.0,1.4686,1.7364,2.0067,2.2552,2.3341,2.3569,2.3487,2.3739,2.3959,2.3959,2.4275,2.4568,2.45,2.4949,2.5144,2.5023,2.4582,2.3636,2.2488,2.209,2.1618,2.1618,2.1618,2.1618,2.1618,2.1509,2.1441,2.1441,2.1441,2.1441,2.1441,2.1441,2.1441,2.1441,2.1441,2.1441,2.1441,2.1441,2.1441,2.1441,2.1441,2.1441,2.1441,2.1441,2.1441,2.1441,2.1441,2.1441,2.1441,2.1441,2.1441,2.1714,2.3024,2.356,2.4089,2.5417,2.568,2.568,2.568,2.568,2.568,2.568,2.568,2.568,2.568,2.568,2.568,2.568,2.568,2.568,2.568,2.568,2.568,2.568,2.568,2.568,2.568,2.568,2.568,2.568,2.568,2.568,2.568,2.568,2.4865,2.248,2.2209,2.1136,1.9002,1.8748,1.7407,1.4757,1.3417,1.1823,0.9419,0.8885,0.8616,0.8616,0.8616,0.8616,0.8616,0.8616,0.8616,1.1237,1.0139,0.9505,0.7674,0.8646,0.9624,0.7766,0.0,1.2001,1.4686,0.0,1.9613,2.2655,0.0,0.0,2.3236,2.3463,2.3593,2.3593,2.3894,2.3954,2.3614,2.4452,2.4645,2.4149,2.3655,2.3112,2.248,2.172,2.1455,2.1455,2.1455,2.1455,2.1455,2.1455,2.1441,2.1441,2.1441,2.1441,2.1441,2.1441,2.1441,2.1441,2.1441,2.1441,2.1441,2.1441,2.1441,2.1441,2.1441,2.1441,2.1441,2.1441,2.1441,2.1441,2.1441,2.1441,2.1441,2.1441,2.1441,2.1441,2.223,2.3553,2.4617,2.5401,2.568,2.568,2.568,2.568,2.568,2.568,2.568,2.568,2.568,2.568,2.568,2.568,2.568,2.568,2.568,2.568,2.568,2.568,2.568,2.568,2.568,2.568,2.568,2.568,2.568,2.568,2.568,2.568,2.5672,2.5153,2.5153,2.5145,2.4865,2.4602,2.3538,2.0606,1.5548,1.2615,1.2355,0.995,0.8616,0.8616,0.8616,0.8616,0.8616,0.8616,0.8616,1.3694,1.2807,1.2594,1.1673,1.2169,1.291,1.228,1.2759,1.4445,1.7263,0.0,0.0,0.0,0.0,0.0,0.0,2.3187,2.3406,2.3512,2.3739,2.3975,2.3905,2.3896,2.3881,2.3312,2.338,2.3075,2.2352,2.1645,2.1475,2.1564,2.1496,2.1475,2.1564,2.1496,2.1441,2.1441,2.1441,2.1441,2.1441,2.1441,2.1441,2.1441,2.1441,2.1441,2.1441,2.1441,2.1441,2.1441,2.1441,2.1441,2.1441,2.1441,2.1441,2.1441,2.1441,2.1441,2.1441,2.1441,2.1441,2.1441,2.223,2.3553,2.4617,2.4873,2.5417,2.568,2.568,2.568,2.568,2.568,2.568,2.568,2.568,2.568,2.568,2.568,2.568,2.568,2.568,2.568,2.568,2.568,2.568,2.568,2.568,2.568,2.568,2.568,2.568,2.568,2.568,2.568,2.568,2.568,2.568,2.568,2.568,2.4074,2.2731,2.1408,1.7407,1.5286,1.5286,1.4214,1.3417,1.3417,1.1816,1.1023,1.1023,0.9416,0.8616,1.593,1.5692,1.5697,1.4523,1.5232,1.5959,1.5348,1.584,1.685,1.8992,1.9789,0.0,0.0,0.0,2.2805,2.2675,0.0,2.3211,2.3293,2.3512,2.3764,2.3785,2.3464,2.2954,2.2463,2.2743,2.2689,2.1991,2.1569,2.1441,2.1597,2.155,2.153,2.1597,2.155,2.1475,2.1441,2.1441,2.1441,2.1441,2.1441,2.1441,2.1441,2.1441,2.1441,2.1441,2.1441,2.1441,2.1441,2.1441,2.1441,2.1441,2.1441,2.1441,2.1441,2.1441,2.1441,2.1441,2.1441,2.1441,2.1441,2.223,2.3289,2.4345,2.4617,2.5145,2.568,2.568,2.568,2.568,2.568,2.568,2.568,2.568,2.568,2.568,2.568,2.568,2.568,2.568,2.568,2.568,2.568,2.568,2.568,2.568,2.568,2.568,2.568,2.568,2.568,2.568,2.568,2.568,2.568,2.568,2.568,2.568,2.381,2.2466,2.2466,1.9804,1.8205,1.8205,1.7407,1.7147,1.7147,1.5015,1.3684,1.2886,0.995,0.8616,1.849,1.849,1.8026,1.5692,1.6866,1.8026,1.547,1.6866,1.8776,1.8938,2.0721,2.2529,2.27,2.2594,0.0,0.0,2.2765,0.0,0.0,2.3041,2.3238,2.326,2.2733,2.2154,2.1794,2.1704,2.1674,2.1197,2.1211,2.1285,2.1441,2.1584,2.1597,2.1455,2.1584,2.1597,2.1441,2.1441,2.1441,2.1441,2.1441,2.1441,2.1441,2.1441,2.1441,2.1441,2.1441,2.1441,2.1441,2.1441,2.1441,2.1441,2.1441,2.1441,2.1441,2.1441,2.1441,2.1441,2.1441,2.1441,2.1441,2.223,2.3031,2.3832,2.4345,2.5145,2.568,2.568,2.568,2.568,2.568,2.568,2.568,2.568,2.568,2.568,2.568,2.568,2.568,2.568,2.568,2.568,2.568,2.568,2.568,2.568,2.568,2.568,2.568,2.568,2.568,2.568,2.568,2.568,2.568,2.568,2.568,2.568,2.5672,2.5672,2.5672,2.2738,2.1136,2.1136,1.8476,1.7147,1.7147,1.6875,1.5548,1.2886,0.995,0.8616,2.1626,2.1626,2.1399,2.0452,2.0914,2.1422,2.0561,2.1071,2.1803,2.1865,2.2456,2.2805,2.274,2.2578,0.0,0.0,0.0,2.27,0.0,2.2639,2.2444,2.2352,2.2557,2.2476,2.1391,2.1555,2.1726,2.219,2.1624,2.1501,2.1812,2.1693,2.155,2.1597,2.155,2.155,2.1597,2.1496,2.1441,2.1441,2.1441,2.1441,2.1441,2.1441,2.1441,2.1441,2.1441,2.1441,2.1441,2.1441,2.1441,2.1441,2.1441,2.1441,2.1441,2.1441,2.1441,2.1441,2.1441,2.1441,2.1441,2.17,2.2502,2.356,2.3817,2.4889,2.568,2.568,2.568,2.568,2.568,2.568,2.568,2.568,2.568,2.568,2.568,2.568,2.568,2.568,2.568,2.568,2.568,2.568,2.568,2.568,2.568,2.568,2.568,2.568,2.568,2.568,2.568,2.568,2.568,2.568,2.568,2.568,2.568,2.568,2.568,2.4865,2.4338,2.4338,2.3266,2.2738,2.2738,2.0878,1.9545,1.8476,1.5622,1.2406,2.3,2.3,2.3,2.3,2.3,2.3016,2.3146,2.3171,2.3171,2.3171,2.3081,2.296,2.2846,2.2724,0.0,0.0,0.0,2.2618,0.0,2.2544,2.2026,2.1459,2.1978,2.1748,2.0978,2.1182,2.135,2.1946,2.1744,2.168,2.1735,2.1881,2.1748,2.1584,2.155,2.155,2.1584,2.1496,2.1441,2.1441,2.1441,2.1441,2.1441,2.1441,2.1441,2.1441,2.1441,2.1441,2.1441,2.1441,2.1441,2.1441,2.1441,2.1441,2.1441,2.1441,2.1441,2.1441,2.1441,2.1441,2.1441,2.1441,2.2244,2.3303,2.356,2.4361,2.5185,2.5908,2.5593,2.5529,2.5932,2.5867,2.5761,2.5697,2.568,2.568,2.568,2.568,2.568,2.568,2.568,2.568,2.568,2.568,2.568,2.568,2.568,2.568,2.568,2.568,2.568,2.568,2.568,2.568,2.568,2.568,2.568,2.568,2.568,2.568,2.568,2.568,2.5745,2.5867,2.5745,2.5745,2.5867,2.387,2.248,2.1408,1.9675,1.6209]}]]